GFSGBSN_925_thetae_012.txt.gz
Theta_e
311 310 312 313 314 314 314 315 316 314 312 311 311 311 312 312 313 314 313 312 311 310 310 311 312 314 318 326 321 318 318 319 319 321 321 320 320 320 319 319 318 318 317 316 316 315 317
311 311 313 314 314 314 313 314 313 312 312 312 312 312 313 313 312 313 312 311 310 310 311 312 314 316 323 325 318 318 318 319 320 320 319 320 320 320 318 318 318 318 317 317 317 318 317
310 312 313 315 314 314 313 313 312 312 312 312 313 313 313 313 312 312 311 310 310 311 312 314 316 318 326 322 318 317 318 318 319 320 321 320 320 319 319 319 319 319 319 319 319 320 319
310 311 313 315 314 313 313 312 312 312 313 313 313 313 312 311 311 311 310 310 311 313 314 316 317 321 325 319 317 317 317 317 318 320 320 319 319 321 322 320 318 318 320 320 320 320 321
310 311 313 315 314 313 313 312 312 313 313 313 313 312 311 310 310 310 311 312 313 315 316 318 319 326 324 317 317 317 317 318 319 320 319 318 320 319 319 318 319 320 320 321 322 320 322
310 310 313 315 314 313 313 312 312 312 313 314 314 313 313 312 313 313 314 314 315 316 316 320 322 325 320 318 317 316 317 318 320 320 320 320 321 320 320 321 321 320 319 319 318 320 318
309 309 313 314 314 313 313 312 312 312 313 314 315 315 315 315 315 314 315 317 322 323 322 321 318 319 317 315 316 317 317 319 320 321 322 320 321 322 321 320 318 318 318 319 321 320 319
308 308 312 314 314 313 313 313 313 312 313 315 315 315 316 316 316 316 319 328 325 322 320 318 318 318 317 318 318 318 318 320 320 320 321 318 321 319 319 319 319 319 319 320 320 319 318
307 308 311 314 314 313 313 313 313 313 313 314 316 318 319 318 316 317 325 325 325 327 320 319 319 318 319 319 319 319 320 319 319 320 317 322 320 319 320 321 321 321 320 323 322 321 321
307 307 309 313 314 313 313 313 313 313 313 314 315 316 320 319 319 325 325 324 327 327 321 317 318 318 319 320 319 319 319 320 318 318 320 321 319 320 321 322 321 322 322 321 321 321 322
308 306 308 312 314 314 313 313 313 314 313 313 313 314 317 318 324 323 325 325 327 330 328 319 319 319 318 321 320 320 319 320 319 320 321 321 321 322 323 322 320 323 322 321 321 322 322
308 306 307 311 314 314 313 313 313 314 313 313 314 318 317 319 329 325 325 327 329 335 328 319 319 320 320 320 321 321 320 321 322 321 322 321 320 322 322 321 320 322 323 323 324 325 332
308 307 308 311 313 314 313 314 313 314 313 313 315 319 322 327 328 326 324 329 324 330 320 320 320 321 321 321 322 322 322 323 324 324 324 323 322 322 321 324 324 322 325 334 337 337 335
308 307 308 311 313 313 313 313 313 313 313 313 314 318 323 327 328 325 329 326 330 322 320 319 320 321 322 322 322 322 323 322 322 325 323 324 327 322 321 322 322 323 323 336 331 334 330
308 307 308 310 312 313 313 313 314 314 314 314 315 324 326 325 321 327 329 330 327 320 321 320 320 321 322 322 322 323 323 321 320 322 325 325 324 321 320 320 320 324 324 320 327 326 330
308 307 308 309 312 313 313 314 315 316 315 315 321 321 322 319 319 330 332 330 325 321 319 320 321 322 322 321 322 323 323 321 321 319 319 319 325 319 319 321 322 322 320 326 331 330 324
308 308 307 308 311 312 313 315 316 317 316 316 324 321 327 317 320 325 331 330 322 320 321 320 321 321 323 322 323 324 323 321 321 320 320 319 322 321 320 321 321 322 323 322 320 325 326
309 308 307 308 310 312 313 315 317 318 317 319 324 323 326 319 323 324 329 323 317 321 322 323 323 322 323 323 324 324 324 324 320 320 321 318 321 327 319 319 319 319 320 320 329 322 328
309 309 308 307 309 311 312 314 317 319 317 323 324 327 325 326 331 338 325 323 322 321 321 322 323 323 324 324 325 324 325 321 320 322 322 320 324 328 322 323 320 318 319 318 320 323 321
309 309 308 307 308 311 312 313 318 319 319 321 327 330 323 323 328 327 326 324 324 322 323 323 323 323 324 324 324 324 324 322 320 319 315 319 320 319 322 318 316 316 316 316 317 326 324
309 309 308 307 308 310 311 312 316 318 320 319 328 327 321 327 327 325 324 323 324 323 322 322 322 322 324 324 324 324 323 320 318 315 319 320 321 320 318 316 316 316 316 316 316 317 319
309 309 308 308 308 310 311 312 316 317 316 321 328 326 325 326 325 324 322 324 323 322 323 322 322 323 323 325 321 322 320 318 320 319 319 320 325 322 320 317 316 316 315 315 316 316 316
309 309 309 308 308 309 311 312 316 316 317 324 324 325 326 322 325 328 327 324 323 323 323 322 322 323 324 322 321 321 320 320 318 320 321 323 325 323 325 319 320 326 321 316 316 316 316
309 309 309 308 308 309 310 312 316 316 320 326 326 324 333 330 328 325 324 323 322 323 322 321 321 324 321 318 319 319 320 320 320 320 321 322 322 322 323 321 327 319 316 316 316 316 315
309 310 310 309 309 309 310 311 315 316 319 323 321 327 328 324 327 324 323 322 323 321 322 323 322 320 320 320 325 319 320 316 319 317 318 320 323 318 325 320 318 318 317 316 316 316 315
310 310 310 310 309 310 311 312 313 317 318 322 315 321 327 323 330 322 322 323 326 326 325 322 321 320 320 327 324 324 327 320 321 318 316 319 323 325 319 321 320 319 316 315 315 319 318
310 311 311 310 310 310 311 312 313 317 318 324 321 317 328 332 323 324 325 326 323 325 326 323 322 323 322 323 320 328 327 318 322 321 318 316 318 320 320 318 319 315 315 314 318 321 317
310 311 311 311 310 311 312 312 313 314 318 323 320 314 326 327 322 322 322 325 323 325 330 324 324 326 329 319 322 327 324 324 322 318 318 317 320 317 318 320 320 315 314 317 319 317 315
310 311 311 311 311 311 312 312 313 313 315 321 324 316 322 326 323 321 320 320 320 320 325 325 322 324 325 325 326 324 317 318 322 325 315 321 322 323 320 320 318 316 315 315 315 315 313

GFSGBSN_925_thetae_015.txt.gz
Theta_e
310 311 311 312 313 314 314 314 313 312 312 312 312 312 311 312 312 312 313 312 311 311 310 310 310 312 318 325 322 317 318 318 317 317 320 321 320 317 317 316 317 314 313 313 313 313 313
310 311 311 312 314 314 313 313 313 312 312 312 312 312 312 312 312 312 312 312 312 310 310 310 312 315 320 324 320 318 318 318 318 319 322 321 319 317 317 316 315 315 313 312 312 315 316
310 311 312 313 314 314 313 313 312 312 312 312 313 313 313 313 313 312 312 311 310 310 310 312 315 318 325 327 319 317 317 318 318 319 318 319 319 317 317 317 317 316 315 314 315 315 316
310 311 311 314 314 314 313 313 312 312 313 313 313 313 313 312 312 312 311 310 310 311 313 315 316 321 325 320 318 317 317 317 318 319 319 319 319 318 319 316 316 316 316 316 316 316 316
310 311 311 314 314 313 313 313 312 312 313 313 313 312 311 311 311 310 310 311 312 313 315 316 318 324 324 318 316 317 316 317 318 319 319 318 319 319 317 316 314 316 315 318 318 317 318
310 310 311 313 314 313 313 312 312 312 313 314 313 312 311 310 310 311 312 313 315 315 316 319 320 324 324 318 317 316 317 317 318 319 319 318 317 316 314 314 317 317 317 318 317 317 317
310 310 311 313 314 313 313 313 312 312 313 314 315 314 314 313 313 313 314 316 320 321 322 319 319 322 316 314 314 315 317 317 319 319 319 319 317 317 318 318 317 317 317 317 317 317 318
310 309 310 313 314 313 313 313 313 312 313 315 315 315 315 315 314 314 318 324 323 323 321 322 318 317 318 318 317 316 318 319 319 319 318 317 318 317 318 319 319 318 319 320 317 318 316
309 308 309 312 314 313 313 313 313 313 313 313 315 316 316 316 316 315 316 324 326 322 318 319 318 318 318 319 318 317 318 318 318 319 319 318 318 318 319 320 320 320 321 320 320 318 318
309 307 307 311 314 313 313 313 313 313 313 313 313 317 319 317 317 319 324 324 326 326 316 317 318 317 318 318 318 318 318 318 318 319 319 318 319 320 320 321 319 323 321 321 320 319 318
308 307 307 310 313 314 313 313 313 313 313 312 313 314 319 318 320 327 324 325 324 329 321 318 319 318 318 319 318 318 319 320 320 317 320 320 320 321 322 320 319 322 321 320 320 320 320
308 307 307 309 313 314 313 313 313 313 313 313 314 317 317 321 323 326 323 323 324 329 322 319 319 320 318 320 320 318 319 320 321 320 318 319 319 319 320 320 319 319 322 322 322 322 323
308 307 307 309 313 314 313 313 313 313 313 313 316 318 321 328 329 326 320 327 323 325 321 318 320 321 320 321 321 321 321 321 322 322 321 321 321 320 320 321 321 320 323 324 326 324 325
308 307 307 309 312 313 313 313 314 313 313 313 315 319 325 326 326 323 328 325 330 322 320 319 320 321 321 321 321 322 321 320 318 322 323 324 324 319 319 320 320 322 322 320 329 325 323
308 307 307 309 312 313 313 313 314 313 313 314 315 321 326 321 317 321 326 327 328 323 320 320 320 322 321 321 322 322 320 319 317 318 322 325 322 319 318 318 319 323 319 318 323 322 318
308 307 307 309 311 312 313 313 315 314 314 314 320 323 325 322 315 326 327 328 326 320 320 320 321 321 321 320 321 322 322 321 320 318 317 319 322 318 318 319 320 319 318 321 319 322 323
308 307 307 308 310 312 313 314 316 316 314 315 322 318 326 321 316 322 326 330 321 319 322 323 323 321 323 321 321 323 322 320 319 319 316 318 322 319 318 318 319 320 321 320 319 317 319
309 308 307 307 309 311 312 314 316 316 316 316 325 321 325 322 319 322 324 326 316 320 321 323 323 322 323 322 324 324 325 322 319 320 319 316 319 316 320 318 318 318 320 320 315 320 315
309 308 307 307 309 311 312 315 316 317 316 321 323 324 325 328 318 318 325 322 321 321 321 322 323 323 323 324 324 325 324 321 320 319 319 318 318 318 321 321 319 317 318 318 320 312 315
309 309 308 307 308 310 312 314 317 317 317 322 325 320 322 322 324 328 327 323 323 322 322 322 323 322 324 323 323 325 323 322 318 316 314 318 319 317 317 317 315 315 315 314 318 314 316
309 309 308 307 308 310 311 313 317 318 318 320 324 324 318 317 320 324 325 323 324 323 322 322 322 323 323 323 324 324 322 320 319 314 318 318 320 319 317 316 315 315 315 314 314 314 314
309 309 308 308 309 310 311 313 316 317 318 320 327 327 321 319 318 324 322 323 324 323 322 322 322 322 322 322 322 322 321 319 320 317 319 319 318 317 317 317 316 316 316 315 314 315 315
309 309 308 308 309 309 310 312 316 316 315 323 326 325 324 323 321 323 323 324 323 322 322 322 321 320 318 320 318 318 317 317 319 319 320 320 313 312 317 315 316 313 317 316 316 315 315
309 309 309 308 309 310 310 312 316 317 321 326 324 327 320 318 324 324 325 323 323 322 321 322 320 318 319 315 313 312 312 314 318 317 319 315 314 310 309 307 309 318 315 314 315 314 313
309 309 309 309 309 310 310 312 316 317 322 321 322 327 316 312 325 324 322 323 321 322 322 321 320 317 316 319 312 310 309 306 312 316 317 318 311 306 312 312 312 317 316 315 315 314 316
309 310 309 309 310 310 311 312 316 318 321 317 316 324 320 314 318 325 321 321 320 321 321 321 320 319 320 310 307 311 314 314 316 317 313 316 310 308 306 307 306 313 315 314 314 312 316
310 310 310 310 310 311 311 311 313 317 322 322 314 321 327 319 320 322 322 321 321 321 319 320 321 320 317 309 314 312 315 317 316 315 309 307 307 306 314 303 309 314 314 313 314 311 315
310 310 310 310 310 311 311 312 312 315 321 324 316 320 325 317 319 320 321 323 322 320 315 319 315 314 308 313 309 310 310 311 314 315 312 309 307 312 314 312 311 313 313 311 311 314 312
310 311 311 310 311 311 311 312 312 313 317 323 321 321 323 321 320 320 318 318 319 321 319 318 314 321 317 312 309 311 312 313 311 312 314 314 313 312 311 310 310 313 312 312 312 312 311

GFSGBSN_925_thetae_018.txt.gz
Theta_e
313 311 310 311 312 312 313 314 313 313 312 312 312 312 312 311 312 312 312 311 311 312 311 310 310 311 317 323 319 318 316 316 316 315 316 317 320 317 315 314 313 311 312 311 311 312 312
312 310 309 311 312 313 314 313 313 312 312 312 312 312 312 312 312 312 312 312 312 311 310 309 311 314 317 323 319 319 317 317 316 316 319 319 319 316 316 314 313 312 311 311 311 313 314
311 309 310 311 312 313 314 313 313 312 312 312 312 312 312 312 312 312 312 311 311 310 309 311 314 317 322 322 320 317 316 316 317 319 318 317 319 317 316 315 313 311 312 312 313 314 315
311 309 310 311 312 313 313 313 312 312 312 312 312 312 312 312 312 312 311 311 310 310 311 314 316 318 321 316 318 316 316 317 317 319 319 318 318 317 316 314 313 314 313 314 315 314 316
310 309 310 311 313 313 313 313 312 312 312 313 312 312 311 311 311 311 310 310 310 312 314 315 317 321 316 319 316 316 316 316 318 319 319 318 318 316 313 312 311 312 313 315 317 314 315
310 309 311 311 312 313 313 313 312 312 312 313 313 312 310 310 310 310 310 312 314 315 315 317 319 322 320 322 316 316 316 316 317 318 317 316 313 314 312 312 313 315 315 315 315 316 316
310 309 310 311 312 313 313 313 312 312 313 314 314 313 311 311 310 311 313 315 316 317 319 313 318 321 318 314 315 315 316 317 317 317 317 317 316 315 316 315 315 316 316 315 316 316 317
309 310 310 311 312 313 313 313 312 312 313 314 315 315 314 313 313 313 316 323 319 322 315 318 320 319 318 315 316 315 317 317 317 318 318 315 316 316 317 318 319 318 317 317 316 316 314
309 310 309 310 312 313 313 312 313 313 313 313 314 314 315 315 314 314 315 319 322 326 320 317 318 317 317 318 316 316 317 317 317 317 317 316 317 317 319 318 320 320 319 319 319 317 315
309 309 308 310 312 313 313 312 313 313 313 313 314 317 315 315 315 321 318 324 326 327 313 316 317 316 317 317 317 317 317 317 318 316 316 317 318 319 319 319 318 322 320 319 319 316 314
309 309 308 308 312 313 313 313 313 313 313 313 313 318 318 316 318 325 326 324 325 324 316 316 318 317 317 318 318 317 318 319 318 317 317 319 319 319 319 319 318 321 320 319 319 318 319
309 308 307 308 312 313 313 313 313 313 313 313 313 315 317 319 323 326 325 320 323 324 318 318 318 318 316 318 318 317 317 318 319 318 316 318 318 318 319 319 319 318 321 321 320 319 321
309 307 307 308 311 313 313 313 313 313 313 312 317 317 318 324 328 326 319 319 321 319 319 317 318 319 319 319 320 319 318 317 320 319 320 319 319 318 319 321 319 317 321 321 324 322 322
309 307 307 308 311 313 313 313 313 313 313 313 318 319 327 327 322 321 325 319 328 321 319 317 318 319 320 320 319 320 319 318 316 320 319 321 322 318 317 318 319 321 319 319 328 322 320
308 307 307 308 311 313 313 313 313 313 313 313 315 320 325 321 317 319 319 322 325 321 319 319 320 320 320 320 320 319 318 317 317 317 321 321 320 318 317 317 319 321 317 317 319 316 316
308 307 307 309 311 312 313 313 314 313 313 314 317 323 322 322 316 323 322 323 325 319 320 319 320 320 320 319 321 320 320 319 319 317 316 319 319 317 317 319 318 315 316 320 315 319 321
308 307 307 309 311 312 313 314 314 313 313 315 323 313 321 322 317 316 322 325 322 319 321 321 322 320 321 319 320 321 321 319 318 318 314 319 317 317 320 317 318 317 319 318 316 314 317
308 307 307 308 310 312 312 315 315 315 314 316 320 317 326 325 310 316 321 324 318 319 320 321 322 323 321 322 324 323 323 321 318 319 316 316 315 315 320 316 317 317 319 316 314 317 312
308 307 307 308 310 311 312 316 316 316 315 317 318 320 326 326 311 311 320 321 320 319 320 321 322 322 322 322 324 324 322 319 316 317 319 315 315 315 319 319 316 316 317 319 314 310 314
308 307 307 308 310 311 312 316 316 316 317 323 320 317 317 317 316 319 325 321 322 320 321 321 321 321 321 322 322 323 322 320 315 314 313 317 317 315 317 318 313 314 314 316 315 311 313
308 308 307 308 309 311 312 315 317 317 317 319 321 318 313 313 314 320 323 321 322 322 320 320 321 321 321 323 323 322 321 319 317 313 316 315 317 317 315 314 314 314 314 313 313 313 314
309 308 307 308 309 310 311 315 316 317 317 319 323 322 315 311 315 320 320 322 322 322 321 321 320 321 320 320 320 322 318 317 317 316 318 316 315 314 315 315 316 315 315 315 313 313 314
309 308 307 308 309 310 312 316 316 317 318 319 321 322 316 316 313 318 320 320 322 321 320 320 319 317 317 319 316 315 315 316 317 316 319 316 311 308 311 312 313 310 315 315 315 313 313
309 308 308 309 309 310 312 316 316 315 317 324 324 322 316 315 318 318 323 321 321 320 321 320 317 316 318 314 310 309 309 312 315 316 315 312 311 303 305 302 305 315 313 313 313 315 314
309 309 308 309 310 311 312 315 316 320 321 322 322 322 313 309 320 322 321 321 320 319 320 320 319 315 313 312 307 308 307 309 311 315 317 312 305 306 303 309 306 314 314 314 312 313 314
309 309 309 309 310 310 311 314 317 320 319 316 323 326 312 311 316 322 319 319 318 318 317 320 318 317 311 304 304 309 310 308 315 317 312 312 304 304 308 303 302 306 313 312 311 312 314
309 309 309 309 310 310 311 312 316 321 321 315 318 324 321 315 317 320 318 319 317 316 316 319 320 318 310 300 309 306 314 312 314 312 308 307 302 304 297 300 306 307 312 311 312 309 313
310 310 310 310 310 311 311 312 314 319 321 318 320 324 320 313 316 319 319 319 318 315 314 315 313 310 306 306 304 310 304 309 311 313 311 309 308 307 306 301 309 309 312 311 308 311 311
310 310 310 310 311 311 311 312 312 316 322 320 318 322 321 315 316 318 318 319 319 317 315 314 312 314 311 309 307 311 305 309 307 313 312 312 308 309 310 310 308 309 310 309 310 311 308

GFSGBSN_925_thetae_021.txt.gz
Theta_e
313 314 313 311 310 310 312 313 313 312 313 312 312 312 312 312 312 312 313 313 312 312 311 310 309 310 316 321 316 318 317 317 318 317 314 315 317 317 316 313 314 311 311 311 310 310 308
312 314 313 310 309 311 312 313 313 312 312 312 312 312 312 312 312 312 312 312 311 312 311 309 310 314 316 315 317 319 317 316 316 315 316 315 316 317 316 313 311 311 310 309 312 312 312
313 313 312 309 309 311 312 313 313 312 312 312 312 312 312 312 312 312 312 312 312 311 309 310 313 316 320 315 318 317 316 317 317 316 316 318 318 318 314 312 311 309 311 311 313 313 314
313 312 312 309 310 311 313 313 313 312 312 312 312 312 312 312 312 312 312 311 311 309 311 314 315 317 317 315 317 318 316 315 316 316 318 317 317 315 314 312 311 313 311 312 313 314 312
313 312 311 309 311 311 313 313 312 312 312 312 312 312 312 312 312 311 311 310 310 312 314 315 316 319 314 315 317 317 315 316 317 317 317 317 316 313 312 310 310 310 312 314 315 313 314
312 312 311 309 311 311 313 313 312 312 312 312 312 312 311 311 311 310 310 313 314 315 315 316 317 319 317 317 316 315 315 316 317 317 315 315 312 313 311 310 311 314 315 313 314 314 314
312 313 310 309 311 312 313 313 312 312 312 312 313 312 310 310 310 310 312 315 316 317 317 311 315 317 319 314 314 315 315 316 316 314 316 314 315 315 314 314 314 315 315 314 314 314 313
312 313 310 309 310 311 313 313 312 312 312 313 314 313 311 310 311 312 315 318 316 322 315 317 319 318 318 318 315 314 317 316 316 316 316 314 316 315 316 317 317 316 315 316 316 314 313
312 312 309 310 310 311 313 313 312 312 312 313 313 314 313 313 313 314 315 317 322 319 321 316 316 316 316 315 315 316 316 316 316 317 316 315 316 316 316 317 319 319 317 318 318 314 314
312 312 309 310 309 311 313 312 312 312 312 312 314 314 314 314 314 317 316 323 326 325 312 315 316 315 317 316 315 316 316 317 317 316 314 316 317 318 317 317 317 321 319 318 318 313 318
312 312 309 309 309 311 313 312 312 312 312 312 313 316 314 316 318 323 326 323 324 321 314 314 317 316 315 317 316 314 317 317 316 316 316 319 318 318 318 318 318 321 318 317 318 316 316
313 311 309 309 308 311 313 312 312 312 312 312 313 318 317 315 320 325 324 321 322 320 317 317 317 317 316 317 317 315 317 315 316 316 315 318 316 317 318 318 318 317 319 319 318 317 319
313 309 309 308 308 311 313 313 312 312 313 312 313 316 318 323 326 326 321 315 317 320 317 317 318 316 317 318 318 317 317 316 318 318 319 318 317 316 317 320 318 317 319 320 322 321 322
313 309 309 307 307 312 313 313 313 313 313 312 316 316 320 327 322 320 321 312 325 321 318 316 318 317 319 319 318 318 318 316 315 317 318 319 320 317 316 318 319 318 318 319 327 321 319
312 309 308 307 308 312 313 313 313 313 312 313 318 321 324 322 318 321 314 317 322 319 317 318 318 319 320 319 318 317 317 316 316 316 321 319 319 317 316 316 318 319 316 316 317 314 316
310 309 308 307 309 312 313 312 313 313 313 313 317 321 321 322 317 321 318 321 323 319 318 317 319 318 319 319 320 319 320 318 318 314 315 318 317 316 316 317 316 315 315 318 313 317 320
309 308 307 308 310 312 313 312 313 312 313 314 322 309 320 323 317 313 316 321 324 318 320 318 318 319 318 318 319 320 320 318 318 318 314 318 313 315 317 316 317 316 317 315 315 313 316
309 308 308 308 310 311 312 313 314 312 313 318 315 310 325 321 309 313 319 322 319 318 318 321 321 321 318 321 323 322 321 319 317 318 315 315 313 315 318 315 316 316 317 314 311 316 311
308 308 308 308 310 311 312 314 314 313 314 319 314 320 325 317 308 310 316 321 319 318 319 320 321 321 320 322 322 322 320 318 313 316 317 315 314 315 317 317 314 317 316 314 311 308 313
308 307 308 308 310 311 313 316 314 314 314 320 313 316 314 314 310 313 320 320 321 319 320 319 320 320 320 322 320 321 321 318 312 312 313 314 315 313 316 315 313 313 313 315 313 311 312
308 307 307 308 310 311 313 316 315 314 315 322 317 314 312 314 316 321 320 320 321 321 320 318 320 321 320 322 322 321 320 318 314 313 315 313 315 315 313 313 313 313 313 312 314 313 313
308 307 307 309 310 311 314 316 316 315 319 318 321 316 312 308 312 317 319 321 320 321 320 320 319 320 319 319 319 321 317 315 312 315 317 313 313 312 316 313 314 314 311 311 310 311 313
308 307 308 309 310 311 315 316 316 316 317 316 318 319 313 312 313 317 318 321 320 319 319 318 318 316 316 318 315 314 314 314 315 315 317 312 309 306 306 309 311 305 311 314 313 312 312
308 307 309 309 310 312 315 316 316 316 316 321 323 317 314 313 311 313 320 320 320 319 320 318 316 316 316 310 309 308 308 312 315 315 312 310 307 301 303 302 303 308 311 312 312 313 314
307 308 309 309 311 312 315 316 316 317 317 324 322 317 311 309 316 320 320 319 318 318 319 319 318 314 310 306 306 309 306 308 310 314 312 310 303 305 303 305 305 310 313 312 313 311 312
308 309 309 309 311 312 315 317 318 316 317 322 323 319 311 314 317 319 319 318 316 315 316 319 316 313 308 301 303 305 306 308 314 316 311 307 301 303 305 300 300 304 312 310 310 311 311
309 309 309 310 311 312 314 318 321 320 318 319 322 323 317 313 316 318 317 317 314 313 314 318 318 316 307 299 300 305 312 309 313 311 308 307 300 303 294 299 305 305 311 310 312 307 311
309 309 309 310 311 312 312 316 320 318 315 318 321 323 318 311 316 318 318 317 315 313 313 314 312 309 303 306 303 304 302 308 310 311 311 310 310 306 304 302 308 307 310 311 309 307 311
309 309 310 310 311 311 312 314 318 320 317 320 321 320 318 313 316 317 318 318 318 314 313 311 313 311 310 306 301 304 302 309 306 310 309 310 307 308 308 309 306 306 309 308 307 309 309

GFSGBSN_925_thetae_024.txt.gz
Theta_e
315 313 312 313 313 311 310 310 311 312 312 312 312 312 311 312 313 312 313 313 314 312 311 310 311 310 314 319 315 317 318 317 315 315 314 313 314 314 315 313 313 313 311 310 308 308 311
315 314 312 313 314 311 309 310 311 313 312 312 312 312 312 311 312 312 313 313 313 311 310 311 310 312 314 316 315 318 317 317 317 315 314 313 314 315 317 314 314 311 309 310 310 308 308
315 314 313 312 313 311 309 311 312 313 312 312 311 311 311 311 312 312 313 312 312 311 310 310 312 313 318 316 317 316 317 316 316 316 314 314 315 315 314 313 311 309 310 310 310 312 312
315 314 313 313 312 310 309 311 312 313 312 312 311 312 311 311 312 312 312 312 311 310 309 312 313 315 318 315 315 317 318 314 315 315 315 316 316 315 314 311 311 311 310 310 312 313 311
315 315 314 313 312 309 309 311 312 313 312 311 311 311 312 311 311 312 312 311 310 311 313 314 314 317 316 315 317 316 315 314 315 315 315 315 315 312 310 310 309 309 311 313 315 312 313
315 315 314 312 311 309 310 311 312 312 312 311 311 312 312 311 311 311 311 311 313 314 314 315 316 318 315 315 317 315 315 315 316 315 315 315 311 311 310 308 310 312 313 312 314 313 310
315 315 314 312 311 309 310 311 312 312 312 311 312 312 311 310 311 311 312 313 314 315 316 311 314 313 318 317 313 314 315 316 315 314 316 313 313 313 314 312 312 313 314 314 313 312 314
315 315 315 312 311 309 310 311 312 312 312 312 312 313 311 310 311 311 313 314 314 318 318 316 316 317 317 317 314 313 316 316 315 316 315 313 314 314 316 315 314 314 313 315 315 312 315
316 316 315 312 311 309 310 311 312 312 312 312 313 313 311 311 312 313 315 316 318 321 320 316 316 314 314 315 314 315 316 316 315 316 314 314 315 315 316 316 317 317 316 317 316 315 313
317 316 314 312 311 309 310 311 312 312 312 312 312 313 313 312 313 314 314 317 325 321 312 315 315 314 315 314 315 315 315 316 315 314 315 317 316 316 315 316 316 319 318 317 315 315 317
318 316 314 312 311 309 310 311 312 312 312 312 312 313 314 312 318 321 324 325 324 315 314 313 315 315 314 316 314 314 316 314 315 315 315 319 317 316 316 317 317 320 316 316 315 315 314
317 316 314 312 310 309 309 311 312 312 312 312 312 314 313 313 316 323 325 323 318 318 316 315 316 316 316 316 316 315 316 314 314 316 315 316 315 316 317 317 316 316 318 316 317 315 317
316 316 313 312 309 310 309 311 312 312 312 312 311 316 314 316 324 326 323 312 315 319 316 316 316 315 316 317 317 316 315 315 316 318 318 316 316 315 316 319 316 317 317 319 321 319 320
316 316 313 312 309 309 309 312 312 312 312 312 311 314 316 323 325 323 316 311 319 320 316 315 316 316 317 318 317 316 316 316 314 315 316 317 316 316 314 317 318 316 318 319 326 322 319
307 316 312 311 309 308 309 312 312 312 312 311 312 314 321 323 321 322 310 312 317 318 315 317 317 318 319 318 317 316 316 315 315 315 320 318 319 316 315 315 317 318 315 314 317 313 315
306 316 312 310 309 307 309 312 312 312 312 312 316 319 321 322 321 318 311 314 320 320 317 316 318 317 319 319 318 318 319 317 317 315 314 317 317 315 315 316 314 316 314 316 312 316 318
307 316 312 309 308 307 310 312 312 312 312 313 318 311 319 323 316 310 310 315 323 318 318 317 317 318 317 318 318 319 318 318 317 318 315 315 313 314 315 315 317 316 316 313 313 311 314
312 315 311 309 307 308 311 312 312 312 312 315 309 310 324 319 310 310 317 321 320 317 317 320 319 318 316 319 321 320 320 318 315 318 316 314 312 315 316 314 315 315 316 311 310 313 310
314 313 309 308 307 309 311 312 312 313 312 318 315 320 322 311 309 310 314 319 318 317 318 320 320 320 319 320 321 320 319 316 311 315 315 313 313 315 315 313 312 317 316 311 309 308 313
314 311 309 307 307 310 311 312 313 312 313 317 314 318 314 310 308 311 317 320 320 318 319 318 319 318 319 321 318 320 319 317 312 313 313 312 312 312 313 313 312 312 314 313 311 309 310
312 309 308 307 309 310 311 312 314 312 314 319 311 314 314 316 317 312 317 318 320 320 319 317 318 319 319 321 320 320 319 316 312 313 314 310 314 313 313 312 312 312 311 313 313 311 312
309 308 308 308 309 311 311 315 315 313 315 317 319 312 307 309 315 317 316 319 318 319 319 319 318 319 318 318 317 319 316 313 309 315 315 311 311 310 315 312 311 313 309 309 310 310 311
308 308 307 308 310 311 312 315 314 314 316 314 316 314 310 308 313 315 316 319 319 318 318 317 317 316 317 318 315 312 311 311 312 315 314 310 308 305 306 307 306 306 309 310 311 309 309
308 307 307 309 310 311 314 316 315 314 317 318 320 315 312 308 310 316 318 319 318 317 318 317 315 314 314 308 308 308 308 311 313 313 310 308 305 299 302 301 303 308 308 310 311 311 308
307 307 309 310 311 313 315 316 315 315 317 323 322 316 310 305 309 315 318 318 317 316 318 318 317 312 308 305 308 311 306 308 309 310 307 306 302 303 302 304 305 307 308 311 312 311 310
307 308 310 310 311 314 315 316 316 315 316 321 322 320 311 310 314 316 317 316 315 314 315 317 314 309 305 299 302 306 309 310 313 315 309 305 301 302 300 301 301 305 308 309 310 311 309
308 310 310 311 312 314 316 316 316 315 316 320 322 320 314 313 315 315 315 316 312 312 313 315 316 315 306 299 300 303 307 307 311 310 309 305 302 301 294 298 304 304 310 309 312 309 308
310 310 311 311 312 314 318 320 316 316 317 320 321 322 315 311 316 317 316 314 313 312 312 312 312 309 303 306 303 303 302 307 309 309 311 310 309 303 302 299 309 305 310 311 309 306 308
310 310 311 312 312 314 317 320 319 319 318 319 320 317 317 313 314 316 316 316 317 312 311 309 313 311 309 305 298 299 302 305 305 310 308 310 307 307 307 308 305 304 308 307 306 307 308

GFSGBSN_925_thetae_027.txt.gz
Theta_e
317 315 315 315 313 312 313 311 310 309 311 312 312 312 312 312 312 311 312 311 312 312 311 311 310 310 313 318 316 314 317 318 312 313 315 314 315 315 318 317 314 314 313 311 310 319 321
318 316 315 315 313 312 313 312 309 309 311 312 312 312 311 311 311 312 311 311 312 312 311 310 310 311 312 316 314 316 317 316 313 314 313 313 314 315 317 315 315 314 311 310 309 311 312
319 316 316 315 314 312 312 312 309 310 311 312 312 312 311 311 311 311 311 311 313 311 310 309 310 312 316 316 315 316 315 316 316 314 314 314 314 316 317 314 313 310 312 312 311 311 312
321 317 316 315 314 313 312 311 309 310 312 312 312 311 311 311 311 312 312 312 313 311 310 309 310 313 319 313 314 314 316 316 315 315 315 315 314 315 316 312 312 313 312 313 313 313 311
322 319 316 315 314 313 312 311 308 310 312 312 312 311 311 311 311 312 312 312 311 309 310 311 313 314 319 315 315 315 316 313 313 314 315 314 315 316 311 313 315 313 315 314 314 313 313
320 321 316 315 314 314 312 311 308 311 312 312 312 311 311 311 311 312 312 310 312 311 312 313 315 318 315 314 316 314 313 314 316 314 315 315 314 315 313 314 316 315 314 314 315 314 316
314 320 317 316 314 314 312 310 309 311 312 312 312 311 311 311 312 311 310 313 313 315 314 315 314 315 314 315 314 313 314 315 314 316 318 314 317 317 315 313 311 313 314 315 314 312 320
308 317 319 316 315 314 312 310 309 311 312 312 311 311 312 311 312 311 312 313 313 316 321 316 316 316 315 316 315 313 316 316 315 317 315 317 317 314 316 315 315 315 317 316 315 315 320
307 310 319 317 315 314 312 310 309 311 312 312 311 311 312 311 312 311 313 315 318 319 322 317 316 315 312 315 315 314 315 314 315 316 315 317 316 315 317 317 319 317 318 317 318 318 317
308 306 315 318 315 315 312 310 309 311 312 312 311 312 312 312 311 312 313 314 317 321 315 315 315 315 314 314 315 314 314 315 315 315 317 318 316 316 316 318 317 321 317 316 316 319 321
307 306 310 318 316 315 312 310 309 311 312 312 311 311 313 311 314 315 320 323 324 314 318 314 314 314 314 314 313 314 315 314 316 315 317 319 317 316 318 317 317 320 316 317 316 317 318
307 306 307 317 317 315 312 310 310 311 312 312 311 311 313 312 313 319 323 323 318 322 323 315 315 315 316 315 315 314 316 314 313 317 317 316 314 316 317 316 315 317 319 319 319 320 321
306 307 306 313 317 315 312 310 310 311 312 312 311 311 312 313 318 325 325 313 319 323 316 315 316 315 316 317 316 316 316 318 319 321 320 318 317 315 316 319 317 319 321 325 327 328 325
306 306 306 308 316 315 312 309 310 311 312 311 311 311 313 314 319 323 315 314 319 318 317 314 315 316 318 317 317 316 316 318 316 317 319 319 320 316 315 318 319 318 321 328 324 328 326
304 306 306 309 316 315 311 309 309 311 312 311 311 311 313 315 316 319 312 316 317 317 315 316 316 318 318 317 317 317 316 316 315 315 322 320 319 315 314 315 317 318 319 317 320 315 321
302 306 306 313 316 314 311 309 309 312 312 311 311 313 316 323 323 314 314 314 316 318 316 315 318 317 319 318 319 318 318 317 316 315 315 318 319 314 315 315 316 318 315 321 318 320 318
301 304 305 308 316 313 310 309 309 312 311 311 316 316 315 323 317 312 315 313 321 320 317 316 317 318 318 318 318 319 318 317 317 317 315 314 318 317 315 317 319 319 318 315 316 316 318
301 304 304 307 315 312 309 308 310 312 311 313 308 312 321 317 313 311 315 316 320 317 317 319 316 317 318 318 320 320 320 318 314 317 319 314 317 320 316 314 315 315 316 316 318 315 314
303 303 303 304 313 311 309 308 311 311 311 314 310 320 318 309 314 313 313 318 319 316 318 319 320 318 319 321 321 320 319 315 311 315 317 315 317 320 319 316 314 317 316 312 311 313 317
303 301 301 303 313 310 308 308 312 311 312 316 316 321 316 309 308 313 318 318 319 317 318 317 318 318 320 321 319 321 320 316 312 314 313 314 314 317 319 315 314 315 317 313 315 318 315
302 301 303 306 313 309 307 310 311 311 312 316 312 316 316 317 313 311 314 318 319 320 318 316 319 319 320 321 320 319 318 314 313 314 315 313 317 314 313 313 312 311 313 314 314 314 318
302 302 304 311 312 308 308 311 311 312 312 315 315 313 307 311 314 313 316 318 318 318 319 319 320 318 318 320 319 321 318 313 311 315 316 312 316 312 315 313 312 314 312 311 313 312 313
304 304 310 313 309 307 310 311 311 313 313 314 315 310 311 308 314 312 316 318 318 319 317 316 317 317 318 317 315 313 312 312 313 317 314 312 313 311 313 308 308 312 312 312 311 311 314
303 308 312 309 307 309 310 311 313 313 314 317 318 311 311 309 313 313 316 318 318 317 319 316 315 316 313 310 309 311 311 313 313 310 310 309 307 304 312 306 313 311 310 310 312 311 310
309 310 308 307 308 310 311 312 315 313 314 321 320 314 309 306 309 315 317 318 317 316 318 317 316 311 309 308 313 314 312 312 311 309 307 307 307 307 315 311 308 309 306 311 313 313 311
309 308 307 308 309 310 311 314 315 313 314 320 321 315 309 309 311 314 317 316 317 316 316 315 312 307 305 305 309 315 318 314 313 315 309 306 304 312 306 311 312 309 306 310 311 317 310
308 307 308 310 310 312 314 315 315 313 315 320 320 317 314 315 315 314 317 317 312 313 315 313 313 314 306 306 310 312 313 308 313 312 312 313 309 312 303 313 310 306 307 309 314 315 308
307 309 310 311 312 314 315 315 315 314 316 320 320 321 315 312 315 316 314 313 313 314 317 314 315 313 308 312 313 310 312 311 311 310 313 314 314 313 305 310 315 306 311 315 314 308 309
310 311 311 312 313 316 317 316 316 314 316 320 318 315 316 314 315 315 315 315 315 311 313 310 315 312 313 311 305 305 311 307 308 316 308 314 312 315 311 315 309 306 312 309 307 309 309

GFSGBSN_925_thetae_030.txt.gz
Theta_e
323 320 319 316 315 315 313 311 312 311 309 309 311 312 312 312 312 312 312 311 311 311 312 311 310 309 314 320 317 314 316 311 312 313 317 317 316 316 315 317 318 318 318 317 320 323 323
321 323 319 318 315 315 314 312 312 312 309 309 311 312 312 311 311 311 310 311 311 312 311 310 309 309 316 318 314 318 316 314 314 314 318 317 317 317 319 319 319 318 316 315 315 320 323
317 322 322 319 316 315 314 313 312 312 309 309 311 312 312 311 311 311 311 311 312 311 310 309 309 312 318 318 315 319 317 317 315 315 318 317 317 317 319 320 317 315 314 314 313 316 323
312 318 322 321 318 315 314 313 312 311 309 310 312 312 312 311 311 311 310 312 312 311 309 308 310 313 321 316 316 317 317 318 317 316 317 317 317 318 318 316 315 315 316 316 315 317 316
311 312 320 322 320 316 315 314 313 311 309 310 312 312 312 311 311 311 310 312 311 309 310 311 314 317 320 316 317 316 317 316 317 317 317 316 317 319 317 317 316 316 316 315 316 317 318
309 312 316 321 322 317 315 314 313 311 309 310 312 312 311 311 311 311 310 311 310 311 313 313 316 323 321 318 317 315 315 316 319 318 317 318 319 319 317 318 319 318 317 315 316 318 317
308 309 311 318 321 319 315 314 314 311 309 310 312 312 311 311 311 311 311 313 318 321 317 319 317 320 317 317 316 315 315 318 318 319 320 319 320 318 317 317 316 317 318 318 317 320 320
306 306 307 313 319 321 316 314 314 311 309 311 312 312 311 312 311 311 312 318 318 321 323 319 318 317 317 316 318 316 316 319 320 319 319 319 320 318 319 317 318 318 318 320 318 319 323
305 305 306 308 313 320 317 315 314 311 309 311 312 312 311 312 311 310 314 316 320 320 327 320 320 317 315 316 318 316 318 318 318 318 319 320 320 319 320 319 320 320 321 320 321 321 322
304 305 305 307 307 318 319 315 314 312 309 311 312 311 312 312 311 314 314 313 316 317 321 317 318 319 317 318 317 316 317 318 319 319 321 321 319 320 321 321 320 321 320 320 321 322 321
305 304 305 306 306 311 318 316 315 312 309 311 312 311 312 310 316 315 320 316 324 322 319 317 318 315 317 317 317 318 317 319 318 319 320 321 320 321 321 321 320 322 319 321 321 322 322
304 303 305 306 306 307 317 318 315 312 309 310 312 311 312 311 314 317 320 324 323 326 319 317 318 317 319 317 317 319 320 319 319 320 321 321 319 321 321 320 320 321 322 322 322 323 323
302 304 304 304 306 306 315 318 315 312 309 310 312 311 311 314 316 323 323 322 323 323 318 318 318 318 318 318 319 320 320 320 320 322 323 321 321 320 320 322 322 323 324 322 325 325 323
302 303 303 304 307 306 312 317 316 312 309 310 312 311 311 315 316 319 319 323 321 318 318 317 317 319 319 319 320 320 321 321 320 321 322 322 323 320 319 322 321 322 322 321 318 322 322
302 302 304 303 306 306 309 316 316 311 309 311 311 311 313 315 314 317 321 323 320 321 319 318 318 318 320 319 320 321 321 321 320 321 320 321 320 319 318 320 320 321 322 322 325 321 326
301 302 303 304 306 306 307 315 316 311 309 312 313 314 315 317 315 317 323 321 320 321 319 318 318 318 320 320 319 322 322 320 321 320 320 322 322 319 319 319 320 322 320 323 324 324 319
301 300 301 303 306 306 307 314 315 310 309 312 314 317 321 320 321 324 323 321 320 323 320 318 318 319 319 321 318 320 322 320 320 320 320 320 321 322 320 321 322 321 321 320 320 322 318
301 300 300 301 304 305 311 313 314 309 311 311 316 320 320 319 324 322 322 319 322 321 320 320 320 320 320 322 322 319 321 321 319 320 322 319 323 325 322 319 319 320 321 319 319 319 321
300 300 299 301 304 304 311 313 312 308 311 313 318 324 318 314 324 324 319 319 323 320 321 322 322 322 322 324 324 323 323 318 317 320 323 320 323 325 322 320 319 320 320 318 318 320 320
298 300 300 302 302 303 309 314 310 309 311 316 320 326 324 319 317 320 320 320 322 320 321 322 323 323 324 324 324 325 324 318 316 318 312 316 322 323 324 320 320 320 320 318 318 320 317
299 299 300 302 302 302 308 312 309 310 311 317 321 322 323 323 319 319 320 319 321 323 321 322 323 324 324 326 324 325 323 317 317 316 319 320 322 320 317 317 317 317 318 319 318 318 318
299 299 301 302 302 301 308 310 308 311 311 317 321 321 318 321 317 318 317 320 321 322 322 323 325 324 324 326 323 325 323 320 321 319 321 318 322 319 320 317 316 317 317 317 318 318 318
300 300 302 301 300 302 307 311 308 311 312 319 319 314 320 315 318 319 319 319 319 324 321 321 324 324 324 323 321 321 319 318 318 321 322 321 320 319 319 314 315 321 318 317 316 317 317
301 301 301 301 303 305 309 310 308 311 313 319 321 318 323 321 318 316 317 320 321 323 324 320 321 324 319 317 317 318 318 318 317 316 316 318 317 316 321 313 328 314 313 314 316 316 316
300 300 301 303 304 308 311 308 310 311 313 320 319 319 321 323 319 317 318 321 322 322 323 322 320 317 317 317 322 321 323 323 319 314 314 314 316 317 327 316 314 311 311 312 315 314 315
300 303 304 306 307 311 308 308 310 311 312 320 320 315 321 323 320 316 320 323 324 325 323 319 314 313 312 318 323 327 326 321 321 320 314 312 313 319 316 332 333 315 312 313 314 316 313
302 304 305 308 310 307 308 310 311 312 312 321 318 314 320 326 317 320 320 323 322 324 325 318 316 317 314 322 333 329 325 315 319 319 320 321 319 325 319 326 318 312 310 313 316 315 315
306 306 309 308 308 309 310 310 313 313 313 320 319 316 323 324 320 320 318 321 320 324 327 319 320 319 319 328 330 323 328 317 317 315 318 320 323 324 317 326 326 310 314 319 316 316 314
308 307 308 308 309 310 310 312 314 313 313 319 320 316 319 323 322 317 316 316 318 319 322 319 324 321 322 325 322 319 321 315 320 323 314 319 319 320 318 319 313 312 316 315 314 315 314

GFSGBSN_925_thetae_033.txt.gz
Theta_e
316 321 323 322 319 318 315 314 314 312 312 311 310 310 312 312 312 311 310 310 311 311 311 311 310 309 313 322 319 321 317 312 312 316 317 317 316 317 317 317 318 320 320 320 326 325 324
312 314 320 323 322 319 316 315 314 312 312 312 309 310 312 312 312 311 311 310 311 311 311 311 309 309 317 321 316 320 320 315 315 317 317 316 317 317 318 318 320 320 320 322 323 324 324
309 312 313 319 323 321 318 315 315 313 311 312 309 310 312 312 311 311 311 310 311 311 311 310 309 312 319 321 318 322 319 318 316 317 318 318 318 318 321 321 320 318 319 320 321 322 325
308 308 312 314 320 322 320 317 315 314 312 311 309 310 312 312 312 311 311 310 312 311 311 308 309 316 321 318 318 319 321 320 319 318 318 319 319 319 320 320 319 318 318 319 319 319 324
307 308 309 312 315 321 322 319 315 314 313 311 309 310 312 312 311 311 311 311 311 310 309 311 315 320 323 318 317 318 319 319 319 319 318 318 319 321 320 320 320 318 319 318 318 319 321
305 307 309 310 313 319 321 321 316 314 313 312 309 310 312 312 311 311 311 311 312 312 314 315 318 324 323 319 319 317 318 318 321 320 321 320 321 322 321 320 319 319 319 318 318 319 321
306 306 307 309 310 314 320 321 318 315 314 312 309 311 312 312 311 311 311 315 319 323 319 322 321 320 319 319 318 318 317 318 321 322 323 322 321 321 320 319 321 319 318 318 319 320 319
305 304 306 306 308 309 316 320 320 315 314 312 309 311 312 311 312 311 314 318 322 323 327 320 318 318 318 318 319 318 317 319 321 321 320 321 321 321 320 319 318 318 318 320 319 319 321
305 304 304 305 305 308 309 318 320 316 314 313 309 311 312 311 312 311 315 317 322 322 329 322 319 319 318 318 318 318 318 319 320 321 320 322 323 321 319 318 318 318 319 320 320 320 320
305 305 304 305 303 305 306 313 319 318 315 313 309 311 312 312 311 316 317 316 317 319 330 320 318 318 318 319 319 318 318 319 320 321 320 322 321 320 319 319 319 321 321 321 322 322 321
304 305 305 303 303 304 306 308 317 319 315 313 310 311 312 312 320 317 323 319 322 327 326 319 319 319 319 318 318 318 319 319 319 319 321 322 321 320 320 322 322 324 321 322 322 321 323
303 304 304 304 303 304 305 306 312 318 316 313 310 311 311 312 314 320 321 327 327 332 325 318 319 318 319 318 317 319 318 319 320 320 319 321 322 322 323 322 322 322 322 323 323 322 324
303 303 304 305 302 302 305 305 307 316 317 313 310 311 311 315 317 321 325 327 328 327 319 318 318 318 318 319 318 318 318 319 318 319 319 320 322 322 322 323 323 322 323 325 325 324 324
302 302 304 304 303 303 304 305 306 313 317 313 310 311 311 315 317 323 327 328 328 320 320 318 318 318 318 319 318 318 318 318 318 320 320 322 323 322 322 323 323 323 322 325 323 321 321
299 301 302 303 302 304 304 303 306 312 317 312 310 312 315 315 317 322 329 330 325 319 319 318 318 319 318 319 319 318 319 317 318 319 321 322 322 321 321 322 321 322 322 323 324 328 325
298 300 301 302 302 303 303 304 306 311 316 310 312 314 315 317 318 322 329 325 323 320 320 318 318 319 320 320 318 319 320 320 321 322 323 322 322 321 321 322 322 323 322 322 322 324 322
298 299 300 302 302 303 302 303 306 311 315 310 315 319 316 319 319 325 328 324 322 320 321 319 318 318 320 320 318 320 321 323 322 323 323 321 320 323 321 322 321 324 322 320 322 323 322
298 298 298 301 301 302 305 304 306 310 314 310 318 321 321 322 321 325 326 322 319 320 323 320 320 320 319 320 320 319 320 321 322 322 322 322 322 324 323 322 322 322 323 323 323 321 321
298 298 300 301 301 302 304 306 306 309 312 312 321 323 324 321 327 331 324 321 321 321 323 321 319 320 319 320 321 319 319 322 322 323 322 323 321 323 324 323 321 320 320 321 320 321 320
299 297 300 301 300 301 303 305 307 309 311 314 321 326 325 325 323 325 324 321 321 321 322 321 319 323 322 322 322 322 322 322 321 322 313 317 321 323 325 322 322 323 320 320 320 321 319
297 299 300 300 300 300 302 303 306 310 311 314 322 322 323 327 328 326 323 321 321 322 323 323 323 323 323 324 325 325 324 322 321 317 320 323 323 322 321 321 320 320 319 320 320 319 321
298 300 299 300 300 301 301 302 307 311 310 314 322 322 323 325 324 323 320 321 320 323 323 324 323 322 322 323 324 324 325 323 323 323 324 322 323 323 324 322 320 320 320 318 318 318 317
298 298 299 299 300 302 302 302 306 311 310 315 321 320 323 325 327 323 324 320 320 324 325 323 322 323 324 325 326 325 324 323 323 325 325 324 323 322 319 318 318 323 321 320 318 318 318
299 299 298 299 301 302 301 302 305 311 310 316 320 321 325 328 327 321 320 320 321 324 324 324 324 325 324 322 322 322 321 321 321 321 323 324 323 323 322 318 326 315 315 315 317 317 317
298 299 299 301 302 302 301 299 305 310 309 317 322 322 323 330 322 320 319 320 320 324 325 325 323 323 322 323 324 324 324 324 320 317 317 319 320 322 329 318 316 314 313 314 315 315 315
299 299 300 302 302 301 302 302 304 309 309 312 322 323 324 329 323 318 318 319 324 326 327 322 320 320 320 325 327 326 325 322 324 323 316 316 317 320 319 328 329 319 314 314 315 317 314
299 301 299 301 300 302 302 304 307 309 309 311 324 320 320 321 318 318 319 320 321 323 325 323 322 321 320 329 333 330 327 321 323 324 322 323 324 327 322 327 321 316 314 315 318 319 316
300 300 300 300 303 303 306 307 310 308 310 311 324 323 324 325 323 322 320 320 323 323 329 324 324 323 324 329 334 329 332 323 322 320 322 323 327 325 325 327 326 314 315 317 319 315 315
299 300 303 302 306 306 308 310 308 309 311 312 323 322 325 324 324 322 321 320 322 324 324 323 324 325 325 326 330 331 327 322 327 324 318 322 322 323 321 321 316 315 314 315 315 315 315

GFSGBSN_925_thetae_036.txt.gz
Theta_e
311 315 319 321 323 323 321 319 316 315 314 312 312 311 309 311 312 312 311 311 310 311 311 311 311 309 314 321 320 320 318 315 314 313 317 318 318 316 316 317 318 317 319 320 326 326 326
309 310 313 316 317 322 323 321 318 315 315 313 312 312 309 311 312 312 311 311 311 311 311 311 310 310 317 319 318 321 320 315 314 315 318 318 316 317 317 318 317 319 321 325 325 322 325
309 309 309 312 314 317 322 323 320 317 315 314 312 311 309 311 312 312 311 311 311 311 312 311 309 312 318 317 319 322 320 317 316 317 318 318 317 318 319 321 320 320 319 322 322 323 325
307 307 308 309 312 314 318 321 322 319 316 314 313 311 309 311 312 312 311 311 311 311 311 310 309 315 320 319 318 319 321 321 320 318 317 319 319 319 320 321 320 320 320 321 321 321 324
306 306 306 307 309 312 314 319 321 321 317 315 313 311 309 311 312 312 311 311 311 311 310 310 315 320 324 319 318 318 319 320 320 320 319 319 319 321 321 322 320 319 319 318 320 319 322
306 306 306 305 308 310 312 315 320 322 319 315 314 312 309 311 312 311 311 311 313 310 315 315 317 321 324 321 318 319 319 319 321 321 321 320 320 322 321 321 322 319 320 321 319 318 319
306 305 306 306 307 310 311 313 319 321 321 316 314 312 309 311 312 311 311 315 319 321 319 319 322 320 320 319 319 318 318 319 321 322 322 322 322 322 321 322 321 321 320 319 319 319 319
305 306 306 305 306 306 308 310 313 319 321 317 314 312 310 311 312 312 312 320 322 324 327 323 316 320 319 319 319 318 318 319 321 322 323 324 321 322 322 321 321 320 320 321 319 318 318
305 305 305 305 305 305 306 307 310 316 319 318 315 313 310 312 312 312 315 316 320 320 326 324 319 318 319 319 319 318 318 319 321 322 322 324 322 322 320 319 320 319 319 321 321 319 318
303 305 305 305 305 303 304 306 307 310 319 319 315 312 310 312 311 316 318 317 316 319 327 323 320 319 320 318 319 318 318 318 322 322 322 324 322 322 320 319 319 320 322 322 321 321 320
301 303 304 304 305 304 304 304 305 308 317 319 315 312 310 312 317 319 324 319 325 328 333 321 320 319 319 319 319 318 318 319 320 320 321 325 324 323 318 321 322 322 322 323 320 321 324
302 301 303 303 304 305 304 303 304 306 312 318 315 312 310 312 313 319 323 328 326 333 328 319 319 319 319 319 318 319 318 319 320 320 319 322 322 323 323 322 322 323 322 322 323 323 329
300 301 302 302 304 305 303 302 303 305 307 316 316 312 310 315 317 315 318 329 330 327 319 320 319 319 319 319 318 318 319 318 319 321 320 319 320 323 322 323 321 320 321 328 332 333 330
298 300 301 303 304 305 303 302 303 305 307 314 316 312 310 313 317 321 327 331 328 320 322 318 318 319 318 319 318 318 318 318 317 318 319 319 326 322 322 321 325 325 319 329 332 332 330
297 298 301 302 303 304 304 303 302 304 306 312 314 311 313 314 315 320 329 334 325 323 320 320 318 319 318 318 318 318 318 318 318 318 320 326 325 322 322 321 321 321 321 322 326 330 335
297 299 300 300 302 304 304 302 303 304 306 310 312 313 313 314 315 321 329 329 324 321 321 319 318 319 319 318 318 319 318 318 317 318 324 326 328 324 322 321 321 321 321 325 323 326 325
297 299 299 299 300 302 304 301 303 304 306 310 314 315 315 315 318 324 330 327 325 322 321 321 319 318 319 319 319 319 319 319 320 321 321 324 326 324 322 321 318 323 321 320 319 326 331
298 297 298 298 298 300 302 303 303 305 307 311 314 316 318 319 322 319 327 324 321 323 320 321 320 319 319 321 320 318 319 321 321 321 321 321 322 327 323 322 321 321 323 322 334 323 326
297 297 297 297 299 298 301 303 302 304 307 311 315 319 320 320 321 323 324 324 322 322 322 322 321 320 320 320 320 320 320 324 324 323 323 324 323 326 322 323 322 321 320 319 322 325 326
297 297 296 297 298 299 301 302 303 305 307 312 316 322 324 324 318 322 326 324 322 322 320 321 321 320 321 320 321 321 320 323 322 323 315 323 322 320 326 322 322 324 322 319 320 331 324
296 296 297 298 298 298 301 301 304 305 306 311 318 320 323 324 326 323 326 323 322 322 321 321 321 319 323 322 321 323 321 324 322 317 320 323 320 320 319 321 321 322 321 320 319 321 323
296 297 298 298 298 298 300 302 304 305 306 310 318 322 323 322 323 324 325 326 322 321 321 323 322 321 323 323 323 323 323 325 323 323 323 323 325 323 325 323 322 321 320 320 320 318 318
298 297 298 298 298 301 301 302 304 305 307 309 313 320 322 323 324 325 327 326 324 323 323 322 322 323 323 324 326 326 326 326 324 326 326 326 328 328 327 320 319 321 321 320 320 319 319
299 299 299 299 300 301 302 301 301 302 306 310 313 321 323 326 324 325 326 324 322 323 326 323 324 325 326 324 324 324 323 324 325 325 325 327 328 330 331 319 325 316 316 315 316 316 316
299 298 300 300 300 300 301 302 302 302 305 310 315 322 324 325 324 324 326 325 322 322 325 325 326 326 326 326 327 326 327 322 322 320 321 323 326 328 330 324 318 316 315 315 315 315 315
298 298 298 298 299 300 302 302 302 301 303 308 312 317 323 326 327 323 322 324 324 329 328 324 324 325 326 330 334 329 331 323 323 321 317 317 323 329 325 331 328 321 315 315 315 320 316
298 298 298 299 299 302 302 302 301 302 304 307 311 313 324 325 324 323 322 324 326 328 328 326 323 323 324 337 329 337 331 322 328 327 323 325 327 326 325 329 325 317 315 315 321 323 317
298 298 299 299 300 301 302 300 301 303 304 308 311 312 320 326 324 324 322 322 325 327 330 327 326 325 332 332 337 335 332 329 326 321 324 325 330 325 330 324 325 315 316 318 321 318 317
298 298 300 300 301 302 301 301 302 303 303 307 310 312 314 325 327 324 323 323 324 325 329 326 328 326 327 330 333 336 326 323 330 329 320 326 325 329 325 326 319 315 315 316 316 316 316

GFSGBSN_925_thetae_039.txt.gz
Theta_e
310 311 311 314 319 320 322 323 321 319 317 315 314 312 312 309 309 311 312 311 311 310 311 311 310 309 311 318 321 315 319 316 316 314 313 315 317 317 314 313 313 314 315 325 328 328 326
307 308 308 310 316 317 318 321 322 322 319 316 314 312 311 310 309 311 312 311 311 310 311 310 310 309 315 321 315 321 319 313 314 313 316 316 316 315 314 315 316 315 316 323 324 327 327
308 307 307 308 309 314 315 316 321 322 321 318 315 313 311 310 309 311 312 311 311 310 311 311 310 311 316 316 315 317 319 315 314 313 314 317 317 317 317 318 319 319 318 323 322 325 325
307 307 306 306 308 309 313 315 319 320 321 320 316 314 313 310 309 311 312 311 311 310 311 310 310 313 319 314 318 319 318 318 316 316 317 317 319 318 318 317 319 318 317 319 319 325 325
307 306 306 306 305 306 309 313 315 318 320 321 318 315 313 310 309 311 312 311 311 311 310 310 313 315 324 322 320 318 318 319 320 319 319 318 319 319 318 318 318 317 317 318 319 323 324
307 308 306 306 306 304 307 310 313 315 319 320 320 315 314 311 309 311 312 311 311 310 315 313 314 317 319 321 320 318 318 318 320 320 320 319 317 319 317 317 319 319 318 316 319 321 323
306 307 307 306 306 306 305 310 311 313 318 320 321 316 314 311 309 312 311 316 315 317 315 320 319 318 318 319 319 318 318 317 319 320 321 323 319 321 321 319 320 321 320 318 318 316 322
305 306 307 307 306 305 306 307 310 311 314 319 321 317 314 311 310 312 311 316 320 318 324 321 320 319 317 319 319 318 318 317 319 323 323 323 323 322 321 320 321 322 321 319 319 317 319
304 304 305 306 307 306 304 306 306 308 312 317 319 317 314 310 311 311 312 313 311 315 324 324 323 322 317 318 319 318 315 317 320 323 323 322 323 322 322 321 321 321 321 320 320 317 316
304 303 303 305 305 305 306 304 305 306 308 313 319 317 314 310 311 313 316 314 311 313 326 324 324 320 317 318 319 318 317 316 321 321 322 323 323 324 323 322 319 320 320 322 322 319 317
302 304 303 303 304 305 305 305 303 306 306 310 317 318 314 309 313 316 319 324 317 320 330 323 320 318 318 319 318 318 318 316 321 322 322 324 323 323 323 323 321 321 321 321 322 320 321
301 302 303 303 302 304 305 305 304 304 305 307 316 318 313 310 311 314 320 322 327 332 332 323 320 318 318 318 318 317 317 318 318 319 321 322 321 322 322 321 321 321 322 322 323 322 324
300 300 301 304 302 302 304 304 304 304 304 306 313 317 313 311 315 319 319 321 330 331 320 320 319 319 318 319 318 317 317 317 316 320 321 321 321 321 322 321 321 321 320 325 325 327 327
300 298 300 301 303 302 302 304 304 303 302 305 309 316 314 311 312 316 321 327 331 322 322 320 319 319 319 318 318 317 317 316 315 316 319 320 325 323 322 322 323 321 322 326 329 330 327
299 299 298 299 299 303 301 302 304 303 302 305 308 313 312 313 309 313 324 330 324 324 318 320 318 319 318 318 318 317 316 315 315 314 316 324 326 323 323 322 320 322 322 322 327 325 324
299 298 298 299 299 299 302 301 303 303 303 306 311 312 313 313 311 315 325 325 326 322 322 321 320 318 318 317 318 317 317 316 318 316 320 325 324 323 323 322 320 320 319 322 321 323 324
298 298 297 297 298 298 302 303 303 303 302 306 312 315 314 313 316 319 323 323 324 322 321 322 319 319 319 318 317 317 318 317 317 322 322 323 324 326 324 324 320 321 320 319 319 323 323
297 297 297 296 297 298 301 302 305 303 303 308 313 316 314 315 317 317 321 321 321 322 323 324 320 321 319 319 320 317 319 324 318 320 321 323 323 326 324 322 319 320 323 323 319 320 320
296 296 296 296 297 299 301 303 305 303 303 309 314 316 315 316 315 317 316 320 322 324 322 323 321 321 321 319 323 320 324 324 323 322 321 323 321 320 319 321 322 321 320 319 322 319 321
296 296 296 297 296 300 299 300 304 303 303 309 314 317 319 318 311 316 316 318 322 323 323 322 321 321 321 321 320 321 323 323 322 320 315 322 322 320 318 319 321 322 322 319 319 317 318
295 295 294 294 298 299 299 298 300 303 304 309 314 316 319 322 319 316 316 317 324 325 323 321 321 321 320 321 320 321 324 322 323 317 320 320 319 318 318 320 321 321 321 320 318 319 318
295 295 294 294 298 297 298 298 299 302 303 308 315 316 319 322 320 320 317 320 322 323 323 322 322 320 319 322 322 321 324 323 323 321 321 320 321 321 322 322 319 319 320 318 317 319 318
295 295 296 295 297 297 298 299 298 302 303 307 307 311 318 319 320 320 318 321 323 322 322 321 320 321 322 324 324 322 322 322 322 322 320 322 322 318 322 315 315 313 315 317 318 318 317
295 296 296 296 296 297 298 298 298 302 303 307 307 312 319 320 322 320 318 318 324 322 323 321 320 321 323 320 320 320 319 321 325 325 322 323 322 315 315 313 310 315 314 314 314 313 312
297 297 297 297 297 298 298 299 299 301 302 306 308 311 320 312 320 319 317 321 322 323 322 324 325 322 321 323 322 321 317 313 319 320 319 323 317 318 313 315 316 315 314 315 314 314 313
298 298 298 298 297 298 299 298 300 303 304 307 306 308 316 321 321 319 316 321 323 324 325 325 323 321 324 325 316 322 321 321 321 318 318 318 318 310 315 316 311 315 313 314 313 316 315
297 299 298 300 299 299 300 301 302 303 303 303 305 305 312 322 321 319 317 320 322 324 323 325 324 322 323 311 318 315 316 321 321 319 316 313 313 311 309 310 314 317 314 314 312 314 315
299 298 300 300 299 300 301 301 302 302 301 301 303 304 313 318 320 321 319 322 324 322 322 323 325 320 320 318 317 315 314 316 319 323 318 316 316 311 316 316 317 313 314 314 316 314 313
297 298 298 298 299 300 300 302 302 301 301 301 304 305 308 313 319 322 323 324 323 321 323 322 325 322 323 322 319 314 321 312 317 316 320 319 320 317 317 316 316 312 313 314 313 314 314

GFSGBSN_925_thetae_042.txt.gz
Theta_e
309 310 311 312 313 316 319 320 321 322 321 319 316 314 313 310 310 308 310 311 311 311 310 310 310 309 311 317 318 315 318 316 315 314 312 312 315 316 316 313 312 312 313 321 326 326 324
309 307 306 308 308 310 317 318 319 321 321 321 318 315 313 311 310 308 310 311 311 311 310 311 310 309 315 316 314 317 317 314 314 314 312 312 315 315 314 314 316 317 318 324 325 325 325
309 309 307 305 305 308 310 316 316 318 320 321 320 317 314 313 311 308 310 311 311 311 310 311 310 310 314 309 315 314 313 314 314 311 312 315 316 315 316 317 317 318 323 324 325 325 322
308 308 307 307 306 305 308 311 315 315 319 319 320 319 315 313 312 309 310 311 311 311 310 310 310 312 315 309 318 319 318 316 315 314 314 316 316 317 317 316 316 317 320 323 323 323 323
308 308 308 307 307 305 305 306 310 314 315 319 319 321 317 314 312 309 310 311 311 310 311 311 312 314 319 319 320 318 318 317 318 316 314 315 317 317 316 317 316 315 316 318 324 322 322
306 307 308 308 307 306 305 303 307 311 313 316 318 320 319 314 313 309 310 312 312 314 313 312 312 314 316 319 320 319 317 318 318 317 318 317 314 316 316 316 320 318 318 317 317 322 322
306 306 307 307 308 307 306 305 304 310 311 313 318 319 320 315 313 309 311 312 316 318 313 316 313 313 315 318 318 319 318 317 318 318 319 321 319 319 320 318 317 320 320 321 317 318 322
304 305 305 306 307 307 306 306 306 309 311 312 317 319 320 315 313 309 311 312 316 314 318 318 318 318 319 319 317 317 317 316 319 320 322 322 322 320 321 321 320 321 322 320 317 316 321
303 304 304 305 305 307 307 306 306 306 308 309 315 318 319 315 312 309 311 312 313 312 320 323 322 322 322 320 317 317 315 317 320 321 321 320 321 321 322 321 320 320 321 319 319 317 314
303 303 303 304 304 305 306 306 305 304 306 307 311 317 318 314 309 313 314 318 319 312 323 324 322 323 317 314 317 317 316 319 319 321 321 320 321 323 322 322 321 319 318 320 320 319 318
303 302 303 303 303 304 305 305 306 305 303 306 308 316 318 314 312 313 318 317 316 319 320 320 324 320 315 317 317 317 317 316 319 320 320 320 321 321 322 321 321 320 320 320 320 321 318
302 303 301 302 304 303 303 305 305 305 304 305 307 313 317 313 311 309 312 317 321 328 325 325 320 317 316 316 318 316 316 315 317 320 320 319 320 320 320 321 320 320 321 320 322 320 321
300 303 302 300 302 304 303 303 304 305 304 303 306 310 315 314 311 315 319 320 325 327 321 322 319 317 317 317 317 316 316 315 315 319 321 320 320 321 321 321 320 320 319 321 321 323 322
298 300 303 301 300 302 303 302 302 304 304 304 305 308 314 314 313 313 319 326 327 322 323 320 318 317 317 317 317 317 315 314 314 316 318 320 322 321 320 321 323 321 319 321 323 324 324
297 299 302 302 300 300 301 303 301 303 304 304 304 309 312 316 314 311 321 327 321 324 318 318 317 318 318 317 317 316 315 314 314 313 315 321 324 322 322 322 321 321 321 319 324 321 320
298 300 303 302 300 298 299 302 302 302 304 304 307 311 312 315 314 312 322 322 322 322 321 320 319 318 318 317 316 315 315 314 315 314 315 320 323 320 322 320 319 320 317 321 320 323 326
298 299 301 301 300 298 297 298 303 301 304 303 307 312 313 313 311 314 320 319 321 320 322 323 322 318 317 317 315 315 316 316 315 317 318 320 318 319 322 321 320 319 318 318 318 318 321
298 299 300 300 299 299 297 298 299 301 302 303 309 314 313 313 315 313 318 318 317 320 321 323 323 321 317 317 317 316 317 316 318 320 320 320 321 320 322 320 320 318 320 319 316 318 318
298 299 300 300 299 298 298 297 298 302 301 304 310 313 313 314 316 312 315 318 317 319 322 322 322 321 319 317 319 319 320 322 321 318 319 320 320 321 319 319 321 320 318 320 321 316 318
298 298 299 300 299 298 297 296 297 301 303 304 310 314 316 315 312 311 313 317 319 317 318 320 323 322 320 319 319 320 323 322 321 319 317 318 318 319 318 317 318 321 321 321 317 316 317
298 299 299 298 297 297 297 296 297 300 304 304 310 312 312 316 316 312 312 315 318 318 320 321 322 322 323 319 318 322 323 321 321 315 319 317 319 317 316 318 320 320 320 320 318 317 316
299 299 298 297 297 297 298 297 299 300 304 304 310 313 313 315 315 314 313 314 315 315 317 319 322 322 320 319 317 320 322 320 319 320 318 318 317 318 319 318 317 318 317 316 317 317 317
299 298 298 297 296 297 297 298 299 301 304 303 306 308 314 314 316 316 316 314 314 313 317 317 320 321 320 319 319 317 319 319 319 318 319 319 319 315 319 313 314 314 314 315 316 317 317
299 298 297 296 296 295 296 298 299 300 302 305 306 308 315 316 318 318 316 314 314 315 314 320 319 321 320 318 317 316 316 321 322 321 319 318 318 311 313 310 313 316 313 314 312 311 310
298 297 296 296 295 295 296 298 299 298 299 303 306 308 314 312 317 320 318 316 314 315 320 317 321 319 319 320 319 319 316 316 319 317 319 320 314 315 312 313 314 315 312 311 313 314 312
297 296 296 296 295 295 297 298 298 298 299 302 303 307 310 316 316 317 319 316 315 318 318 321 322 319 322 319 314 319 319 319 320 317 315 315 314 314 312 312 311 313 312 312 312 314 313
296 296 296 296 298 295 297 298 298 298 298 301 303 304 306 316 317 317 318 317 315 318 320 324 322 323 318 310 315 314 317 318 318 316 312 311 311 310 305 308 309 311 312 312 311 310 312
296 296 297 298 298 297 297 297 298 299 299 302 303 304 305 311 315 317 315 313 315 319 320 320 321 319 317 316 316 313 309 315 316 317 315 314 313 308 311 309 313 313 313 313 311 312 311
297 297 297 297 297 297 298 298 297 299 300 301 303 304 306 307 314 311 312 314 317 317 319 318 320 320 321 320 314 312 314 307 313 318 317 316 313 313 314 313 313 312 313 311 312 313 313

GFSGBSN_925_thetae_045.txt.gz
Theta_e
310 310 310 311 313 314 316 318 320 320 320 322 320 318 316 314 312 310 309 309 311 311 311 310 309 308 311 314 311 314 319 316 313 313 311 311 314 315 315 313 311 310 311 320 324 324 324
310 310 309 307 307 309 309 312 317 318 319 320 321 320 318 315 313 311 309 308 311 311 311 310 309 308 313 311 312 318 315 315 314 313 311 311 314 314 315 313 315 316 321 325 324 324 324
308 309 308 309 308 305 305 308 312 316 316 318 319 320 320 317 314 312 310 308 310 311 311 310 310 309 312 308 316 315 314 313 314 314 311 313 314 315 315 315 316 317 324 324 324 323 320
307 307 308 308 308 307 306 305 309 314 314 316 318 319 320 320 315 313 311 308 310 311 311 310 309 312 314 309 311 316 318 317 316 314 311 313 315 314 316 315 316 316 321 327 325 323 322
306 307 307 308 308 308 307 306 305 308 313 314 317 318 319 320 316 313 311 308 310 311 312 311 312 314 317 313 316 318 319 317 317 316 313 314 316 315 315 317 315 313 320 319 325 322 321
306 306 306 307 307 308 308 307 305 304 308 312 313 318 319 320 318 314 311 309 311 313 312 312 312 310 311 316 318 318 318 318 317 315 317 317 313 315 314 315 319 318 317 317 323 321 322
305 305 306 306 306 307 307 307 306 304 305 310 312 315 318 320 318 314 310 310 312 316 313 314 310 308 311 317 318 317 318 315 318 317 317 320 318 319 318 317 316 318 319 319 317 316 322
304 304 305 305 306 306 306 307 307 306 305 310 311 314 318 319 317 314 310 310 311 312 314 315 316 315 316 318 319 316 316 315 318 319 321 319 320 319 319 320 319 320 320 319 318 316 321
304 305 303 304 305 305 305 306 307 306 306 308 310 313 317 319 316 312 310 311 315 315 312 318 319 319 320 319 320 317 314 316 318 320 320 319 318 320 321 320 320 319 320 320 320 316 318
302 303 305 303 303 304 305 305 307 306 306 306 307 310 317 318 313 310 314 316 315 316 319 320 324 322 320 317 315 315 315 317 318 318 319 319 318 322 321 321 320 320 318 318 319 319 319
299 301 303 305 302 303 303 304 305 306 306 305 306 308 315 317 310 312 316 313 315 316 310 313 322 319 315 314 316 315 315 316 318 319 319 318 320 321 321 320 320 320 318 319 319 319 318
299 300 301 304 304 302 302 303 304 305 306 305 304 307 312 314 314 313 310 315 318 320 315 320 321 319 314 315 316 315 315 314 316 320 318 316 319 319 318 319 319 319 320 318 319 318 320
300 300 300 301 303 304 301 302 303 304 305 305 304 306 309 314 312 314 315 319 326 322 315 321 320 316 314 315 316 316 315 314 317 319 320 319 319 320 321 320 319 318 318 320 320 320 320
301 300 299 299 301 304 302 301 302 302 304 304 304 304 308 313 314 313 317 325 325 320 320 321 318 315 315 315 316 315 314 314 313 315 317 319 319 319 320 320 321 321 318 319 321 321 319
302 301 300 299 301 303 303 301 303 302 303 304 304 304 308 311 313 312 320 326 319 320 320 315 317 316 316 316 316 315 314 313 312 313 316 318 319 321 321 320 319 320 320 317 321 319 319
303 302 300 299 300 301 303 301 300 303 301 304 305 306 308 311 314 311 318 322 321 319 322 322 318 317 317 316 316 315 314 313 314 312 313 317 320 320 320 320 319 319 317 319 318 321 323
303 302 301 300 299 301 301 301 300 303 301 303 304 307 308 311 313 311 316 318 319 318 319 323 323 321 317 316 315 314 315 314 313 314 313 318 316 317 320 320 319 318 318 317 317 316 319
304 302 301 300 299 299 301 301 299 300 302 303 303 308 310 311 316 314 312 316 316 318 319 321 322 323 321 316 315 315 315 315 312 316 316 318 316 317 319 319 319 318 318 316 316 317 316
304 303 301 300 299 300 301 301 299 299 302 304 304 308 311 311 317 315 313 313 316 317 318 319 322 321 319 316 316 315 315 317 320 316 318 318 317 318 318 317 318 320 318 319 317 313 317
305 303 301 300 299 300 301 300 297 298 301 304 306 309 312 312 312 313 314 315 317 316 316 317 320 322 321 319 317 317 320 320 319 318 317 316 317 317 318 317 318 321 319 317 317 315 317
304 303 301 300 299 301 300 299 298 297 299 304 305 308 311 316 314 314 312 313 316 318 316 316 316 320 322 322 318 320 321 321 319 315 318 317 318 316 315 315 317 318 319 318 317 315 316
304 302 301 300 300 301 300 299 297 298 298 303 305 311 310 312 313 313 313 312 314 316 317 317 317 320 317 321 319 319 320 319 320 318 318 315 316 316 318 316 315 318 317 316 316 316 315
304 302 300 299 300 300 300 298 297 298 298 303 302 306 310 312 312 313 312 312 313 314 315 315 317 320 320 320 317 315 317 317 317 317 316 316 316 313 315 313 313 314 313 315 315 315 315
303 301 300 299 300 300 299 298 297 298 298 302 303 307 312 311 313 312 312 312 312 313 313 314 313 314 318 316 316 315 316 318 318 318 316 315 314 309 312 310 314 314 313 313 313 311 309
302 300 299 299 300 299 298 298 298 298 299 298 303 306 311 308 312 314 312 312 312 312 313 312 314 312 315 319 318 319 314 318 316 316 319 316 311 312 313 313 313 315 311 311 312 313 311
300 299 300 300 299 298 298 298 297 298 299 298 303 304 308 312 314 314 314 313 313 313 312 312 313 316 318 317 312 319 322 320 319 317 314 311 311 314 309 313 314 314 312 310 310 312 311
299 299 299 298 298 298 297 296 297 298 299 299 301 305 307 309 312 314 316 315 313 312 313 314 318 321 317 312 313 315 316 318 318 317 312 311 310 314 305 309 311 309 311 310 311 310 310
299 299 298 298 297 295 295 297 299 299 299 299 300 303 305 307 309 312 312 314 314 313 314 316 320 319 312 316 316 314 311 315 314 315 313 316 314 308 306 305 315 310 311 310 309 310 310
298 298 297 297 295 296 297 298 298 298 298 298 301 302 304 305 309 306 307 307 309 312 313 315 318 319 318 318 314 313 312 306 313 316 315 315 314 314 313 312 310 312 311 310 309 311 311

GFSGBSN_925_thetae_048.txt.gz
Theta_e
309 310 310 309 309 310 311 312 315 316 319 320 320 320 321 318 316 313 312 310 308 309 311 311 310 309 309 310 307 311 316 315 312 313 310 311 313 314 315 313 311 310 310 317 320 322 323
308 308 309 309 309 308 306 307 308 310 315 318 318 319 319 320 318 315 313 311 308 309 311 311 310 308 311 308 309 317 314 314 313 312 311 311 313 313 315 314 314 318 322 323 323 324 323
307 308 307 308 308 309 308 307 305 306 309 316 316 317 319 319 320 317 314 312 309 308 311 311 310 309 312 306 313 317 314 314 314 313 310 311 313 314 314 315 315 316 325 324 324 322 322
306 307 307 307 307 308 308 308 307 305 307 313 314 315 317 318 319 319 315 313 309 308 310 311 310 311 312 309 310 311 313 317 317 314 313 311 314 313 314 314 314 317 320 325 325 323 319
305 306 306 306 306 307 308 308 308 307 305 307 312 314 316 317 318 320 316 313 309 309 311 311 310 314 312 311 312 313 315 317 316 315 313 313 314 314 314 316 315 312 317 320 325 321 321
307 305 305 306 306 306 307 307 308 307 306 304 307 313 313 317 318 319 316 313 309 313 312 311 311 311 307 314 316 318 317 318 316 314 314 316 312 314 313 314 318 318 317 315 323 321 322
305 307 306 304 305 306 306 306 307 307 307 304 304 310 312 315 317 318 315 309 309 314 313 315 312 306 307 316 319 315 316 315 317 316 317 318 317 317 317 316 316 316 317 317 316 316 322
301 304 305 307 304 305 306 305 306 307 307 306 304 310 311 315 317 317 314 309 310 312 315 312 314 312 313 316 320 317 315 315 316 317 320 318 319 317 317 319 319 318 318 317 317 316 319
300 299 302 304 307 304 304 305 305 306 306 306 305 309 310 315 318 316 313 309 313 314 313 313 315 316 317 318 319 318 312 314 317 318 319 318 317 318 320 319 319 318 319 319 319 316 317
301 301 298 302 303 306 304 304 305 305 306 306 306 306 309 315 315 314 310 313 315 314 315 316 320 319 319 318 318 317 313 316 317 317 318 318 317 320 320 320 318 320 317 318 318 318 318
302 301 300 300 302 303 306 303 304 304 305 306 306 306 307 313 310 312 314 310 314 314 310 311 322 318 318 315 314 314 314 316 317 318 317 317 319 320 320 319 318 318 318 318 318 316 317
303 302 301 301 300 301 303 304 303 304 304 306 305 305 306 309 313 314 313 313 316 319 313 313 320 318 315 313 315 313 314 314 315 319 318 316 317 317 317 318 318 318 318 316 316 316 319
303 303 302 302 301 301 302 305 303 303 303 305 305 305 304 311 313 315 315 316 326 320 312 318 321 316 313 313 315 314 313 315 316 317 318 318 318 319 320 320 318 317 317 319 318 320 321
303 303 303 302 301 300 302 303 304 302 303 303 304 305 304 308 313 312 313 322 324 319 317 318 317 314 313 314 314 315 313 313 312 314 315 318 317 318 318 318 318 319 317 319 321 320 318
303 303 303 303 302 301 301 302 304 302 302 302 304 304 304 305 309 312 316 323 321 318 318 316 316 316 314 314 314 314 312 312 311 313 315 318 318 319 319 319 317 319 319 316 319 317 318
303 303 303 303 302 301 301 301 301 303 301 302 305 304 304 305 309 311 315 319 319 316 320 322 316 316 315 314 315 314 313 312 313 311 312 315 317 319 319 319 318 318 315 318 316 321 322
303 303 303 303 303 302 301 300 301 303 302 302 304 305 303 306 311 314 317 316 317 317 318 320 323 323 316 315 314 314 314 314 312 311 312 315 314 315 319 319 319 318 317 315 315 314 318
303 303 303 304 303 302 301 300 302 303 302 302 304 304 306 308 313 314 315 313 314 318 317 318 321 322 322 315 315 314 315 314 311 313 314 315 313 313 316 317 317 315 317 315 317 317 315
304 303 303 304 304 302 301 301 301 303 301 302 304 304 309 309 311 312 313 314 313 317 316 318 320 320 320 317 316 315 314 313 313 313 315 316 314 314 314 315 317 319 317 316 314 312 316
303 303 303 304 304 302 301 300 301 302 301 302 304 304 310 309 308 310 313 315 312 314 315 316 318 320 321 319 315 315 315 317 318 314 316 315 315 314 315 314 315 319 317 317 316 315 316
303 303 303 304 304 302 301 300 301 301 302 302 304 303 308 310 309 310 311 313 313 313 315 315 316 319 320 320 318 317 319 320 318 317 316 315 316 315 314 314 316 317 318 315 316 315 317
303 302 303 304 304 302 300 300 301 301 301 302 304 305 308 310 307 309 312 312 313 312 315 315 316 316 318 321 319 318 320 319 318 315 316 313 316 313 317 315 315 318 316 316 315 315 314
303 303 304 304 303 302 301 300 301 301 300 302 302 303 307 310 309 308 309 311 312 312 312 315 314 315 317 317 316 316 316 316 316 317 315 314 314 312 316 312 314 313 314 314 314 313 314
303 303 303 304 303 301 301 301 301 299 300 301 301 303 307 308 311 310 308 311 311 312 313 313 314 314 314 315 315 316 315 316 315 318 314 313 312 309 311 310 313 314 312 312 313 312 310
304 303 301 303 302 301 300 301 300 299 300 300 302 303 308 306 310 311 310 309 310 310 312 312 313 313 311 315 318 320 315 318 316 315 316 313 310 311 313 313 313 314 311 311 311 310 309
302 302 304 302 301 301 301 300 299 300 300 299 302 303 305 310 309 310 311 310 310 311 310 311 311 310 315 315 314 320 321 320 319 317 312 311 309 312 307 312 313 312 312 308 309 311 309
300 304 303 302 301 301 301 300 299 300 300 298 299 300 304 308 311 310 312 311 309 309 310 309 312 317 313 306 310 317 319 317 317 318 315 312 309 310 303 309 312 311 310 308 312 311 308
303 302 302 301 300 300 300 299 299 299 300 298 298 299 302 306 308 310 308 310 310 310 309 309 311 313 311 314 316 315 309 314 315 315 316 318 314 309 306 307 319 308 309 311 309 309 308
301 300 299 300 300 300 300 299 299 299 299 298 298 297 299 305 308 305 305 305 307 310 310 310 312 314 314 317 311 307 309 303 313 317 312 317 315 315 314 315 311 308 309 309 307 308 308

GFSGBSN_925_thetae_051.txt.gz
Theta_e
308 308 308 309 309 309 309 309 309 311 313 315 317 318 318 318 319 320 317 314 312 310 308 310 311 309 308 308 308 308 315 315 311 312 310 311 313 314 316 315 313 312 312 315 318 323 325
307 307 307 307 308 308 309 309 308 306 304 306 311 317 317 317 318 318 320 317 313 312 308 309 311 309 310 308 307 316 313 312 313 312 310 310 314 314 316 316 315 315 324 324 324 324 324
307 307 307 307 307 307 308 308 308 308 307 304 308 314 315 315 318 318 318 319 315 313 310 309 311 309 311 308 311 315 313 313 313 312 311 310 312 315 315 317 315 317 325 326 326 324 323
309 306 306 306 306 307 307 307 308 308 307 306 305 310 313 313 316 317 317 319 317 314 310 309 311 311 312 308 310 312 315 314 316 315 311 311 313 314 315 315 316 320 321 326 325 324 320
305 307 308 306 306 306 306 306 307 307 307 307 305 304 309 312 315 316 317 318 318 313 311 311 310 313 311 308 309 311 311 315 314 314 313 311 313 315 316 318 318 316 320 322 326 324 321
303 303 305 308 306 305 305 305 306 306 307 307 307 303 305 311 313 316 316 318 316 310 312 311 311 312 310 311 315 317 317 316 315 313 314 316 315 318 317 318 320 320 319 318 322 323 323
302 302 302 304 307 307 305 305 305 305 306 306 306 305 305 311 313 315 315 317 309 313 313 317 315 311 306 313 318 316 315 315 316 317 319 319 321 321 320 318 317 317 319 318 317 320 320
302 301 301 301 304 306 307 305 305 305 305 306 306 306 307 310 313 317 316 311 309 312 316 314 314 313 312 314 318 317 314 317 317 318 319 321 323 319 317 318 319 319 320 320 318 317 319
303 303 302 301 300 302 305 307 304 305 305 305 306 306 306 309 313 315 315 314 311 313 317 315 314 315 315 315 317 318 313 315 316 318 320 321 319 317 320 320 320 319 320 319 319 318 317
303 303 303 302 302 301 302 305 306 304 305 305 305 305 306 308 312 314 313 312 313 313 316 315 316 317 318 318 319 317 312 317 318 318 319 320 317 319 321 321 319 321 318 318 319 320 321
301 302 303 303 302 301 300 302 304 305 304 304 305 305 305 308 310 310 312 314 313 313 317 313 321 316 318 317 315 316 312 315 319 318 319 320 319 320 321 321 319 321 317 319 319 320 320
302 302 302 303 303 302 301 301 302 305 303 304 304 305 305 307 309 312 313 315 315 322 319 311 319 320 320 315 314 312 314 315 315 319 317 317 316 318 320 318 318 318 319 317 318 320 323
303 303 302 302 303 303 302 301 301 301 305 303 304 305 305 306 311 312 314 315 323 323 314 314 321 317 316 315 314 314 315 318 319 321 321 318 319 318 318 320 318 318 319 323 324 324 325
303 303 303 303 303 303 302 302 301 301 302 303 303 305 305 304 309 312 313 319 323 318 316 316 316 316 316 314 314 314 315 317 313 314 316 318 318 319 319 320 321 320 320 325 323 324 321
304 303 303 303 303 303 303 302 301 300 302 303 303 304 305 305 308 312 315 320 318 318 317 317 315 316 315 313 315 315 315 317 315 316 318 319 318 316 318 319 319 320 322 318 321 319 325
303 303 304 303 303 303 303 303 302 301 302 303 303 304 304 304 304 310 316 318 319 316 319 321 318 316 317 314 315 316 314 313 314 315 316 319 319 319 319 319 318 319 318 322 320 324 324
302 303 303 304 303 303 303 303 302 302 301 303 303 305 303 303 306 312 315 314 316 315 318 319 323 323 317 315 315 315 315 313 313 312 313 316 318 316 319 321 321 320 320 317 318 319 322
301 301 302 303 304 303 303 303 302 302 301 303 302 303 302 303 309 310 312 313 313 315 316 318 320 322 323 316 315 316 316 316 311 313 316 317 319 319 320 316 316 318 321 320 325 321 319
300 301 301 302 304 303 303 303 302 302 301 303 302 304 303 305 309 310 311 312 313 315 316 318 320 320 320 320 316 315 315 313 312 314 318 317 316 318 317 317 318 320 318 317 316 317 320
301 301 301 301 303 304 304 303 302 302 301 302 303 304 306 305 307 307 311 312 313 312 314 316 318 319 320 320 317 315 316 315 314 314 315 316 316 319 319 318 318 321 319 318 320 323 322
300 301 301 301 302 304 304 303 302 301 302 301 303 304 307 307 306 306 309 310 312 313 313 315 317 317 320 319 319 316 318 319 317 317 316 318 319 316 314 313 316 319 319 319 319 320 323
301 301 301 301 302 304 304 303 302 301 302 301 303 304 305 308 305 306 308 311 311 312 312 314 317 317 318 320 320 319 319 319 320 316 318 315 319 316 317 315 315 318 317 317 318 316 316
301 301 302 302 302 302 304 303 301 302 302 302 302 302 304 308 307 306 308 309 311 312 311 312 314 316 317 318 316 317 316 317 318 319 317 316 317 317 319 314 315 319 317 318 317 316 319
302 302 302 302 303 303 304 302 301 301 302 301 302 302 306 307 308 306 305 308 311 312 312 312 313 313 313 314 316 316 315 315 316 317 317 316 316 315 318 313 322 318 313 314 317 315 314
303 301 302 303 302 303 303 302 301 302 300 301 301 302 306 305 308 308 307 306 310 311 311 311 313 313 311 313 317 318 318 318 317 316 316 314 314 316 321 320 317 315 313 315 316 317 313
300 302 302 301 301 304 302 302 302 302 301 301 301 301 305 306 307 308 309 307 309 311 311 311 311 311 313 313 313 317 323 321 321 318 312 310 312 321 313 320 323 319 313 310 311 317 312
302 303 302 300 303 303 302 301 301 302 301 300 301 301 303 307 308 308 311 309 308 310 310 310 311 312 312 310 315 317 319 320 323 320 319 315 314 318 314 321 318 313 311 310 319 320 312
303 303 301 300 303 302 302 301 301 301 301 300 299 302 302 305 306 306 307 309 309 309 310 309 312 312 312 313 315 316 316 319 320 317 318 320 319 318 314 319 322 311 309 316 318 310 311
303 302 302 303 303 302 301 300 301 301 301 299 298 300 301 301 305 305 305 306 306 308 309 310 310 312 313 316 313 313 315 312 318 322 313 321 319 321 320 322 317 310 315 311 310 312 310

GFSGBSN_925_thetae_054.txt.gz
Theta_e
307 308 308 308 308 308 308 309 309 308 307 307 311 314 316 317 317 317 318 318 319 317 313 312 308 310 312 313 312 309 315 316 313 314 313 313 314 317 318 318 319 318 319 322 320 322 324
309 307 307 307 307 307 308 308 308 308 308 308 304 305 310 315 316 315 317 317 317 319 316 313 310 309 313 313 309 311 315 315 314 314 312 313 318 318 319 319 319 319 324 328 325 326 328
307 309 308 307 307 307 307 307 307 307 308 308 307 304 308 313 314 314 315 317 317 318 318 315 311 311 314 314 312 316 313 314 314 313 313 314 315 318 319 319 319 319 325 328 328 328 328
305 305 307 308 307 306 306 306 306 307 307 307 307 307 304 309 311 312 314 316 316 317 318 314 310 312 315 311 311 314 315 316 315 314 313 314 315 318 319 320 320 321 326 322 329 328 325
304 304 305 305 306 308 306 306 306 306 306 307 307 307 306 303 309 312 314 316 316 317 314 311 313 315 315 310 311 311 316 317 317 316 315 313 316 320 320 319 319 321 321 322 325 325 325
304 303 303 303 303 304 307 306 305 305 306 306 306 306 307 303 308 312 314 315 315 314 312 313 313 317 315 313 314 316 314 315 318 318 318 318 321 321 320 319 318 320 320 321 324 324 326
306 305 304 303 302 302 305 307 306 305 305 305 306 306 306 305 309 313 315 316 317 318 316 317 318 317 311 314 317 318 318 317 318 320 321 322 321 321 319 320 320 321 321 320 322 323 322
301 305 305 304 302 302 303 305 306 306 305 305 305 306 306 306 309 313 315 316 317 315 317 315 316 317 316 314 319 319 317 320 320 321 321 323 321 321 321 321 322 322 321 320 321 321 321
300 301 302 303 303 303 303 302 303 305 305 305 305 305 306 305 309 313 315 315 314 313 320 318 318 316 315 316 317 318 317 319 320 320 321 321 322 321 321 322 323 323 322 321 321 321 321
303 302 301 302 303 303 303 302 299 300 305 305 305 305 305 305 308 313 314 314 314 314 320 315 315 316 316 317 319 317 318 318 319 320 320 321 321 321 322 322 322 321 321 321 322 322 322
303 302 303 302 302 302 303 303 302 300 301 306 304 304 305 305 313 315 315 316 315 316 312 314 319 317 318 316 317 318 317 318 319 320 321 321 322 322 323 322 322 321 321 322 322 322 323
303 303 303 303 302 302 302 303 302 301 300 301 305 304 305 305 309 313 313 316 316 322 316 313 320 321 320 318 317 317 317 318 319 319 320 320 320 321 321 321 322 321 322 322 323 323 324
303 303 303 303 303 302 302 302 303 302 300 303 304 304 304 306 309 311 314 319 321 317 313 312 321 320 318 318 317 318 318 320 320 320 320 320 320 320 320 321 322 322 323 325 326 326 326
303 304 304 304 303 303 303 302 302 302 301 300 301 303 304 305 307 313 314 322 315 310 312 316 318 320 319 316 317 318 318 319 319 318 318 321 320 320 321 321 322 323 323 325 326 326 324
304 304 303 304 304 304 303 303 302 303 302 299 302 303 303 305 306 311 317 320 310 312 314 315 316 323 320 315 317 318 318 318 319 319 318 320 318 319 321 321 321 323 323 322 324 325 327
305 304 304 304 303 304 304 303 303 302 302 300 303 303 304 304 306 307 315 316 311 312 316 319 314 320 323 315 317 318 319 318 318 318 318 319 319 321 322 322 321 322 322 324 324 326 325
304 304 304 304 304 304 304 304 303 303 302 301 302 304 304 303 305 307 313 314 311 315 317 320 320 319 319 317 316 318 318 317 318 318 318 319 320 323 323 324 323 323 323 322 323 323 324
300 304 305 304 303 303 304 304 304 303 302 302 302 305 304 304 306 307 312 313 310 313 318 319 321 322 324 318 317 316 318 317 317 318 319 319 320 321 321 320 321 323 323 323 325 325 324
300 299 299 301 301 301 304 304 304 303 303 302 303 304 304 304 307 306 309 310 311 313 317 318 320 321 322 323 319 318 318 318 316 318 319 320 320 321 320 320 321 321 321 321 322 322 322
300 300 300 300 300 300 302 303 304 303 303 302 302 305 305 306 306 306 308 311 310 311 313 317 318 320 321 321 320 320 317 317 317 318 317 319 319 320 321 319 319 321 321 321 322 324 321
300 300 300 300 300 301 301 303 303 303 303 301 303 307 305 306 308 307 308 308 310 311 313 315 318 319 321 321 319 320 318 320 317 317 317 320 320 320 318 317 317 317 318 319 320 321 321
301 301 301 300 300 300 301 302 302 303 303 301 302 306 308 307 307 307 309 310 310 311 311 315 316 318 319 320 319 322 320 320 321 321 319 320 320 321 320 319 318 318 318 318 319 319 321
302 302 302 301 301 301 301 301 301 303 302 302 302 304 307 307 307 307 309 308 309 311 311 311 315 316 318 318 317 317 317 318 318 321 322 322 321 321 321 320 320 322 321 320 320 321 322
302 301 302 302 301 301 301 301 301 303 302 301 302 304 307 308 308 307 306 306 307 309 312 311 312 315 315 315 316 317 317 317 319 320 321 323 323 323 322 320 330 320 319 320 320 321 321
301 301 301 302 301 301 302 302 302 302 301 302 301 304 306 309 307 307 306 306 307 308 311 310 312 312 315 313 313 313 317 317 317 319 322 322 323 324 331 324 321 318 317 319 321 321 320
301 302 302 300 301 301 302 301 303 302 301 302 303 303 306 308 307 306 308 306 308 309 312 311 312 314 315 317 318 317 312 313 318 322 317 318 320 326 321 325 332 321 320 319 318 323 319
301 301 301 301 301 302 302 301 303 302 302 302 302 302 306 306 305 306 309 308 307 309 313 312 314 315 315 319 322 319 316 317 318 322 323 321 321 327 326 328 324 321 318 316 321 323 320
302 302 302 301 302 302 301 303 302 301 301 301 303 304 306 306 306 306 307 309 308 310 313 312 314 315 316 319 319 320 323 320 321 319 323 323 325 327 325 331 330 317 315 320 322 321 320
302 302 302 302 303 302 303 303 302 301 301 301 301 302 303 306 306 304 305 306 307 309 311 313 311 310 315 315 318 316 325 322 320 322 319 324 322 325 323 324 322 318 320 318 320 320 318

GFSGBSN_925_thetae_057.txt.gz
Theta_e
309 310 308 308 308 308 308 308 309 309 309 308 308 305 308 312 315 317 316 315 317 317 317 319 316 314 313 318 317 316 311 315 313 315 316 315 316 318 319 319 319 319 319 320 322 321 323
307 307 309 309 307 307 307 307 308 308 308 308 308 308 305 304 311 315 315 315 315 317 317 318 318 314 316 317 314 314 319 318 318 317 316 315 316 318 320 320 320 321 320 323 324 322 324
306 306 305 306 309 308 307 307 307 307 307 307 308 308 308 304 309 311 313 313 313 316 316 317 318 313 315 317 315 315 318 317 317 316 316 315 318 320 321 320 320 320 321 325 326 325 326
305 305 306 305 305 306 308 307 306 307 306 307 307 307 307 307 304 306 308 312 314 316 316 316 315 314 317 315 313 315 317 317 316 315 315 316 317 320 321 320 320 320 322 324 327 327 325
306 305 304 304 303 304 305 306 307 306 306 306 306 306 307 307 304 304 311 313 315 315 315 314 315 317 318 314 313 313 316 319 318 317 316 316 317 320 321 320 320 320 321 324 327 328 326
305 307 305 304 303 303 303 303 304 307 306 305 306 306 306 306 305 308 311 314 316 316 315 315 315 318 317 316 314 313 314 319 319 319 319 319 320 321 321 319 320 319 322 322 326 326 323
303 303 304 307 305 304 302 302 303 304 308 305 305 306 306 306 305 308 312 315 319 321 317 315 317 314 315 315 316 315 315 320 320 321 321 320 321 321 320 321 321 320 321 321 325 326 325
302 302 303 302 305 306 305 305 303 302 303 307 305 306 305 306 305 308 313 314 315 317 315 315 317 317 317 317 319 317 318 320 320 321 320 322 322 321 322 321 320 320 321 321 321 322 322
302 302 302 302 302 301 305 305 304 302 303 303 306 305 305 305 305 308 313 313 316 317 318 313 315 316 316 316 318 318 319 320 320 321 321 322 322 321 322 321 322 322 322 321 321 323 322
302 303 303 303 302 302 302 302 304 304 301 303 303 305 305 305 305 308 313 313 314 317 318 312 318 318 317 317 318 317 318 319 320 321 321 321 321 321 321 322 322 323 321 321 322 322 322
302 302 303 303 303 303 302 302 302 303 302 300 303 304 305 304 309 313 314 315 318 319 310 315 317 317 317 317 316 317 317 319 320 320 321 320 320 322 322 322 322 322 322 322 322 322 323
303 303 303 303 304 303 303 302 302 302 302 302 302 303 305 305 306 308 315 318 320 319 312 314 320 320 321 318 316 317 318 318 319 320 320 320 321 321 321 322 322 321 322 322 323 324 325
303 303 303 303 303 304 303 303 302 302 303 302 301 301 305 306 307 308 311 318 316 312 311 312 319 321 321 320 318 318 319 318 319 320 321 320 321 321 321 322 322 322 323 326 329 326 326
303 304 303 303 304 304 304 303 303 303 302 302 302 301 301 306 306 308 310 317 313 310 311 316 316 321 321 320 319 319 319 318 318 319 321 321 321 321 321 321 323 324 323 327 330 330 327
304 304 304 304 304 304 304 304 303 303 303 301 302 302 303 306 306 306 309 318 314 311 311 311 316 322 322 319 319 319 319 318 318 319 320 321 321 320 320 320 320 322 325 323 326 327 328
304 305 305 304 304 304 305 304 304 303 303 302 303 303 303 304 306 308 310 314 312 310 310 313 313 320 322 320 318 319 320 318 319 319 320 320 321 319 319 320 321 322 324 325 325 330 330
304 304 305 305 305 305 305 305 304 304 303 302 303 305 303 304 306 309 310 312 314 310 311 310 314 314 319 322 318 319 320 318 319 319 319 320 320 321 322 323 323 323 325 324 324 325 329
304 305 304 305 305 305 305 304 304 304 303 303 304 306 303 305 306 308 310 311 311 313 312 312 316 319 314 319 320 319 319 319 318 319 320 320 321 324 323 320 320 323 323 324 327 327 327
304 302 299 301 304 305 305 305 304 304 303 303 304 305 304 305 308 310 308 309 309 312 312 312 317 318 320 321 322 319 319 319 318 320 320 320 320 323 322 322 322 322 324 324 324 325 329
300 300 300 300 300 301 305 305 304 304 304 303 303 305 306 307 308 309 308 308 308 310 312 312 316 316 318 321 322 322 320 319 320 319 320 321 320 321 324 322 321 321 322 322 323 328 325
300 300 300 300 300 300 300 305 304 304 304 303 302 307 306 307 308 309 308 307 307 309 312 312 313 316 318 320 321 323 321 321 318 317 318 321 321 320 320 320 319 319 320 321 321 321 323
300 300 300 300 300 301 300 299 302 304 304 303 301 307 308 309 308 309 308 308 307 308 309 312 315 316 316 317 320 322 321 320 319 319 320 321 323 321 320 319 319 318 318 318 319 319 319
301 301 301 301 301 301 301 301 300 300 305 303 300 304 308 307 308 309 310 308 307 308 309 310 313 315 317 316 320 320 319 319 318 320 321 321 323 322 324 320 320 324 319 319 319 319 319
302 302 303 302 301 301 301 301 301 300 302 300 301 305 309 309 310 310 308 307 307 307 309 310 311 314 315 316 317 317 318 317 319 319 319 324 323 324 328 324 330 321 320 320 320 319 319
301 302 302 303 302 302 301 301 300 302 301 301 302 306 308 311 309 307 307 308 307 308 310 310 311 312 316 316 315 315 315 315 315 317 318 321 325 327 330 326 321 319 320 321 320 320 320
301 302 301 301 302 303 302 301 300 301 301 300 304 304 308 310 308 307 308 307 308 309 310 311 312 312 315 315 314 313 310 311 311 316 317 319 322 329 327 327 328 321 320 320 320 325 320
301 301 301 301 302 302 302 301 301 301 300 301 304 304 307 309 306 307 309 308 308 309 310 311 312 315 316 318 319 319 313 310 312 313 324 324 325 331 330 328 323 320 320 320 324 325 321
301 301 301 301 302 302 301 301 301 301 301 302 304 304 306 307 306 306 308 310 308 310 312 310 313 315 318 319 319 315 319 315 315 316 322 325 325 330 328 331 331 321 320 322 323 323 321
301 301 301 301 300 302 301 301 301 301 301 302 305 304 304 307 307 307 308 308 308 308 309 312 313 314 314 316 318 318 322 325 317 322 316 324 324 326 324 325 323 321 323 321 322 322 323

GFSGBSN_925_thetae_060.txt.gz
Theta_e
307 308 309 309 309 308 308 308 308 308 308 308 308 308 308 307 305 309 313 316 315 315 314 316 316 318 317 319 320 318 317 316 316 313 316 316 316 317 319 319 319 319 319 318 319 321 319
307 307 306 306 307 308 309 308 307 307 307 307 307 308 308 308 306 306 311 314 314 314 314 315 316 317 319 320 318 317 317 321 317 316 317 316 316 316 318 319 319 319 320 319 324 326 325
306 306 305 304 305 305 306 309 308 307 307 307 307 307 307 307 307 305 306 309 309 311 313 315 316 316 319 320 316 317 317 320 318 318 318 316 316 316 320 321 320 320 319 320 324 323 323
307 306 306 305 303 303 304 305 306 308 307 307 306 306 307 307 307 307 303 305 309 313 315 315 315 315 317 315 317 317 317 318 318 317 316 316 315 318 319 321 320 320 319 321 326 323 323
304 306 308 306 305 303 303 303 304 305 307 307 306 306 306 306 306 306 304 306 308 312 314 315 315 318 316 314 317 316 316 317 317 317 315 316 317 319 319 320 320 319 320 321 326 325 326
304 304 304 304 307 306 304 303 302 303 303 304 307 306 305 306 306 306 306 308 309 314 317 316 316 316 316 314 316 316 315 316 319 319 317 318 318 318 320 320 320 320 320 322 324 327 327
303 304 303 304 304 304 307 305 303 301 303 303 304 306 306 305 306 306 307 313 316 323 320 319 317 314 314 317 316 314 314 316 320 320 318 319 319 319 320 321 321 321 320 321 325 324 324
302 302 303 303 302 302 304 306 306 305 304 303 304 305 305 306 305 306 306 314 311 317 317 314 318 318 316 317 318 318 314 318 321 320 320 320 322 320 321 321 322 321 318 319 321 324 325
303 303 303 304 303 303 303 303 302 306 305 303 303 302 306 305 305 305 306 311 314 315 318 313 311 311 312 315 318 319 316 318 320 320 321 321 321 322 320 321 321 320 321 320 321 323 323
302 303 303 303 303 303 303 303 302 302 302 303 302 302 304 305 305 308 308 312 311 315 319 309 311 314 312 313 316 317 318 318 319 320 320 321 321 322 322 322 321 323 322 321 320 323 322
303 303 303 303 303 303 303 303 303 302 302 303 303 301 303 305 308 312 314 313 315 319 309 312 314 317 317 314 317 317 317 319 320 320 320 321 321 321 322 321 321 322 322 323 322 321 322
303 303 303 304 304 303 303 303 303 303 302 303 302 302 302 305 306 308 310 311 318 320 310 313 319 318 318 317 316 318 317 318 319 320 321 320 321 320 320 322 321 322 322 322 323 322 326
302 303 303 304 304 304 304 303 303 303 303 302 302 302 302 305 307 307 308 313 318 313 308 311 319 320 318 319 317 318 319 319 320 321 322 320 320 320 321 321 322 322 323 326 333 331 330
302 303 303 304 304 304 304 304 304 303 303 303 302 302 303 303 306 307 309 316 315 310 311 315 315 319 321 321 320 318 318 319 320 319 321 322 322 320 321 322 322 322 323 328 329 335 333
302 303 303 304 304 304 304 304 304 304 303 303 303 303 304 304 305 307 310 315 313 310 311 311 313 316 321 321 321 320 319 320 319 319 320 322 321 319 321 321 320 321 326 324 327 330 333
302 303 303 304 304 304 305 305 304 304 304 303 304 303 305 304 305 307 310 310 311 309 311 312 311 316 320 322 321 321 320 320 320 319 320 321 322 321 320 321 321 320 320 327 326 332 332
302 303 303 304 304 305 305 305 305 304 304 303 304 305 304 304 306 309 310 309 310 308 310 311 312 312 313 317 321 320 320 320 320 319 319 321 323 323 321 321 320 320 322 325 326 327 331
302 302 303 304 304 305 305 305 305 304 304 304 304 306 304 305 307 308 308 310 308 308 309 312 313 312 314 316 321 324 320 321 320 319 320 320 322 323 321 320 320 321 323 323 330 327 330
302 303 303 303 304 304 305 305 305 305 304 304 304 305 304 306 307 308 308 308 308 309 309 310 312 312 314 317 321 321 324 321 321 320 322 321 322 324 323 323 322 321 322 324 325 326 329
302 301 300 300 304 304 302 300 306 305 305 304 303 305 306 307 308 308 309 310 310 308 309 309 313 313 314 319 321 323 322 321 322 319 319 321 322 323 325 326 323 322 322 324 327 333 328
300 300 300 300 300 300 301 300 306 305 305 304 303 305 306 308 307 309 308 307 309 308 308 309 311 313 314 319 320 322 323 322 321 319 319 322 324 323 321 320 321 322 321 320 321 327 330
299 300 300 299 300 300 300 301 301 305 305 305 299 307 307 307 307 308 308 309 309 308 307 308 311 313 314 318 319 322 323 323 324 320 320 321 324 323 323 320 320 321 322 320 320 320 321
299 299 300 300 300 300 300 301 301 301 305 305 300 304 307 307 308 308 309 310 309 310 308 307 309 313 316 316 318 319 321 321 323 321 322 322 323 324 324 322 321 321 321 320 320 321 321
300 301 301 301 301 301 301 301 301 301 304 301 299 305 307 309 309 310 307 308 308 309 310 308 309 311 313 315 318 318 316 319 322 320 321 323 325 324 326 323 326 322 321 320 320 320 319
302 301 301 302 302 302 302 301 301 301 300 303 300 305 306 310 309 309 308 307 309 310 310 309 309 310 312 318 318 320 319 318 318 320 320 320 323 327 328 326 323 321 321 321 321 321 320
301 302 302 302 302 302 303 302 301 301 300 301 301 304 307 308 309 308 308 308 309 310 310 310 310 311 314 319 319 320 320 316 319 316 319 319 321 326 328 327 327 324 322 320 321 322 321
301 302 301 301 301 302 302 303 302 302 301 300 299 303 307 309 308 309 309 309 309 309 311 311 311 314 315 318 319 319 317 312 314 317 320 321 322 325 327 328 327 321 320 320 323 324 323
301 301 301 301 301 302 302 303 301 301 301 301 300 301 305 308 308 307 307 309 309 310 311 310 311 314 314 318 319 318 321 314 312 311 321 323 324 325 327 329 330 322 321 321 323 323 324
301 300 300 302 302 301 302 302 301 301 301 300 301 301 303 308 308 308 308 308 309 311 311 311 312 313 315 318 318 317 324 322 317 319 314 319 321 325 324 325 325 323 322 323 324 325 325

GFSGBSN_925_thetae_063.txt.gz
Theta_e
307 308 308 306 307 307 309 309 308 308 308 308 307 307 308 308 308 307 304 307 311 314 313 312 313 315 316 319 319 318 318 317 315 311 314 314 314 314 314 315 315 316 316 317 319 320 322
306 306 306 305 305 305 307 307 308 309 308 307 307 307 307 307 308 307 307 304 306 308 308 309 313 315 317 319 313 316 316 315 316 314 315 315 315 314 314 315 317 317 317 316 319 322 322
308 307 306 305 304 303 303 305 305 306 308 307 307 307 306 306 307 307 306 306 302 302 308 313 314 315 316 317 308 314 316 317 319 317 315 316 317 314 313 317 318 319 318 317 321 321 321
305 305 307 308 307 306 304 303 303 304 304 307 307 307 306 306 306 306 306 306 304 302 307 312 314 315 317 310 311 315 316 317 317 319 318 318 317 313 317 316 318 318 317 317 318 322 322
305 305 305 304 304 306 307 305 303 303 303 304 304 306 307 306 305 306 306 306 303 301 309 313 315 314 319 315 314 314 313 317 317 318 318 317 315 316 317 317 317 317 318 317 321 322 323
304 304 304 304 303 303 303 305 306 304 302 302 303 303 305 306 305 305 305 305 299 306 312 316 316 316 318 316 315 316 316 315 317 316 317 315 314 315 315 315 318 319 319 317 322 323 323
303 304 304 304 303 303 304 304 304 307 305 303 303 303 303 306 305 305 305 305 313 317 317 320 318 314 313 315 316 315 317 315 315 317 317 315 315 317 316 316 318 319 319 318 321 323 325
303 304 304 304 304 304 304 304 303 303 305 306 304 303 303 305 306 305 305 306 313 312 316 318 319 319 317 317 317 316 315 314 315 316 317 317 317 317 318 318 319 321 320 317 319 323 322
302 302 304 304 305 305 305 305 304 303 301 303 305 304 302 303 306 305 304 305 303 306 315 314 314 312 312 314 317 316 315 313 316 319 319 318 318 318 319 319 320 320 319 319 319 322 321
302 302 303 304 304 303 303 303 303 303 303 302 300 303 302 304 305 305 306 311 312 312 318 312 310 311 311 309 313 314 316 312 317 320 320 319 319 320 320 320 320 320 320 322 321 321 321
302 302 302 303 303 303 303 303 303 303 303 303 302 301 303 303 305 306 309 309 312 316 305 308 309 312 311 310 313 315 314 315 315 319 318 319 319 320 320 321 320 320 322 322 323 321 319
301 301 302 302 303 303 304 304 303 303 303 303 302 302 303 302 303 304 305 307 313 320 319 310 316 317 314 310 311 315 314 314 316 317 318 318 318 318 319 320 320 320 321 322 321 321 322
301 301 302 302 303 303 304 304 304 303 303 303 303 302 303 302 304 305 308 310 317 317 306 307 319 317 317 315 311 312 315 315 315 320 320 319 319 318 319 319 320 320 321 323 326 326 323
301 301 302 302 303 303 304 304 304 304 304 303 303 302 302 303 302 304 307 315 317 309 308 310 313 316 319 318 317 316 315 316 315 317 318 320 321 319 319 319 321 321 321 325 328 329 327
301 301 302 302 303 303 304 304 304 304 304 303 303 303 303 302 302 303 309 313 311 309 309 308 308 310 318 319 319 317 317 317 316 316 318 319 320 318 318 320 319 322 322 321 325 329 328
300 302 302 303 303 303 304 304 304 304 304 304 304 304 303 301 304 304 309 311 311 309 309 309 309 312 313 319 320 319 319 318 318 316 317 319 321 319 319 318 319 320 319 325 326 332 332
300 301 301 302 302 303 303 304 304 305 304 304 304 305 303 301 305 306 308 307 307 309 309 309 307 309 311 313 313 316 320 319 317 317 317 317 318 321 320 319 319 320 320 319 324 327 327
300 300 301 301 302 302 303 304 304 305 305 304 304 305 303 303 306 306 307 306 306 306 307 308 308 309 310 312 313 314 320 321 318 317 318 317 320 319 320 320 319 319 320 319 324 328 328
300 300 301 301 302 302 303 303 304 305 305 305 305 304 304 304 306 306 305 307 306 307 307 307 308 309 310 311 313 316 322 318 320 319 318 317 318 320 321 319 319 319 318 320 321 324 326
299 300 300 301 302 302 303 303 304 305 305 305 302 304 305 306 304 303 305 306 307 307 307 308 308 307 308 310 312 316 321 321 319 320 319 318 317 318 320 321 322 321 320 320 322 325 325
299 300 301 301 303 302 300 299 302 305 305 305 301 304 304 307 306 305 304 306 306 308 306 307 308 308 308 310 312 317 320 321 320 322 318 319 318 318 319 319 322 322 322 320 321 324 328
300 301 302 301 299 300 300 300 303 304 306 305 298 305 304 304 306 306 306 306 307 308 307 309 308 307 308 310 310 318 322 322 324 322 321 320 320 318 319 320 321 321 322 320 320 319 326
300 300 299 299 299 299 300 300 299 301 301 306 302 301 304 305 307 307 306 306 308 307 307 306 307 306 307 308 312 319 321 321 322 322 321 322 320 322 321 320 321 320 319 320 321 321 319
299 299 299 299 300 299 299 299 300 301 301 304 302 303 304 307 305 307 306 306 306 307 307 306 307 306 307 316 318 318 317 318 318 320 321 322 321 320 319 320 323 320 318 319 320 320 318
298 299 298 299 300 300 300 300 300 300 301 302 301 303 304 307 305 306 306 306 306 307 307 308 308 307 306 306 315 318 317 317 317 319 320 318 323 321 323 323 321 320 319 320 320 320 317
299 300 301 301 301 302 302 301 301 300 301 301 301 301 305 306 308 305 307 306 306 306 306 307 307 306 308 309 312 316 318 320 321 319 318 318 319 319 320 324 324 320 320 320 319 320 318
301 301 301 301 301 301 302 301 302 301 301 301 300 299 304 305 305 307 306 307 307 307 308 307 307 308 313 308 310 311 316 316 319 318 317 317 318 321 322 324 321 321 320 320 322 319 319
301 301 301 301 301 302 302 302 301 302 301 302 300 299 303 304 305 306 308 308 308 308 308 307 308 309 310 309 311 309 310 314 314 314 319 319 319 319 321 321 324 320 320 320 319 318 319
301 301 301 301 301 301 302 302 302 302 302 301 300 300 300 305 308 306 306 307 307 309 310 308 308 308 311 311 311 311 309 309 311 312 314 318 316 318 318 319 320 321 321 319 320 321 321

GFSGBSN_925_thetae_066.txt.gz
Theta_e
307 307 307 306 305 305 307 308 307 308 309 308 307 307 307 307 307 307 307 307 306 305 303 304 307 313 315 317 318 313 314 317 315 310 311 313 313 313 313 312 312 314 314 314 314 319 320
308 308 308 307 305 305 306 306 305 305 305 306 308 307 307 307 306 306 306 306 306 306 304 304 310 314 316 317 309 312 314 316 315 311 313 313 313 313 313 312 314 316 316 316 315 319 321
305 306 306 306 308 307 306 305 303 303 303 304 305 308 307 307 306 306 305 305 305 305 305 303 309 313 314 314 306 314 316 316 316 315 313 314 314 314 312 313 315 316 317 315 315 319 320
305 305 305 305 305 304 305 306 306 305 303 303 303 304 305 306 306 306 305 305 305 305 304 304 308 313 314 307 307 309 309 312 312 313 317 317 316 313 312 313 315 316 316 316 315 319 319
304 305 305 304 304 303 304 303 303 306 306 303 302 302 303 304 306 306 305 305 305 302 303 310 312 313 314 312 316 315 313 313 316 317 319 318 316 313 315 315 314 315 316 317 317 318 321
304 304 304 304 304 303 303 303 303 304 304 307 304 302 303 302 303 306 305 305 302 305 306 314 316 313 313 312 314 315 315 312 314 315 316 314 312 313 312 313 316 315 317 316 315 318 322
303 302 303 304 304 303 304 304 303 303 303 304 307 305 304 302 304 306 305 304 308 313 314 317 317 313 309 314 316 315 315 315 314 315 315 314 313 314 313 313 315 316 317 317 316 319 322
301 301 302 303 304 305 305 305 305 304 303 302 301 305 305 303 302 305 305 305 307 305 307 310 315 317 316 316 318 316 315 313 313 314 315 316 316 314 314 315 316 317 318 318 316 321 322
300 300 302 303 304 305 305 305 305 304 304 303 302 301 305 303 302 305 305 304 305 309 309 312 313 314 317 316 318 317 313 312 313 314 316 317 317 316 316 316 317 317 318 318 317 317 319
300 299 300 303 303 303 303 304 304 303 303 303 303 302 300 303 302 304 305 307 305 308 310 310 312 310 310 311 312 312 312 312 313 314 315 317 317 318 317 317 317 319 318 319 320 320 321
299 300 301 301 302 302 303 303 303 304 303 303 303 303 302 302 302 304 306 305 307 310 296 304 310 310 311 308 309 312 311 313 313 316 317 320 318 318 318 319 318 319 319 320 321 321 318
299 300 300 301 302 302 302 303 304 304 304 303 303 303 302 303 303 302 302 304 310 317 309 309 311 310 310 309 310 313 312 313 313 313 316 318 317 317 318 319 318 318 319 320 320 319 321
298 299 300 301 302 302 302 303 303 304 304 303 303 303 303 301 302 304 305 308 317 315 306 305 316 315 311 309 309 311 313 312 314 315 314 317 318 316 316 317 317 318 319 321 323 323 323
298 299 299 300 301 302 302 303 303 304 304 304 303 303 303 302 301 302 303 312 315 307 305 307 309 309 317 311 309 310 312 312 312 314 316 317 320 317 317 317 318 318 319 322 326 324 323
297 298 299 300 301 302 302 303 303 304 304 304 304 303 304 302 301 303 306 312 312 309 307 305 306 306 308 317 317 311 312 312 313 314 317 319 319 317 317 317 317 320 320 320 323 326 325
298 298 299 299 301 301 302 303 303 304 304 304 304 304 304 302 301 303 305 310 310 309 308 308 308 309 311 311 315 315 316 316 315 314 314 317 320 318 318 316 317 319 319 322 323 328 329
297 298 298 299 300 301 302 303 303 303 304 305 305 305 303 303 302 305 306 307 307 307 308 310 309 309 309 311 312 314 317 316 316 315 314 315 317 318 318 318 317 318 318 318 321 326 327
297 298 298 299 299 300 301 302 303 303 304 304 305 305 302 303 303 303 305 305 306 306 306 307 308 308 309 309 310 313 315 315 317 319 317 315 316 318 318 318 317 317 319 318 321 325 324
297 298 298 299 299 300 301 301 302 303 303 305 304 304 303 302 303 303 303 304 305 305 306 306 307 307 307 309 309 312 313 315 320 321 321 317 317 319 318 317 317 317 318 319 319 320 321
297 298 298 299 299 300 300 301 302 302 303 305 299 304 304 303 301 302 303 304 304 305 305 305 306 307 306 306 307 309 311 315 319 319 320 319 321 317 319 318 318 319 318 318 319 320 320
297 298 298 299 299 300 301 301 301 302 303 305 300 303 304 305 304 304 303 304 305 305 306 306 306 306 308 308 307 308 313 320 320 320 321 321 321 319 317 317 318 320 320 318 319 320 323
297 298 298 299 299 300 300 301 302 303 304 305 298 304 304 302 305 304 304 304 304 305 306 307 306 306 306 308 307 308 309 317 322 321 321 321 323 319 320 317 318 318 318 319 319 318 319
298 299 299 299 299 300 302 303 303 301 301 304 302 300 304 305 304 306 304 303 305 304 305 305 306 306 307 307 306 307 313 318 320 322 322 320 322 323 323 318 318 320 319 319 319 319 321
298 299 299 300 300 301 299 299 300 300 300 302 303 302 304 306 304 305 305 305 305 305 305 305 305 306 306 306 310 314 315 316 318 319 321 319 319 321 320 316 323 319 317 317 318 318 317
298 298 298 299 299 299 299 299 299 300 299 299 302 303 304 306 304 304 305 305 305 304 305 306 306 306 304 304 308 312 311 312 314 317 321 318 318 317 322 319 320 319 318 318 318 318 317
299 298 298 298 298 299 299 299 300 300 300 298 301 301 304 305 306 304 304 305 305 305 305 305 305 304 305 305 306 307 309 315 318 319 318 316 316 316 318 322 322 318 316 318 319 320 317
299 300 300 299 299 299 299 299 300 300 300 300 301 300 300 301 303 304 304 305 304 304 304 304 305 305 305 304 305 307 308 312 315 317 315 314 313 318 319 322 319 318 319 318 322 319 318
301 301 301 301 301 301 301 300 301 301 301 301 300 300 299 298 301 305 304 304 305 305 305 304 306 306 306 306 307 306 305 312 314 315 316 315 317 317 317 320 319 319 321 321 317 318 320
301 301 301 301 301 301 302 301 301 301 301 301 301 300 300 302 303 303 305 305 305 305 306 305 306 306 307 307 306 305 306 303 309 312 312 316 316 317 318 317 317 318 321 319 319 319 319

GFSGBSN_925_thetae_069.txt.gz
Theta_e
307 308 307 307 306 306 307 307 306 305 305 305 305 308 308 307 307 306 306 306 305 305 305 305 303 310 314 315 316 310 314 314 315 313 310 311 312 312 313 312 311 312 313 313 313 313 317
305 306 307 307 306 308 307 307 305 303 303 303 303 305 306 308 307 307 306 306 305 305 305 304 303 309 313 315 308 309 313 314 313 310 311 311 311 311 313 312 312 313 315 314 314 314 322
305 305 305 305 304 304 304 304 307 307 306 304 303 303 304 305 305 305 306 306 306 305 305 305 304 310 313 312 305 313 311 316 314 312 311 312 312 313 312 314 313 315 314 313 313 314 317
305 305 305 305 304 304 303 303 303 303 305 306 306 303 302 303 303 304 304 306 306 305 305 304 306 311 312 305 306 308 306 308 311 314 312 315 314 313 313 313 313 315 314 315 314 316 316
304 304 305 304 303 303 303 303 303 303 303 303 304 306 303 303 302 303 304 305 305 304 305 305 311 313 313 308 312 311 315 312 309 312 314 315 314 314 314 313 312 313 312 314 315 314 318
303 303 303 303 303 303 303 303 303 302 302 302 303 305 306 305 303 302 304 303 303 309 306 310 314 311 309 310 312 315 314 313 312 314 315 315 312 311 310 312 314 313 315 315 315 314 319
302 302 302 302 302 304 304 305 305 304 304 303 302 300 303 305 303 301 303 305 304 310 309 312 314 313 311 313 316 315 315 311 312 313 314 313 313 313 313 312 313 315 316 315 314 314 319
300 301 301 301 302 303 304 305 305 305 305 304 304 302 300 301 304 302 303 305 305 304 309 307 307 312 313 314 316 314 314 313 313 314 313 314 315 313 312 313 314 315 315 315 314 315 318
300 300 300 301 301 303 304 304 304 305 304 304 304 303 302 300 303 301 304 304 305 306 310 310 308 307 307 313 315 315 314 312 313 313 314 315 316 315 313 314 315 315 315 315 316 315 318
299 299 300 300 301 302 303 303 303 303 304 304 303 303 303 301 300 302 304 305 303 307 309 305 310 308 309 313 315 313 312 312 312 313 313 314 315 316 315 315 314 315 315 316 317 317 319
299 299 298 300 301 301 301 301 302 303 303 304 304 303 303 301 301 302 304 302 303 307 296 302 310 309 309 309 307 311 311 311 312 313 313 315 317 316 317 317 315 317 317 317 318 318 318
299 299 300 300 300 300 301 301 301 302 303 304 304 303 303 303 303 302 301 303 308 314 306 303 309 311 310 309 308 312 310 312 311 313 313 314 315 315 317 317 316 317 318 318 318 317 320
298 298 299 299 299 300 301 302 302 302 303 304 304 303 303 303 301 302 302 306 315 313 304 304 312 309 310 309 309 311 311 311 313 314 314 313 316 316 316 317 316 317 317 319 320 320 321
298 297 298 298 298 299 299 301 302 302 303 303 304 304 303 303 302 302 302 309 315 308 305 304 306 307 313 309 309 309 310 308 311 314 313 314 316 315 316 317 317 316 317 320 324 323 321
297 298 297 298 298 299 299 301 302 302 302 304 304 304 304 304 303 302 302 310 310 310 307 308 307 304 307 313 315 310 310 310 308 311 316 315 314 316 315 316 316 318 318 317 319 323 324
297 297 297 297 298 298 299 300 301 303 303 303 305 305 304 303 303 302 303 308 310 309 308 309 308 308 309 309 313 315 316 314 312 309 313 316 319 317 316 315 315 317 317 320 320 325 327
297 296 297 297 297 298 299 299 301 302 303 304 305 306 304 303 302 301 302 305 307 307 307 308 310 309 309 309 309 312 316 314 316 316 312 314 316 317 317 317 317 317 318 318 320 321 324
296 296 296 297 297 298 298 299 300 301 303 304 306 305 302 303 303 300 300 302 304 305 305 306 307 309 309 308 308 311 313 312 316 319 319 314 315 317 316 315 316 316 317 318 319 321 322
296 296 296 297 297 297 298 299 300 300 302 305 304 303 302 303 304 301 300 301 303 305 305 305 307 307 306 307 306 308 311 312 318 317 319 320 318 318 317 316 315 316 316 317 318 317 321
296 296 296 297 297 297 298 299 300 300 301 304 297 304 303 303 300 301 301 301 303 303 304 304 305 305 307 306 306 307 308 309 314 320 320 319 321 321 320 317 316 317 317 317 318 319 318
296 296 296 297 298 298 298 299 299 301 301 303 298 302 303 305 304 302 301 302 302 304 303 305 305 305 305 307 306 305 305 306 314 320 321 321 323 322 321 320 318 317 318 317 317 318 319
296 296 296 297 299 298 298 299 300 300 301 303 298 303 304 303 305 303 304 303 303 303 304 305 305 306 305 305 306 306 305 308 314 318 320 320 323 320 321 319 317 317 316 317 317 317 317
297 297 298 298 297 298 299 299 299 300 301 302 301 299 304 305 304 305 304 303 304 304 304 304 305 305 306 305 304 305 305 306 307 319 319 320 320 320 320 318 319 321 318 316 316 318 318
297 297 297 298 298 298 299 299 300 300 301 302 302 302 304 306 303 304 305 304 303 304 304 304 304 305 305 304 304 308 307 312 315 317 317 317 317 317 320 318 325 320 316 316 316 316 317
299 299 299 298 299 299 299 299 300 300 301 302 302 303 304 306 305 304 305 304 303 302 304 303 304 304 303 304 306 307 308 312 311 315 316 315 314 316 317 319 319 315 318 317 317 317 316
298 298 298 298 298 298 300 300 300 300 303 303 301 301 304 305 306 304 304 305 304 303 303 304 304 304 304 305 305 308 306 309 315 318 318 316 314 315 317 319 318 311 314 312 316 319 315
299 299 299 299 298 298 298 301 300 299 299 301 299 300 300 302 304 304 303 304 303 303 303 304 304 304 303 303 305 306 307 308 312 316 315 315 314 318 318 319 315 315 314 317 323 319 319
300 300 300 300 299 299 298 298 299 299 299 300 299 298 299 299 301 303 304 304 303 304 303 302 305 304 303 304 305 305 302 307 310 312 312 313 314 312 317 318 314 316 318 324 318 317 318
302 301 301 302 301 300 300 299 299 298 298 299 300 299 299 300 301 300 302 304 303 303 304 304 305 305 305 304 302 303 302 300 308 310 311 313 311 311 312 314 313 312 315 315 316 319 319

GFSGBSN_925_thetae_072.txt.gz
Theta_e
305 304 305 307 307 307 307 308 306 305 304 303 303 303 304 305 307 307 307 307 306 306 306 305 305 304 310 312 311 307 311 312 315 312 311 310 311 311 312 310 310 311 311 311 312 312 311
305 305 305 305 304 304 304 305 306 306 306 306 305 304 303 302 304 305 305 305 305 306 306 305 305 306 312 310 307 309 312 314 312 311 310 309 309 310 312 311 310 310 312 312 312 312 316
304 304 305 304 304 304 303 303 303 303 303 304 305 306 304 302 303 302 302 303 304 305 305 305 305 307 310 308 303 309 309 310 313 310 310 311 311 312 311 313 312 313 314 311 311 312 313
304 303 304 304 303 303 303 303 303 303 303 303 303 304 305 306 304 304 301 303 304 304 303 305 306 308 310 303 303 308 305 305 306 311 312 313 313 311 313 312 312 313 312 312 312 315 315
303 303 304 304 303 303 303 303 303 303 302 302 302 302 303 306 306 304 303 301 302 303 305 306 307 309 311 306 310 309 311 309 308 309 312 313 313 313 311 312 312 311 311 312 312 312 317
302 303 303 302 302 302 303 304 304 304 304 303 303 302 301 302 303 304 303 301 304 307 306 307 312 307 305 304 310 313 313 313 311 312 314 315 313 312 310 310 313 312 314 312 313 314 314
302 302 301 301 302 302 303 303 304 304 304 305 304 304 303 300 302 302 303 303 304 306 305 309 311 307 309 313 315 314 313 311 310 312 313 313 315 315 312 312 311 311 313 315 312 312 315
301 300 300 301 301 301 302 303 303 303 304 304 304 304 304 302 300 300 302 304 304 304 307 306 306 307 309 311 313 308 312 312 311 312 312 312 316 314 313 312 313 314 314 314 312 313 313
301 299 300 300 300 301 301 303 303 303 303 303 303 304 304 303 302 300 302 303 305 304 308 308 308 308 307 308 311 310 311 311 312 312 313 315 315 314 312 312 313 313 314 314 314 313 314
300 298 299 300 300 300 301 302 302 301 301 302 303 304 303 303 301 302 304 304 302 306 309 305 309 307 306 310 312 310 310 310 312 313 313 313 314 315 313 313 312 313 313 314 314 315 317
300 299 298 298 299 299 300 301 300 300 301 301 303 304 304 303 301 301 303 299 302 307 296 302 309 306 309 306 306 311 310 310 310 312 313 314 315 315 316 314 313 314 313 314 314 316 316
300 299 298 298 298 299 299 300 300 300 301 301 302 304 304 304 304 303 301 300 306 311 305 303 309 310 311 309 308 311 311 310 310 313 312 312 314 313 315 315 313 315 316 317 317 316 319
299 298 298 298 298 299 299 299 300 300 302 302 303 304 304 304 301 301 301 304 312 311 305 304 307 310 311 310 309 310 310 310 309 312 313 313 314 315 315 316 314 315 316 319 320 320 322
299 299 298 297 298 298 299 299 299 299 302 302 302 303 304 304 303 302 301 307 312 308 308 306 306 306 310 309 308 309 308 308 308 312 308 313 315 314 315 316 317 316 316 319 324 322 320
299 298 298 297 298 298 298 297 298 299 301 302 302 303 305 304 304 303 300 306 307 308 308 309 307 306 309 310 314 309 309 307 307 310 314 315 314 312 314 315 316 316 316 316 318 320 323
298 298 298 297 297 297 297 297 297 299 300 302 303 305 305 304 304 301 300 303 307 308 307 308 308 308 309 309 311 312 314 314 311 309 312 314 317 316 315 314 314 316 315 319 318 322 325
296 297 298 297 297 297 297 296 297 299 299 302 304 305 304 303 303 302 302 300 303 304 306 307 309 308 309 308 307 309 312 314 317 318 310 312 315 316 316 316 315 316 316 317 318 318 321
295 296 296 297 296 296 296 296 297 299 299 301 304 305 303 303 303 303 302 299 302 304 305 306 306 307 308 307 307 309 312 314 313 316 316 314 313 314 314 314 314 314 316 316 319 319 320
295 295 296 297 296 296 296 296 296 298 299 302 304 301 302 303 305 304 301 300 301 304 304 305 305 305 306 306 305 306 310 310 309 315 320 319 318 316 316 315 314 314 314 316 317 316 320
295 295 296 296 295 296 296 296 297 297 298 301 295 302 302 304 302 303 302 301 301 301 303 304 304 304 306 306 305 306 306 307 307 309 319 319 320 321 321 320 320 319 316 315 316 318 317
294 295 295 295 295 296 296 296 297 297 298 301 295 300 303 304 304 303 302 301 300 303 302 303 303 304 304 305 306 305 305 306 307 313 317 318 320 322 321 321 320 321 320 317 315 316 318
295 295 295 295 295 295 296 296 297 298 298 301 297 301 304 301 304 304 303 302 301 300 303 303 303 305 304 304 304 305 304 303 305 310 317 318 317 319 320 319 319 319 319 316 315 315 315
297 297 297 297 297 296 296 297 297 298 298 301 297 299 304 305 305 305 304 303 302 302 302 303 305 305 304 304 303 303 303 304 304 306 306 315 317 318 318 319 318 316 317 316 315 314 316
298 298 298 298 297 297 297 297 298 298 298 301 299 301 303 305 305 305 304 303 303 302 304 304 302 304 304 303 303 304 303 304 305 306 307 313 317 315 315 316 319 313 315 313 316 316 314
298 298 298 298 298 298 298 299 298 298 299 301 300 302 302 305 305 304 304 303 303 303 303 303 304 303 303 303 305 306 306 309 308 308 310 315 313 314 312 317 315 312 311 317 313 314 312
299 298 298 297 298 298 298 298 298 299 299 301 300 302 303 304 305 303 304 304 304 303 303 303 303 302 304 305 306 310 307 308 310 315 311 312 311 312 315 316 316 309 312 313 315 313 315
300 299 299 298 298 298 299 299 299 299 300 300 301 301 300 303 304 304 304 306 304 303 303 303 303 303 303 305 308 309 309 306 308 315 314 315 314 316 317 317 314 311 316 316 319 313 315
301 301 299 299 299 298 298 298 298 300 300 300 301 301 299 299 302 303 303 304 304 303 304 303 305 304 303 304 306 306 304 305 306 310 312 312 313 316 316 317 316 312 317 321 317 313 314
301 301 301 300 299 299 299 298 297 300 301 300 299 300 299 300 302 300 302 302 303 303 303 304 304 303 302 302 301 302 302 299 307 309 309 309 309 311 311 311 310 312 313 313 313 313 314

GFSGBSN_925_thetae_075.txt.gz
Theta_e
305 305 303 304 303 304 305 305 305 306 306 306 306 306 305 303 302 302 303 303 302 304 304 305 305 305 304 307 306 304 305 310 316 311 310 311 313 313 315 312 311 312 313 311 312 312 313
303 303 304 303 303 303 303 303 303 303 303 303 303 304 305 305 303 303 303 302 302 302 303 304 305 305 311 303 303 306 309 312 311 311 310 309 311 312 313 313 312 313 312 313 314 314 313
303 303 304 304 304 303 303 303 302 303 303 303 303 302 303 303 306 306 305 303 303 302 302 304 307 307 307 303 301 306 307 309 313 310 310 309 310 312 312 313 312 313 315 314 313 313 314
302 302 303 303 302 303 302 302 303 303 303 302 302 302 302 301 302 305 304 304 304 301 302 302 307 307 307 301 301 301 304 304 305 310 310 312 311 312 313 313 313 315 313 315 312 315 316
304 303 302 302 302 302 302 302 302 304 304 303 304 303 303 302 301 300 302 303 301 304 306 307 307 308 307 304 308 305 308 308 307 307 311 312 313 314 313 315 315 313 313 313 313 313 319
304 303 302 302 301 301 301 302 302 302 303 303 304 304 304 304 303 301 300 298 305 306 306 307 309 307 303 303 308 312 312 311 310 311 314 314 314 316 313 315 316 315 315 314 314 316 316
301 302 301 302 301 301 301 301 302 302 302 303 303 304 304 304 304 302 300 302 304 305 304 309 309 304 306 311 314 313 312 311 311 311 316 316 317 319 318 315 313 313 314 314 314 313 315
302 302 302 300 300 301 301 301 301 302 302 303 302 302 303 304 304 302 300 303 304 303 306 306 305 305 306 309 310 311 310 313 312 311 313 315 319 317 315 314 315 314 315 315 314 314 315
300 301 300 301 300 300 301 301 301 302 301 301 301 302 303 304 303 301 301 301 304 303 308 307 306 306 306 306 308 307 311 312 312 313 314 316 316 315 315 315 316 316 316 316 314 314 314
300 299 300 300 300 300 300 300 301 301 300 300 300 301 303 304 303 302 303 304 299 304 308 305 308 308 306 308 308 306 307 310 313 314 314 314 314 315 315 315 316 317 314 315 315 315 314
300 300 299 299 298 298 298 298 300 301 301 302 301 301 303 304 302 301 300 301 300 306 301 302 308 305 308 304 305 309 308 308 308 314 314 315 315 316 315 315 314 315 314 315 315 315 315
299 300 300 298 297 298 297 298 299 300 299 300 301 301 303 304 304 303 302 301 304 311 306 304 309 310 308 308 308 311 310 309 309 312 312 314 313 314 314 315 313 315 316 317 318 318 322
298 298 299 298 297 298 297 298 298 298 298 299 301 302 303 304 303 302 301 302 308 310 306 306 306 310 310 311 309 311 311 310 310 309 313 314 314 315 315 315 314 315 318 320 323 324 322
298 297 297 299 299 298 297 297 297 297 297 298 301 302 302 304 304 302 301 305 307 307 307 307 308 308 309 310 309 310 310 310 309 311 309 312 315 315 316 318 318 317 318 322 320 325 323
297 297 298 298 299 297 297 298 297 297 297 298 300 302 302 304 304 303 301 302 305 307 308 308 308 309 309 309 311 310 309 310 308 309 311 312 311 312 315 316 318 318 319 319 320 321 324
296 297 297 297 297 296 297 297 297 298 298 298 301 302 303 304 304 302 301 301 304 307 307 307 309 309 309 308 309 312 314 315 316 310 312 314 316 314 314 315 316 317 317 320 320 322 322
296 296 297 297 297 297 297 297 297 298 298 299 300 303 303 304 304 303 304 302 300 300 303 307 308 308 308 308 308 310 312 313 314 317 311 313 316 316 316 316 316 317 318 318 319 321 322
296 296 296 296 295 297 297 297 297 297 297 299 300 303 303 304 304 303 303 302 301 301 303 306 306 307 307 307 306 307 312 311 306 312 318 317 313 314 313 313 314 316 318 319 322 321 322
295 295 295 295 296 296 297 297 296 296 297 299 302 301 302 304 305 305 303 301 300 301 304 305 305 305 306 306 306 307 308 309 307 306 307 316 319 318 316 315 316 317 315 317 318 317 321
294 294 294 295 296 296 297 297 297 296 297 299 297 301 301 304 303 305 304 302 301 300 301 304 305 304 306 306 306 306 307 307 307 307 311 316 320 322 321 321 321 322 321 320 318 321 319
295 295 295 294 295 295 296 296 296 296 296 298 296 300 302 303 303 304 304 303 302 302 301 303 303 304 305 305 305 306 305 305 305 307 313 315 316 315 316 314 316 318 319 319 320 319 319
296 296 296 295 296 295 295 295 296 296 296 298 298 301 302 303 303 304 304 304 302 301 303 302 303 304 304 305 304 304 305 304 304 306 308 308 318 319 319 316 315 318 318 315 319 319 317
297 297 297 297 297 296 296 296 296 295 296 298 298 298 303 305 304 305 305 304 303 301 301 302 303 303 303 305 304 304 304 304 305 305 306 308 317 319 318 319 319 316 314 318 316 316 317
298 298 299 298 298 298 297 297 297 296 296 297 298 299 301 303 304 305 305 303 303 303 302 302 302 305 305 304 304 304 304 304 305 305 305 307 309 316 317 316 319 313 314 316 315 316 316
299 298 299 299 299 299 299 298 297 297 297 297 298 299 301 302 304 304 304 303 303 303 303 303 304 303 303 303 306 307 306 309 308 306 306 307 309 317 319 318 315 312 311 312 316 314 318
299 299 300 299 299 298 298 299 297 297 297 298 299 299 301 304 303 303 304 304 304 304 304 303 303 303 304 306 306 308 309 308 309 311 308 309 311 316 315 317 317 312 312 316 314 317 317
300 300 301 301 300 299 298 298 298 297 297 298 299 299 301 301 302 304 304 305 303 303 304 303 303 304 303 307 306 308 307 306 308 313 311 311 315 315 314 315 315 313 313 317 317 316 315
300 301 301 301 301 299 299 298 298 298 298 299 298 300 300 299 302 303 304 305 304 303 304 303 304 304 306 307 307 307 307 308 307 308 313 313 313 313 313 315 315 311 316 317 315 316 314
300 301 300 301 300 300 299 298 298 300 299 298 300 300 300 300 302 301 303 303 303 303 304 304 305 304 304 305 305 305 307 305 308 309 309 313 314 316 315 315 312 312 313 311 314 315 314

GFSGBSN_925_thetae_078.txt.gz
Theta_e
304 304 304 304 303 303 303 303 303 303 303 303 303 303 304 305 305 306 305 304 304 303 303 301 303 305 308 308 305 307 304 312 316 314 313 315 315 315 316 317 317 317 316 317 317 317 316
304 304 304 304 303 304 304 304 303 303 303 303 302 302 302 302 303 303 306 306 305 304 303 303 302 305 309 308 304 307 308 313 315 314 314 315 317 317 316 316 316 317 317 317 316 316 317
303 302 302 302 303 302 303 303 302 303 303 303 302 302 302 302 302 301 301 302 303 303 300 303 305 307 309 307 303 307 306 308 313 312 316 315 315 314 315 315 316 316 316 316 316 316 316
305 304 303 302 301 302 302 302 302 302 304 304 303 304 304 303 303 303 302 301 300 298 303 304 306 307 309 306 306 305 305 304 305 311 312 312 313 315 315 316 316 316 317 318 317 316 316
304 305 303 302 301 302 301 301 301 301 302 302 303 303 304 304 304 304 303 302 299 304 306 307 308 308 308 306 307 306 306 306 305 307 313 313 314 314 315 316 317 318 319 319 318 317 319
302 303 303 303 301 301 301 300 301 301 302 302 302 303 303 303 304 304 303 302 302 308 308 308 309 309 308 306 306 311 312 309 309 308 311 315 316 317 317 317 319 319 320 319 318 317 317
303 302 302 302 302 300 301 302 301 301 301 302 302 302 302 303 304 303 303 303 305 308 305 309 311 309 309 310 311 313 314 314 312 309 311 315 317 319 318 318 318 319 319 319 318 316 317
301 302 302 302 302 301 301 302 301 300 301 302 301 301 302 303 304 303 303 305 304 303 306 306 306 306 307 309 310 312 313 316 315 312 313 318 318 316 317 319 318 318 318 318 318 317 317
301 301 301 301 300 301 300 301 301 299 301 301 300 301 301 303 304 303 305 303 303 302 308 307 308 308 307 306 308 310 313 312 315 316 313 318 317 315 317 318 319 319 319 319 318 317 317
300 299 300 300 301 301 300 299 300 299 300 300 301 301 301 303 305 303 305 305 303 303 311 307 309 309 308 306 307 306 308 312 313 315 314 315 315 316 318 318 318 319 318 318 318 318 319
299 300 300 299 299 299 298 298 298 298 299 300 301 301 301 303 306 306 303 304 303 306 307 304 308 307 308 308 306 309 306 307 308 312 315 316 314 314 316 317 316 318 317 317 318 319 319
298 299 299 299 298 299 297 298 297 298 298 298 300 300 302 304 305 305 304 303 305 313 305 305 309 311 309 308 306 311 307 307 308 307 313 315 315 315 315 316 317 317 317 317 318 319 322
298 298 298 298 298 298 297 298 297 297 297 298 299 299 302 305 304 303 303 303 310 308 306 306 308 308 309 310 310 310 311 308 309 308 310 313 314 315 315 314 315 316 319 323 325 324 323
297 297 298 298 298 298 298 298 297 297 297 297 298 299 303 304 304 303 304 305 308 305 307 308 309 309 309 310 312 310 313 312 309 310 312 311 314 314 315 316 317 317 320 323 324 326 325
296 297 297 297 297 298 298 297 296 297 297 296 298 301 303 304 304 303 305 307 305 305 307 310 309 309 310 310 311 311 313 312 310 310 310 310 311 314 314 315 317 319 320 319 320 322 324
295 296 297 297 297 296 297 297 296 297 297 298 300 301 302 304 304 302 305 305 304 308 307 308 310 309 310 310 311 313 315 314 315 315 310 314 312 312 314 315 317 319 319 322 322 326 326
295 294 295 296 296 296 296 297 297 297 296 297 300 303 303 304 304 304 306 306 304 304 304 307 310 310 309 309 308 313 316 310 308 314 314 311 316 318 315 316 318 319 320 320 321 322 324
295 295 295 295 296 296 296 297 297 297 295 297 299 302 304 304 305 305 306 305 303 304 303 305 307 308 309 308 308 308 313 310 308 310 314 315 316 318 318 316 316 317 319 319 322 322 322
295 295 295 295 295 295 295 296 296 297 295 298 300 302 303 304 305 304 306 305 304 304 304 305 306 307 308 308 308 308 308 308 307 307 310 315 316 315 314 315 316 318 318 318 319 320 322
295 294 294 295 295 295 295 296 296 296 295 297 300 303 303 303 304 306 304 305 305 303 303 304 305 306 307 307 307 308 308 307 306 306 312 312 321 322 317 319 320 322 321 321 322 323 321
296 295 295 295 295 295 295 296 297 296 295 297 298 302 303 304 303 305 305 304 305 305 303 303 304 305 306 307 307 308 307 306 306 307 311 314 314 317 318 318 316 318 318 319 320 321 324
297 297 297 296 295 295 295 295 296 296 295 297 299 302 301 302 304 304 305 307 306 305 304 304 305 305 306 307 307 307 306 306 306 307 308 311 312 313 312 313 313 314 315 316 317 317 319
297 298 298 297 297 297 296 295 295 295 294 297 297 298 301 301 303 305 307 306 306 305 304 304 304 305 305 305 305 306 306 307 307 307 308 309 316 316 315 314 314 316 315 315 316 320 320
297 297 298 298 299 298 297 297 296 296 295 296 297 298 299 301 303 304 303 306 306 305 305 303 303 305 305 305 306 306 307 307 308 308 308 309 313 316 316 319 317 314 314 316 318 316 317
298 298 298 298 299 299 298 298 297 296 295 296 297 299 300 301 300 300 301 305 305 305 304 304 304 304 305 305 307 308 309 309 309 309 309 308 310 315 317 314 312 312 312 314 315 314 319
299 299 299 300 300 299 299 299 298 298 296 297 296 297 300 301 301 300 303 305 307 306 305 304 303 305 305 307 307 310 310 308 310 311 309 309 310 313 316 313 315 313 315 316 315 314 316
299 300 300 300 300 300 300 299 299 299 297 297 297 297 298 301 301 302 302 304 305 305 306 305 305 306 305 309 310 309 308 308 309 311 311 310 311 313 314 316 315 313 312 316 316 316 314
301 301 300 300 300 301 301 301 298 299 299 297 298 297 298 299 301 302 303 304 305 306 306 306 306 305 306 308 308 308 309 308 308 309 312 312 313 314 313 314 315 314 314 314 313 313 314
300 300 300 300 300 301 301 300 298 299 299 298 297 298 298 299 302 302 302 303 304 304 305 305 305 306 306 307 308 308 309 309 308 309 308 312 311 313 312 312 313 315 313 313 314 315 315

GFSGBSN_925_thetae_081.txt.gz
Theta_e
303 303 303 303 305 303 304 305 304 304 303 303 303 303 302 302 302 302 302 303 304 305 304 303 302 302 308 311 312 309 306 313 316 316 316 318 319 319 319 318 319 319 319 319 319 318 318
303 305 303 303 303 304 304 303 303 303 303 303 303 302 302 303 303 302 302 301 301 300 300 300 301 306 309 314 311 307 309 311 315 318 317 318 319 318 318 318 319 319 319 319 319 319 318
305 305 305 303 302 302 302 302 302 302 302 303 304 304 304 304 304 304 304 304 303 303 302 298 304 307 309 312 311 310 309 308 311 317 318 317 317 318 319 319 318 318 318 319 319 319 319
304 304 304 305 303 301 302 301 301 301 302 302 302 302 303 304 304 304 304 304 303 303 301 304 307 307 309 310 310 311 309 307 307 307 311 317 318 319 318 318 318 318 319 320 320 320 320
304 303 304 304 303 302 301 301 301 300 301 302 302 302 302 303 303 303 304 303 303 303 306 307 309 309 310 309 309 309 309 309 308 307 307 312 316 318 318 319 319 319 320 321 322 320 319
303 304 303 303 303 303 301 300 300 300 301 301 301 302 302 302 302 304 304 303 304 304 310 310 310 312 311 308 308 308 312 311 308 308 309 313 314 318 319 319 320 318 320 321 322 322 319
302 303 303 303 302 302 303 302 300 301 300 300 301 302 301 301 303 304 304 306 309 312 310 310 311 312 310 312 310 312 315 313 310 311 308 311 313 315 316 317 318 319 321 323 323 321 320
300 301 302 302 302 303 303 302 300 300 300 300 301 301 301 301 303 304 305 307 307 304 308 308 308 308 306 308 310 312 314 315 316 314 311 311 315 315 315 317 319 319 321 322 322 321 319
300 301 301 301 301 301 301 302 301 301 301 298 301 300 301 301 303 305 306 306 305 306 309 308 309 309 310 309 308 310 314 314 315 318 315 313 316 317 316 317 319 320 322 322 322 322 320
299 300 300 301 301 301 301 301 300 300 299 298 299 300 301 301 304 306 306 306 306 307 311 312 309 311 311 309 309 308 310 315 314 315 317 316 316 319 318 318 318 322 321 321 321 321 322
299 299 299 300 299 299 299 300 298 298 299 298 299 298 300 301 305 306 306 306 306 307 313 306 310 309 310 310 308 309 308 314 314 315 315 319 317 317 318 318 318 320 320 320 320 321 322
298 298 299 299 299 298 298 299 297 297 297 298 298 298 299 302 305 306 306 306 306 315 312 307 310 311 312 311 311 311 308 310 312 313 313 313 317 317 317 316 317 318 318 319 320 321 323
298 298 298 298 298 299 298 297 298 298 298 297 297 298 299 303 306 305 306 307 312 310 307 308 309 309 310 311 313 310 311 310 308 310 313 314 313 317 317 316 316 318 320 323 324 325 325
296 297 297 298 298 297 298 299 297 298 297 297 297 296 300 302 304 305 306 309 309 306 307 309 310 310 310 313 314 313 314 309 307 311 313 317 316 313 317 317 317 318 319 322 326 330 328
296 296 296 297 297 298 296 298 297 298 297 297 297 298 301 303 305 306 307 310 306 307 307 309 310 309 311 313 313 313 314 314 313 309 313 318 315 313 315 315 317 319 320 319 324 325 327
295 296 296 296 296 296 298 298 297 297 297 297 298 301 302 303 306 305 307 308 306 306 308 308 308 310 311 312 314 314 315 315 313 313 312 313 316 312 314 317 317 318 319 321 321 327 328
295 295 295 295 295 296 296 296 297 296 297 297 298 302 302 303 305 305 306 306 306 305 307 308 309 310 310 311 311 315 318 313 311 312 316 311 312 320 312 316 318 318 318 322 324 324 329
295 295 296 296 295 296 296 297 295 296 297 296 299 302 304 305 306 306 306 305 306 305 305 306 309 310 310 310 310 311 318 311 310 311 315 313 315 317 317 315 316 318 318 320 325 326 326
296 295 295 296 295 296 296 294 297 296 297 298 300 301 303 304 306 307 306 305 305 305 305 305 306 308 309 310 309 309 311 310 309 309 311 311 315 316 322 318 316 317 318 319 321 322 326
296 296 296 295 295 296 296 296 295 296 296 297 301 303 303 305 304 306 305 306 306 306 306 305 306 307 308 309 309 309 309 309 308 308 311 312 317 319 320 319 319 318 319 319 320 324 322
297 297 297 296 296 295 295 295 296 296 296 297 301 301 303 304 305 305 306 307 305 306 306 305 306 306 307 309 308 309 308 309 307 307 308 312 316 318 319 320 318 320 321 321 321 322 324
297 297 297 297 297 296 295 295 296 296 296 297 300 300 302 303 303 304 305 305 307 305 305 305 306 306 307 308 308 310 308 309 309 307 308 310 311 313 315 315 316 316 316 317 318 319 319
298 297 298 298 298 297 297 295 295 295 295 298 297 299 301 302 302 305 306 304 306 306 305 305 306 307 308 307 307 307 308 308 308 309 309 310 312 311 316 315 316 319 316 316 316 316 317
297 298 298 298 298 298 298 298 296 295 295 297 297 298 301 301 302 302 302 305 305 307 310 306 306 307 306 307 307 307 308 308 308 309 309 310 311 313 316 316 318 315 315 315 317 317 318
297 298 298 298 298 298 299 299 298 296 296 296 297 299 300 302 300 301 302 304 306 306 307 307 305 305 306 308 309 308 310 310 310 309 310 310 311 313 315 313 312 312 313 313 314 316 319
298 298 298 299 299 299 299 298 299 298 296 297 297 297 300 301 301 300 301 302 303 305 307 307 306 306 306 308 310 310 311 310 312 311 310 310 311 313 315 315 313 311 314 315 315 316 317
299 299 299 299 300 300 301 300 299 298 297 296 297 297 299 301 300 301 301 301 303 305 308 307 307 306 305 310 310 310 312 310 312 313 312 313 313 314 314 315 313 315 314 315 317 317 315
300 300 300 301 300 300 300 300 300 299 298 298 297 297 299 301 300 301 302 304 303 306 308 307 308 307 306 311 310 310 311 310 309 310 313 313 315 315 314 316 315 312 313 315 317 315 315
300 300 300 300 300 300 300 300 301 300 298 298 297 297 297 301 300 299 300 301 303 304 305 306 306 307 307 308 308 309 312 310 310 311 312 315 311 313 311 312 314 316 315 315 315 315 315

GFSGBSN_925_thetae_084.txt.gz
Theta_e
306 305 305 304 304 304 306 306 304 303 303 303 304 304 303 303 305 305 304 303 303 303 303 302 302 304 305 310 313 311 311 310 315 315 317 315 318 319 319 319 319 319 319 319 320 320 319
306 306 305 305 305 304 303 303 302 303 302 302 302 305 305 303 304 305 305 304 304 304 303 303 303 304 308 308 310 313 312 309 310 316 318 318 318 319 319 320 319 319 319 319 320 319 319
305 305 305 305 305 304 302 301 302 301 301 301 302 303 302 302 303 303 303 303 304 303 303 303 303 307 309 307 308 310 311 310 309 311 318 319 318 319 319 319 319 319 319 319 320 320 320
305 305 305 304 303 304 303 301 301 301 301 301 301 302 302 302 302 302 302 303 303 302 303 303 306 309 310 307 308 310 312 312 312 309 311 315 316 319 319 320 320 320 319 319 320 319 320
303 303 304 305 303 303 303 302 301 301 300 301 301 301 302 302 302 301 302 303 302 303 304 306 309 310 310 309 311 311 310 311 313 311 309 308 310 317 320 320 320 319 320 320 320 320 321
302 302 303 304 303 303 304 304 302 301 300 301 300 301 302 302 301 301 303 304 305 307 307 310 311 312 312 311 310 310 311 311 312 312 311 308 310 313 318 320 323 321 321 320 321 321 322
302 301 301 302 303 303 302 303 303 301 300 301 300 300 301 301 301 301 304 308 311 311 312 313 313 313 311 311 311 312 313 315 313 311 312 311 311 313 314 320 320 320 320 320 320 322 323
301 301 301 301 302 302 302 303 302 302 300 300 300 299 301 300 300 301 304 310 308 306 309 308 307 307 307 307 307 309 310 316 314 314 314 315 313 312 312 314 318 320 319 320 322 322 322
301 301 300 300 300 302 301 302 301 301 300 300 299 299 299 300 300 303 308 307 307 307 310 308 310 310 310 310 309 308 308 314 317 318 319 319 317 313 313 315 315 317 320 320 321 322 322
299 299 300 299 300 299 299 300 300 301 300 299 298 298 298 300 303 307 307 307 307 307 312 313 311 311 311 310 310 310 309 313 315 316 318 320 317 315 316 318 319 319 319 320 321 322 325
298 298 298 299 300 300 300 298 299 300 300 299 297 298 298 298 303 305 307 307 307 308 316 311 309 311 311 311 311 310 309 310 315 316 316 320 318 319 319 319 321 321 319 321 322 323 324
298 298 298 298 299 299 300 299 298 298 299 299 298 297 297 300 303 304 306 307 308 313 315 308 311 312 312 312 313 311 309 310 314 315 315 316 314 315 320 319 319 320 322 321 322 323 326
298 298 298 298 298 298 298 297 299 298 298 298 297 297 298 300 303 306 306 309 314 313 308 309 310 310 310 310 311 311 311 309 312 315 315 314 315 314 313 320 319 318 321 326 327 326 327
297 297 297 297 297 298 297 298 297 299 297 298 297 297 299 299 301 304 307 310 311 308 310 310 310 310 310 312 313 314 312 313 310 310 310 317 320 316 315 315 320 319 319 327 330 332 327
296 296 297 297 296 296 297 297 297 297 298 298 297 299 299 299 302 305 308 310 308 308 308 308 309 308 308 312 313 314 314 315 312 310 310 316 319 315 315 315 318 321 321 319 323 323 330
296 296 296 296 296 296 297 295 297 298 296 297 298 299 300 300 302 306 308 307 308 307 307 308 307 308 310 312 312 314 315 315 315 312 310 311 316 314 316 314 316 319 319 323 324 329 337
296 296 296 296 296 296 296 297 296 296 298 297 299 301 300 300 304 307 310 306 306 307 307 308 308 309 310 310 311 312 319 314 311 312 314 311 313 313 314 317 320 319 322 323 325 325 337
296 296 296 296 296 296 295 296 296 296 297 297 299 301 302 304 307 306 307 305 304 305 306 305 307 308 310 311 311 312 319 312 310 310 314 316 316 314 313 317 316 319 320 321 329 333 328
296 297 297 297 296 296 296 295 295 295 296 298 300 300 299 305 306 307 305 305 305 306 306 305 306 307 307 309 309 311 311 312 310 309 309 310 315 315 316 315 316 316 319 320 321 325 331
296 297 297 297 297 296 296 296 295 295 296 295 301 302 301 306 306 305 306 306 305 305 305 306 306 306 307 308 309 310 310 310 309 308 309 310 314 317 323 322 323 319 317 321 322 326 328
297 297 297 297 297 297 297 296 296 296 296 296 299 301 302 305 305 305 305 308 306 305 306 305 306 306 306 307 307 308 308 308 309 308 308 310 315 314 314 320 320 323 322 323 320 323 325
297 297 298 297 297 298 297 296 295 296 296 296 300 299 300 302 304 304 305 305 306 307 306 306 306 305 306 306 306 307 309 310 312 310 309 309 312 312 313 315 315 316 319 317 323 323 322
297 297 297 297 297 298 298 297 295 294 295 296 298 299 300 302 302 304 306 304 304 305 306 306 307 305 305 306 309 309 310 309 310 309 310 310 311 312 314 313 316 320 318 317 316 316 317
297 297 297 297 298 298 297 297 297 295 295 296 298 299 301 301 301 303 302 304 304 304 305 306 308 309 308 308 308 308 308 308 308 308 309 310 310 312 315 314 321 316 316 316 317 316 316
296 297 298 298 298 298 298 298 298 297 296 296 296 299 300 301 300 300 301 303 303 306 307 307 307 308 308 308 309 309 309 309 310 309 309 310 311 315 316 315 313 312 312 312 313 314 319
296 297 298 298 298 298 298 299 299 297 297 296 297 298 300 301 301 300 301 302 303 305 306 308 307 307 307 307 309 309 310 310 311 311 310 310 312 314 316 314 314 310 311 314 314 314 317
298 299 299 299 299 299 299 299 299 299 297 297 297 297 299 301 300 300 301 301 303 304 305 306 308 307 306 310 311 309 310 310 312 313 313 312 314 315 315 316 313 312 314 314 316 319 317
299 300 300 300 300 299 300 300 300 300 298 298 297 297 298 300 299 300 301 302 303 303 306 307 306 307 306 309 311 309 311 312 312 311 313 313 315 315 314 315 316 313 313 316 318 316 315
300 300 300 300 300 301 300 301 300 301 300 298 298 297 298 299 299 299 299 300 301 303 303 304 306 307 306 308 308 309 313 314 311 311 312 314 312 313 312 312 312 316 317 315 315 315 314

GFSGBSN_925_thetae_087.txt.gz
Theta_e
307 307 306 306 306 306 305 305 303 302 302 302 302 302 303 306 305 305 304 304 303 303 303 303 304 306 302 307 310 308 310 311 313 314 318 317 311 312 314 316 315 316 316 316 317 317 317
306 306 306 306 305 304 306 305 303 301 302 301 301 301 302 302 302 302 302 302 302 302 303 303 305 307 307 306 304 306 308 310 312 311 315 315 315 314 316 317 317 317 317 317 316 316 316
305 305 305 305 304 303 304 304 302 301 301 301 300 301 301 301 302 302 301 301 301 302 303 303 305 307 307 306 304 305 307 309 310 312 309 312 317 316 315 316 317 318 317 317 317 316 316
304 303 303 303 304 304 303 303 303 302 301 300 300 300 301 301 302 302 301 300 300 302 302 303 307 308 309 304 304 307 308 309 312 312 312 310 308 310 315 317 318 318 317 317 317 317 316
304 304 302 303 304 304 303 303 303 302 301 300 300 301 300 300 301 301 300 300 301 303 305 306 307 309 311 310 309 310 310 310 311 312 313 311 308 308 311 317 317 318 318 317 317 316 316
303 303 303 302 302 303 303 303 302 303 303 300 300 300 300 300 301 300 300 301 307 307 308 308 309 311 312 312 311 311 311 310 310 311 311 309 305 306 310 316 321 319 318 316 316 317 318
302 302 302 302 301 302 303 303 303 302 302 301 300 300 300 299 300 300 300 302 306 309 309 313 313 312 311 312 309 307 311 315 313 310 310 309 305 305 310 313 318 319 320 320 317 318 319
300 300 301 301 300 301 301 302 302 301 301 301 300 300 299 298 299 299 300 305 306 305 307 307 307 307 309 307 306 306 306 310 312 311 310 310 309 307 309 312 314 316 320 320 319 319 319
300 300 300 300 300 300 301 301 300 301 300 301 299 298 298 298 299 300 306 308 307 307 307 307 308 308 308 308 308 307 306 306 312 315 315 315 316 316 314 313 314 314 315 315 318 318 319
298 298 299 299 299 300 300 299 300 299 299 300 299 298 297 298 299 302 305 306 307 306 309 310 310 309 309 309 310 309 309 306 313 315 317 319 318 319 318 316 314 316 315 317 321 324 326
298 298 299 299 299 298 300 300 300 298 298 299 299 299 298 298 298 302 304 306 307 307 314 314 310 309 311 310 311 309 310 307 310 316 316 317 319 319 321 318 316 316 318 320 322 324 324
298 298 298 298 298 298 299 297 297 297 298 298 298 298 297 297 300 301 304 306 307 312 314 308 311 311 311 311 312 309 308 308 311 312 315 315 313 315 318 318 317 317 321 323 322 324 330
296 297 297 297 297 298 298 298 298 298 297 297 298 298 298 298 299 303 303 307 310 313 311 308 311 311 310 310 311 310 308 308 311 314 314 312 313 313 314 316 316 322 324 330 330 330 327
296 296 296 297 297 297 297 297 298 297 298 297 297 298 297 298 299 298 302 309 312 311 311 310 309 309 309 309 311 311 308 307 308 311 309 312 317 313 314 315 320 321 324 329 329 330 330
297 297 297 297 296 297 297 296 298 297 297 297 298 298 298 298 299 299 305 308 310 308 309 309 308 308 308 309 312 314 311 312 309 308 309 313 317 315 315 316 315 321 323 320 325 324 330
296 296 296 296 297 297 297 297 297 296 296 297 297 298 299 299 299 301 307 307 305 307 307 308 308 307 308 312 312 317 317 314 314 309 307 309 313 314 314 315 317 319 321 325 324 328 332
296 296 296 297 296 296 297 297 296 297 296 297 297 299 299 299 300 303 306 307 306 306 306 307 308 308 309 310 311 311 319 314 310 310 310 310 312 313 313 317 318 318 322 324 323 326 334
296 296 297 297 297 297 297 296 295 297 296 297 298 297 300 303 303 305 306 306 305 305 305 306 306 307 308 309 310 311 317 313 309 309 309 311 315 315 312 313 315 318 320 323 329 326 328
296 296 297 297 297 297 297 296 295 295 296 297 300 297 299 302 301 305 305 306 306 306 305 306 306 306 306 307 309 310 314 312 310 309 308 307 316 319 317 315 315 316 320 321 322 323 328
296 296 297 297 297 297 297 296 296 295 294 296 296 296 297 300 300 304 304 305 305 305 305 305 305 306 306 306 307 310 311 311 309 309 307 309 313 316 321 322 317 322 321 321 324 327 324
296 296 296 297 297 298 297 297 296 295 295 296 296 299 299 294 303 303 305 308 308 306 305 305 305 305 306 307 307 307 308 309 311 310 308 310 313 314 314 314 318 318 321 321 324 323 327
296 296 296 297 297 297 297 297 297 296 295 295 297 297 297 299 301 304 304 304 304 305 306 307 307 306 305 305 305 306 310 311 311 311 309 309 312 312 312 312 314 320 319 319 319 323 325
296 297 296 297 297 297 297 297 297 296 295 295 296 295 298 299 300 302 302 304 304 304 304 304 306 307 309 308 308 308 308 308 309 310 310 310 311 313 315 313 312 318 318 320 319 320 320
296 296 297 297 297 298 298 298 298 297 295 295 296 296 297 295 298 300 302 302 303 304 305 305 306 307 308 305 307 308 308 308 308 309 309 309 310 312 311 310 317 318 316 316 316 318 318
295 296 297 297 297 297 298 298 298 297 296 295 295 297 297 295 298 299 300 300 301 303 304 306 306 306 306 307 307 308 307 308 308 308 308 308 309 309 312 314 313 311 312 313 312 320 319
295 296 297 298 298 298 298 298 299 298 297 297 295 297 297 298 297 299 299 301 301 302 304 305 305 305 307 305 306 307 308 309 309 310 308 308 308 310 310 315 312 312 313 314 316 321 318
295 297 298 299 299 299 299 298 298 299 298 297 296 296 297 297 298 298 300 301 301 302 304 303 305 305 305 304 304 305 307 308 310 312 311 309 309 311 311 313 314 312 313 314 318 318 315
297 298 298 299 300 300 300 300 299 299 299 298 297 296 297 297 297 298 299 300 301 302 301 304 302 305 304 304 305 305 304 308 310 311 313 310 311 311 311 311 312 314 315 318 317 315 313
298 299 299 299 299 300 300 300 300 300 299 299 298 296 297 297 297 297 298 298 299 301 303 303 306 303 305 304 305 305 306 309 311 314 313 312 310 311 310 310 313 314 314 313 313 311 311

GFSGBSN_925_thetae_090.txt.gz
Theta_e
306 306 306 306 306 305 306 306 305 304 302 302 302 301 300 303 304 305 304 302 301 301 301 301 304 307 306 305 308 305 307 308 310 314 318 316 310 308 311 312 313 314 315 315 314 314 314
305 305 305 305 305 306 305 304 305 303 302 301 301 301 300 301 303 304 303 302 301 300 300 301 305 306 306 305 302 304 306 306 307 314 314 316 316 310 311 314 313 315 315 315 314 314 314
305 305 304 303 303 303 304 304 303 303 303 301 301 301 300 300 300 301 301 301 301 300 300 301 304 307 306 305 301 303 303 306 308 309 310 310 312 315 314 315 316 315 316 316 316 314 313
303 303 304 303 303 303 302 303 303 303 302 302 301 300 301 301 300 300 300 301 300 299 300 302 306 307 306 303 301 305 307 306 308 311 311 312 310 307 311 314 317 317 316 317 317 315 314
304 303 303 303 303 302 301 301 302 302 302 303 302 300 299 300 300 299 300 300 299 302 303 305 307 306 307 305 310 310 309 308 310 309 311 312 309 306 308 314 317 316 317 317 317 315 314
303 303 303 302 302 302 302 302 302 302 302 302 302 301 299 299 299 299 299 299 306 307 307 309 308 309 308 309 309 309 309 310 309 310 310 310 305 304 307 314 319 318 317 316 315 316 315
301 302 301 301 301 302 301 301 302 301 302 302 301 301 300 299 298 298 298 299 304 305 306 310 310 310 309 311 309 308 307 311 311 309 310 308 303 304 306 309 314 316 317 318 317 318 319
300 300 300 301 301 301 301 301 302 300 300 300 299 301 299 298 297 297 298 303 307 306 307 306 306 306 309 309 308 308 307 306 312 310 309 309 307 305 306 309 311 313 315 317 318 318 318
298 298 298 299 299 300 300 301 301 301 300 298 299 300 299 298 297 298 300 303 306 307 305 306 306 306 306 306 308 308 305 305 306 310 309 309 313 311 309 310 310 313 314 314 316 318 317
299 299 299 299 299 299 299 300 300 300 301 298 298 300 298 298 297 299 299 303 305 306 306 307 309 308 308 308 308 307 306 305 306 310 315 315 317 319 319 319 316 315 313 314 315 323 323
298 298 298 298 299 299 299 299 299 299 298 297 298 299 298 298 298 299 298 302 305 307 307 310 310 309 309 309 310 308 307 305 307 315 315 316 319 318 319 320 317 317 313 315 318 323 323
296 296 297 297 298 298 298 298 298 299 297 297 297 297 298 298 297 297 299 300 306 310 309 313 310 309 310 311 311 308 307 306 307 314 314 313 313 315 315 315 317 317 317 320 320 324 326
296 296 297 296 297 297 297 298 298 298 297 298 297 297 298 299 297 297 298 301 309 311 309 311 311 311 312 312 311 307 308 308 310 312 313 312 312 312 315 316 316 319 323 327 327 328 323
297 297 297 297 297 297 297 297 296 297 297 297 297 297 297 298 297 297 299 307 308 308 310 309 310 311 311 310 310 308 307 307 309 310 307 310 310 311 313 314 317 316 323 329 326 327 325
296 297 296 297 297 297 297 297 297 296 297 296 297 296 297 297 298 298 300 308 306 307 307 306 308 307 307 308 310 310 308 308 307 309 309 309 314 314 313 315 315 318 322 320 325 325 327
296 297 296 296 297 297 297 297 297 297 297 296 297 297 297 297 298 299 302 306 305 305 306 306 309 309 310 311 315 317 316 313 311 308 307 308 311 311 315 315 316 317 319 325 324 327 331
295 296 296 297 297 297 297 297 297 296 297 296 297 297 298 299 298 300 303 305 305 305 305 305 306 307 308 308 310 316 318 315 309 309 309 310 309 312 311 316 319 320 322 320 323 325 329
296 296 296 297 297 297 297 297 297 295 295 296 296 296 298 299 297 299 301 306 305 306 305 306 306 306 307 307 308 311 317 314 308 308 308 308 312 311 311 310 316 318 321 321 328 326 327
296 296 296 296 297 297 297 297 297 295 295 296 298 295 298 300 298 300 304 305 305 305 305 305 305 306 305 306 307 312 314 310 309 308 307 307 312 317 315 316 316 318 318 319 322 322 326
295 296 296 296 297 297 297 297 297 295 295 296 295 296 293 297 299 301 302 304 304 304 304 305 305 305 306 306 306 307 312 312 309 308 309 308 310 315 319 318 318 319 317 319 321 325 322
295 296 296 296 296 297 297 297 297 295 295 295 294 291 298 301 301 298 301 305 306 305 305 306 305 305 305 305 305 305 307 308 309 310 307 309 311 313 313 312 317 319 318 318 322 322 327
294 295 296 296 296 297 297 297 297 296 295 295 294 295 297 297 300 301 303 304 305 304 305 305 306 307 307 308 307 306 309 309 310 310 309 308 309 310 311 311 312 311 318 319 319 321 323
294 295 296 296 296 297 297 298 297 296 295 295 294 294 294 296 298 298 301 302 303 304 304 304 304 306 308 308 306 306 306 307 308 309 308 309 310 311 312 311 308 313 317 320 316 320 318
294 295 296 296 296 297 298 297 298 297 296 294 295 294 293 293 296 298 299 300 300 301 304 304 305 306 307 306 305 306 306 307 307 308 307 308 308 309 311 310 309 312 311 315 319 321 317
294 295 296 296 296 297 296 297 298 298 297 295 295 295 294 291 296 297 298 299 300 300 302 303 305 306 305 306 306 307 306 306 307 307 307 307 307 307 310 312 311 308 310 313 317 320 319
294 295 295 296 296 297 298 298 298 298 298 296 294 295 295 297 295 297 298 298 298 299 300 304 304 302 304 304 305 308 307 308 308 308 307 306 306 307 308 312 311 310 312 313 316 321 317
294 295 295 296 297 298 299 299 298 298 298 297 296 294 295 294 294 296 298 300 300 300 300 301 303 303 302 301 303 307 306 307 307 310 311 309 307 309 308 309 311 312 314 315 317 318 314
294 295 296 297 298 299 299 300 299 298 298 298 297 296 295 293 295 296 297 298 300 302 302 302 299 303 303 304 305 305 302 306 308 308 310 311 311 310 308 311 311 313 315 318 314 311 311
294 295 297 298 299 299 299 300 300 299 299 299 298 296 295 295 295 296 296 296 297 299 299 301 303 304 304 305 303 304 302 301 307 309 312 314 310 310 308 308 311 310 310 309 309 309 308

GFSGBSN_925_thetae_093.txt.gz
Theta_e
305 305 305 305 305 305 306 306 304 304 304 303 302 301 301 303 303 303 302 301 301 302 304 304 305 306 304 304 305 303 307 303 307 313 313 313 309 308 308 309 313 314 314 313 313 312 311
305 305 305 304 303 304 304 303 304 303 302 303 303 301 301 302 303 302 301 300 300 300 302 304 305 306 305 304 301 302 304 305 304 314 316 315 312 308 308 309 311 313 314 315 314 313 313
303 303 304 304 303 302 302 302 301 303 302 302 303 302 301 300 300 300 299 299 299 299 300 303 305 305 305 303 301 302 301 301 303 308 311 312 314 313 312 313 313 314 315 314 313 313 313
303 304 304 303 303 303 302 302 302 303 304 303 302 303 302 300 299 299 298 298 298 298 299 303 305 306 306 304 302 303 301 306 307 306 307 310 311 307 308 310 314 316 315 316 315 314 314
302 303 303 303 303 303 302 302 301 302 303 303 302 301 301 301 300 299 298 297 298 300 304 305 306 306 306 305 307 306 308 307 307 307 308 311 309 307 306 309 314 314 316 316 316 314 315
301 301 302 301 301 302 302 302 301 302 301 301 301 300 300 300 300 298 297 297 303 307 307 306 307 307 307 308 310 308 307 308 308 309 309 309 305 303 306 312 315 316 316 315 315 315 316
300 300 300 300 301 301 301 301 301 301 301 301 301 299 299 300 298 298 297 299 304 304 307 309 309 308 309 310 309 307 306 306 308 308 309 306 305 305 303 310 313 315 315 316 315 315 318
298 298 298 299 299 300 300 300 301 301 301 301 301 300 300 300 299 297 299 302 305 303 307 306 305 307 308 309 310 309 307 306 312 311 308 308 305 304 304 306 308 311 312 313 315 316 316
298 299 299 299 299 299 299 299 300 300 300 300 300 299 298 299 298 298 297 298 301 301 306 306 306 306 306 306 308 308 307 304 306 310 308 309 311 310 306 306 307 307 309 312 314 315 316
296 297 298 298 298 298 299 299 299 299 299 299 299 298 297 299 298 298 297 298 302 301 305 305 306 306 305 305 306 307 306 304 305 307 310 310 313 318 318 318 316 317 312 313 314 319 316
296 296 296 297 297 298 298 298 298 298 298 299 297 297 297 298 299 298 297 297 299 303 306 305 309 307 306 305 308 306 305 305 307 313 314 316 318 318 318 318 317 317 315 315 313 320 322
295 295 296 297 297 297 297 297 297 298 298 298 296 297 297 298 298 297 297 297 302 306 306 308 308 309 308 308 310 306 306 305 306 313 313 313 314 315 315 315 317 317 317 317 319 321 322
297 297 297 298 297 297 297 297 297 297 296 296 296 297 297 298 297 298 297 300 305 307 305 310 310 310 309 311 311 307 307 309 308 312 314 312 313 312 315 316 315 318 319 317 324 323 321
297 297 297 297 297 297 297 297 297 297 297 296 296 296 297 296 297 298 297 303 305 304 307 308 307 310 312 311 311 307 307 308 309 308 309 312 309 312 313 314 315 318 319 322 323 324 324
296 297 297 297 296 297 297 297 297 297 297 297 296 296 296 296 296 297 298 303 304 307 307 307 306 310 310 309 310 307 308 306 307 308 309 309 311 311 312 313 314 317 320 320 324 324 326
296 296 296 296 297 297 297 297 297 297 296 296 296 296 295 297 297 297 298 304 304 305 306 307 308 308 308 309 313 311 314 312 309 308 306 308 310 312 314 315 314 317 318 324 324 327 330
296 295 296 296 297 297 297 297 297 297 296 295 296 295 296 297 298 299 296 303 303 304 304 307 306 306 308 308 310 316 317 313 308 308 308 309 308 310 314 316 317 318 320 319 322 324 329
295 295 296 296 296 297 297 297 297 296 295 295 295 296 296 298 294 296 295 301 303 305 304 305 306 306 305 308 309 315 317 313 308 308 309 307 311 311 310 309 315 317 318 320 323 327 324
295 295 296 296 296 297 297 297 297 296 295 296 296 297 296 298 299 290 297 302 302 304 304 304 305 306 305 306 308 313 313 310 308 307 308 308 312 314 314 315 315 318 318 317 318 320 323
295 294 295 295 296 296 297 297 297 296 295 295 294 292 292 296 298 300 299 300 302 304 303 304 305 305 305 305 306 307 311 311 309 307 309 307 309 313 314 315 314 317 317 318 319 323 323
294 294 295 296 296 296 296 297 298 296 295 295 294 291 295 297 300 297 299 302 304 305 305 306 306 307 307 306 306 306 308 307 308 309 307 307 309 311 312 314 313 316 317 318 319 320 323
293 293 294 295 296 296 297 297 298 296 295 294 293 294 295 297 299 302 301 302 304 305 304 304 304 306 307 308 308 308 308 307 309 308 308 307 307 309 309 310 312 313 309 308 316 319 320
294 293 294 295 296 296 297 297 297 297 295 294 293 293 293 294 296 298 300 300 302 302 304 304 305 305 305 307 306 305 305 306 307 309 307 308 308 309 310 308 308 308 311 312 318 317 319
293 292 294 295 296 296 297 297 298 297 295 294 294 292 290 291 295 296 297 298 300 300 302 303 303 305 306 305 304 304 305 306 306 306 306 307 307 307 309 307 307 306 306 317 318 318 317
292 293 294 295 296 296 296 296 297 298 297 294 294 293 292 291 295 296 296 298 298 299 301 305 305 305 303 305 304 306 305 305 305 306 306 306 306 305 307 308 305 306 310 312 313 316 319
292 293 294 295 295 295 296 297 297 297 298 296 294 295 293 292 292 296 296 297 298 299 299 302 302 301 303 302 303 307 307 307 307 307 306 305 305 306 306 309 306 309 313 313 315 319 317
291 293 293 294 295 296 297 298 298 298 298 298 296 294 294 292 292 294 297 298 299 299 299 299 302 303 301 301 305 306 307 306 307 309 310 306 305 308 308 309 308 308 312 314 315 314 313
291 293 293 294 295 296 297 298 299 299 298 299 297 296 294 290 293 294 295 295 299 299 301 300 297 300 302 301 303 304 303 305 307 306 308 307 307 306 307 310 308 309 312 315 312 309 310
292 292 293 295 296 297 298 299 300 300 299 298 298 297 295 295 293 295 295 295 296 298 296 298 300 302 304 305 303 304 301 299 305 307 308 307 308 310 306 306 310 308 308 307 306 304 303

GFSGBSN_925_thetae_096.txt.gz
Theta_e
305 305 305 304 304 304 304 304 304 303 303 303 303 303 304 304 303 303 300 299 300 301 302 303 304 305 305 303 303 300 300 302 310 313 311 310 308 307 307 307 310 313 313 312 312 311 311
304 303 303 304 304 303 303 303 302 303 303 303 303 303 304 303 303 302 300 299 299 299 301 302 303 304 305 304 301 301 302 303 303 314 317 312 310 307 308 307 309 311 313 313 313 313 313
303 303 304 303 303 303 303 302 302 302 302 303 303 302 302 303 303 303 301 299 298 298 299 302 303 304 303 303 300 301 301 302 301 301 311 313 314 314 308 310 310 311 311 310 311 312 312
302 303 303 303 303 302 302 302 302 302 302 302 302 302 300 300 299 300 299 298 298 297 298 302 304 304 304 303 303 302 302 302 301 303 305 308 309 308 309 308 310 315 314 315 314 312 313
300 301 302 302 301 301 301 302 302 301 301 302 302 302 300 299 299 300 299 298 297 300 306 306 305 305 305 304 306 304 306 304 306 306 305 307 307 306 305 307 310 313 315 315 315 312 314
300 300 300 300 301 301 301 301 301 301 301 301 301 302 300 299 300 300 298 297 303 307 305 305 306 305 303 304 309 309 306 306 307 305 307 307 305 303 303 306 309 313 315 313 314 313 314
299 298 298 299 299 299 300 300 300 300 300 301 301 301 301 298 299 299 298 301 302 303 303 304 306 306 306 308 309 308 306 306 307 307 308 306 307 306 306 308 310 313 314 315 314 314 317
298 298 300 300 299 299 299 300 299 299 300 300 300 300 300 300 298 298 298 296 298 299 302 303 304 305 305 306 308 308 307 305 310 311 307 306 307 307 305 304 306 308 310 310 311 312 315
297 296 298 298 298 298 298 299 299 299 299 299 299 299 299 298 297 298 297 297 297 298 304 305 305 305 306 306 307 307 307 305 311 311 308 309 310 307 304 304 305 305 306 307 309 312 312
296 296 296 297 297 297 298 298 298 298 298 298 298 299 298 297 298 298 297 297 297 299 306 303 305 305 305 305 307 305 307 304 305 311 309 309 309 314 311 310 307 313 310 310 312 313 314
296 295 296 297 297 297 297 297 298 297 297 298 298 298 298 298 299 298 297 297 297 302 305 302 306 305 305 303 304 306 305 303 304 307 312 312 317 316 317 316 315 316 315 316 315 313 320
295 296 297 297 298 298 297 297 297 297 298 297 298 297 298 297 298 297 297 297 300 305 303 305 308 307 305 304 308 305 304 304 307 313 313 313 313 314 314 315 316 316 316 316 317 318 319
296 297 297 297 297 297 297 297 297 297 297 297 297 297 297 298 296 297 297 298 304 305 302 308 307 306 307 309 309 307 306 307 308 311 313 313 314 313 314 315 315 317 315 312 317 321 317
295 296 297 297 297 296 297 297 297 297 297 297 297 295 294 295 296 297 297 299 302 301 303 307 307 306 308 310 310 307 308 307 308 307 310 311 309 313 313 314 314 318 315 314 322 323 322
294 296 296 296 297 297 297 297 297 297 297 297 295 295 295 296 296 297 293 298 299 305 309 309 308 309 311 310 310 307 307 307 307 306 308 310 309 309 312 312 312 317 318 317 322 317 322
294 296 295 296 296 297 297 297 297 297 297 297 295 295 295 296 296 296 293 297 302 303 306 307 310 308 310 307 310 311 312 311 308 308 306 307 310 312 314 313 313 315 317 321 321 324 324
294 295 295 296 296 296 297 297 297 297 296 295 295 294 295 297 297 297 295 296 300 302 305 306 308 309 309 308 312 316 315 310 308 308 307 308 308 310 314 315 316 316 317 318 321 323 328
295 295 295 296 296 296 297 297 297 297 296 295 294 294 296 297 299 293 291 298 300 300 304 305 305 309 308 307 314 315 316 312 307 308 309 307 310 311 311 310 313 315 317 317 323 323 324
294 295 295 295 296 296 296 297 297 297 296 295 293 294 295 297 297 298 296 298 300 301 300 304 304 306 305 307 311 312 312 310 309 307 308 309 313 314 316 314 313 317 317 317 317 318 317
295 295 294 295 296 296 296 296 297 297 296 295 293 292 289 297 299 299 299 298 298 302 303 303 304 305 307 307 307 308 310 310 308 307 310 308 310 311 312 313 312 315 316 316 320 320 320
294 294 294 294 295 296 296 296 297 298 296 294 293 291 293 293 298 296 299 299 300 301 304 304 306 306 307 308 308 308 309 307 308 309 307 307 308 310 310 310 313 313 314 315 317 318 320
292 292 293 293 295 296 296 296 297 297 296 294 288 292 295 296 295 296 299 299 301 302 305 306 305 305 307 308 307 308 307 307 308 307 307 306 307 308 309 308 311 312 309 307 308 309 313
293 292 293 293 295 295 296 296 297 297 295 292 292 293 292 293 294 296 299 298 298 301 302 303 303 305 304 306 305 305 305 305 306 307 306 307 307 308 309 308 307 305 306 315 315 317 318
293 292 293 292 294 295 296 296 297 298 296 294 293 291 289 290 294 296 295 297 297 298 301 302 305 304 305 303 303 303 303 304 305 306 306 306 307 307 309 307 305 302 303 314 314 317 317
292 292 292 293 294 295 296 296 296 297 298 295 294 293 292 292 294 295 296 296 296 296 300 302 304 304 301 302 303 304 304 304 304 305 305 305 305 306 307 308 305 305 310 313 314 315 319
292 293 292 293 294 295 295 295 296 296 297 296 294 294 294 292 291 294 295 295 295 299 298 300 300 300 301 301 302 305 305 306 306 305 305 304 304 306 306 308 304 303 311 310 312 316 313
292 294 292 292 294 295 294 295 297 297 297 298 296 294 294 293 292 293 296 298 298 298 298 298 300 302 299 299 303 305 306 305 305 308 309 306 305 308 307 309 308 307 309 310 314 313 310
292 292 291 292 293 294 294 296 297 297 298 298 297 295 294 289 291 293 293 293 294 298 299 297 295 300 300 302 303 304 303 304 306 305 307 306 307 305 307 309 307 308 309 311 309 304 305
292 292 291 292 293 294 295 296 296 298 299 299 298 297 294 294 292 294 294 294 295 297 295 295 299 302 302 304 304 304 304 301 305 307 306 306 309 310 307 306 308 306 306 303 301 300 299

GFSGBSN_925_thetae_099.txt.gz
Theta_e
304 304 304 305 304 304 303 303 302 302 302 303 303 303 303 304 304 304 303 302 302 302 302 302 302 303 303 304 304 300 301 301 303 309 309 309 309 311 313 312 314 314 314 313 313 314 313
304 304 303 303 303 303 303 302 302 302 302 302 303 303 303 303 303 303 303 301 299 298 300 302 302 303 303 303 300 300 301 302 302 314 312 310 310 309 309 309 310 311 313 313 313 314 314
303 303 304 303 303 302 302 302 301 302 302 302 302 302 302 302 300 299 300 299 298 298 298 302 302 303 303 302 299 300 301 301 301 302 305 313 311 309 309 310 309 310 311 311 310 312 313
301 302 303 302 302 301 301 301 302 302 301 301 302 302 301 299 297 298 298 298 298 297 300 305 306 303 304 301 301 302 302 303 301 301 302 302 308 314 312 310 310 315 315 317 315 313 313
300 300 301 301 301 301 301 301 301 301 301 301 301 301 301 298 296 297 297 297 298 303 305 305 304 304 305 303 304 306 305 303 304 302 302 306 307 309 306 310 310 313 316 316 316 314 315
299 299 299 299 299 299 299 300 300 300 300 300 300 300 300 300 298 297 297 297 302 307 305 305 305 305 304 303 308 309 307 305 306 305 306 306 308 309 306 308 311 311 315 316 316 315 315
298 298 299 299 299 298 299 299 300 299 299 299 299 299 300 300 300 297 297 297 298 301 299 300 301 304 304 304 306 308 307 307 308 306 307 308 310 311 309 310 309 312 314 316 315 315 316
298 297 297 298 298 298 298 298 299 299 299 299 299 299 299 299 298 297 297 297 298 297 300 300 301 302 302 303 305 305 307 307 309 308 307 308 311 309 308 308 309 310 311 311 311 312 313
297 297 297 297 297 297 297 297 298 298 298 298 298 298 298 298 296 298 297 297 297 297 302 302 302 303 304 304 305 305 306 306 312 311 309 310 312 308 308 307 308 308 309 309 309 309 312
297 296 296 296 297 297 297 298 298 298 298 298 298 298 298 298 297 297 297 297 297 298 305 304 304 304 304 305 306 304 305 306 306 313 310 311 309 307 306 308 308 309 307 307 310 313 315
296 295 296 297 298 298 297 297 297 297 297 298 298 298 298 297 297 298 297 297 297 301 303 301 305 304 305 305 304 306 305 305 306 310 311 312 314 315 312 312 309 312 314 313 314 316 318
295 296 297 297 297 297 297 297 297 297 297 297 297 297 297 296 296 296 297 296 299 302 300 301 308 307 306 306 305 305 305 304 306 313 313 313 314 314 314 316 316 316 316 316 318 318 319
295 296 296 297 297 297 297 297 297 297 297 297 297 295 296 295 296 296 296 297 300 301 302 304 306 307 308 307 305 306 306 307 310 311 314 314 316 314 314 317 316 316 315 317 318 320 316
296 295 296 297 297 297 297 297 297 297 297 297 296 294 293 295 296 296 296 298 300 298 301 305 306 307 310 308 308 306 306 307 307 309 312 314 315 315 314 314 316 316 315 316 316 321 321
295 294 296 296 296 297 297 297 297 297 297 296 294 294 294 295 296 296 296 297 298 301 304 306 304 310 313 309 309 307 308 307 308 308 312 312 311 311 313 313 314 317 317 317 318 318 320
294 294 296 295 296 296 296 297 297 297 297 295 294 294 294 296 296 295 295 296 298 299 302 307 306 307 306 309 312 310 310 309 307 308 306 309 315 313 313 314 315 316 316 320 318 322 323
294 294 295 295 296 296 296 297 297 297 297 294 294 293 295 297 297 296 295 295 296 298 300 305 305 305 307 309 310 312 314 309 308 308 307 308 312 315 315 315 317 318 318 316 317 319 323
294 295 295 295 295 296 296 296 297 297 296 294 293 292 295 296 296 295 296 296 297 297 298 298 304 306 306 309 314 315 313 311 309 308 310 310 312 314 314 313 313 315 316 316 318 322 319
294 294 295 294 295 295 296 296 296 297 296 294 293 293 294 297 295 297 297 297 297 296 299 301 303 303 302 307 311 315 313 311 310 308 311 312 313 319 318 315 313 316 316 316 316 319 319
294 294 295 294 294 295 296 296 296 297 296 294 291 291 291 297 297 297 298 298 299 299 300 303 304 303 307 309 309 311 311 310 310 310 311 311 311 311 314 313 313 315 315 315 317 319 318
294 294 294 294 293 295 296 296 296 298 296 293 293 291 292 292 296 296 298 299 301 302 302 304 305 307 308 309 309 309 309 309 309 308 308 309 310 310 310 310 312 312 312 311 311 313 316
294 294 292 293 293 294 295 296 296 297 296 293 290 292 293 295 295 296 297 298 298 299 303 305 305 305 306 308 308 309 308 308 309 308 308 308 309 309 309 308 310 309 308 306 308 311 312
294 293 293 293 293 294 295 296 296 297 295 292 291 292 293 293 294 295 296 296 298 298 298 302 304 305 307 307 305 305 305 305 307 308 307 308 309 308 306 308 308 305 305 306 313 316 316
293 293 293 293 292 294 295 296 296 298 296 294 292 292 292 292 294 295 294 295 296 298 297 301 304 305 305 302 303 303 303 304 305 306 306 308 308 308 308 308 304 303 305 308 309 312 316
293 294 292 292 292 294 295 296 296 296 297 294 293 293 293 292 294 294 295 295 296 295 300 300 303 302 301 303 304 303 304 304 305 306 306 306 307 309 308 307 306 306 311 310 311 308 314
293 294 292 293 292 293 294 295 295 296 297 295 293 293 294 295 293 294 296 295 296 298 299 300 300 300 300 302 304 305 306 306 306 306 305 305 306 308 308 307 307 306 308 309 311 312 310
294 293 293 294 291 293 293 294 294 296 296 297 295 293 294 295 293 293 296 296 298 297 298 299 299 302 300 302 306 306 306 305 306 307 308 308 308 309 309 308 308 308 308 309 305 309 307
293 292 292 293 291 292 293 294 293 296 297 298 296 295 294 293 292 292 293 294 294 297 298 299 298 301 303 304 305 305 305 305 306 306 308 307 308 308 308 308 308 307 308 310 306 302 303
292 292 293 293 291 291 292 293 294 295 296 298 297 295 295 294 294 293 294 294 294 295 297 296 299 299 302 301 301 302 305 304 304 307 306 310 309 309 308 310 306 304 303 301 300 299 299

GFSGBSN_925_thetae_102.txt.gz
Theta_e
304 304 304 305 304 303 303 303 302 302 302 303 302 303 303 303 303 303 302 300 298 298 301 302 303 303 303 305 305 302 303 301 303 310 311 312 313 314 317 318 318 318 318 317 316 315 315
303 303 303 303 303 303 303 302 302 302 302 302 302 302 302 302 302 301 301 298 296 296 298 302 303 303 303 305 302 302 302 302 304 310 311 311 312 314 315 316 316 317 317 317 316 316 316
303 303 304 303 302 302 302 302 302 302 302 301 302 302 302 302 301 300 301 298 296 296 298 302 304 304 304 304 301 302 301 302 303 305 308 313 311 312 313 314 314 314 314 314 315 315 316
302 303 303 302 301 301 301 301 301 301 301 301 301 301 301 299 297 298 297 295 296 297 304 306 306 305 305 303 303 303 303 304 303 303 303 306 309 314 313 314 314 314 316 318 318 317 315
301 301 301 300 300 300 300 300 300 300 300 300 300 300 300 299 297 297 296 296 297 302 306 305 306 306 306 305 305 307 308 308 305 304 303 304 306 314 316 317 317 317 320 320 320 318 318
299 299 299 299 299 299 299 299 299 299 300 300 299 299 299 300 298 297 297 298 297 306 304 305 305 305 306 304 305 307 309 308 308 307 304 305 307 311 314 316 319 317 317 318 319 319 318
299 298 299 299 299 298 299 299 299 299 299 299 299 299 299 299 297 296 298 299 300 302 299 300 301 303 303 302 301 303 309 308 309 308 303 306 306 310 313 314 313 313 314 316 317 317 318
298 297 297 298 298 297 297 298 298 298 298 298 298 298 299 297 296 297 298 299 299 298 301 299 300 301 301 301 304 304 304 308 311 308 305 306 307 308 310 312 311 311 313 314 314 314 314
297 297 297 297 297 297 297 298 298 298 298 298 298 298 299 296 296 298 299 298 298 299 301 300 302 303 304 304 305 305 305 308 311 310 308 307 307 306 308 310 311 311 312 313 314 313 313
297 296 296 296 297 298 298 298 298 298 298 298 298 298 298 295 297 298 298 298 298 299 303 302 305 306 306 306 307 306 304 309 310 311 310 308 310 310 310 310 310 311 312 312 312 312 315
296 296 296 297 298 298 297 297 297 297 297 297 298 298 297 296 297 297 297 298 298 301 300 302 306 306 306 307 308 308 305 306 310 313 312 312 312 311 312 311 311 312 311 311 312 314 317
295 296 297 296 297 297 297 297 298 298 298 298 297 297 296 297 296 297 297 298 301 304 299 300 303 307 306 306 308 308 306 307 310 313 312 314 313 312 312 313 310 315 316 317 318 318 321
295 296 295 296 297 297 297 297 297 298 297 297 296 294 295 296 297 298 298 299 302 299 298 302 305 305 305 308 309 308 307 308 310 315 315 315 317 315 315 318 317 317 318 322 323 323 320
296 295 295 297 296 296 297 297 297 297 297 297 295 293 295 297 297 297 299 300 298 296 299 302 303 305 309 310 311 309 308 307 309 310 312 313 316 317 316 315 316 317 316 319 317 319 319
297 294 295 296 295 296 297 296 296 297 297 296 294 296 297 298 297 298 300 298 296 298 300 301 303 305 307 306 313 309 308 306 308 310 311 313 313 315 315 315 315 317 320 317 321 320 322
295 294 295 295 295 295 296 296 297 297 298 296 296 297 298 297 298 298 300 298 297 298 297 300 304 306 305 306 312 309 308 306 308 310 311 311 315 315 315 315 316 316 317 320 320 324 323
294 294 295 294 295 295 296 296 297 297 297 294 297 298 297 298 298 300 301 299 299 298 298 301 301 300 306 306 308 312 311 308 308 310 310 312 314 318 316 316 317 319 319 319 319 322 324
294 293 295 294 294 295 295 296 296 297 296 295 297 299 296 298 301 300 300 299 299 298 298 301 301 303 305 306 306 311 314 312 310 310 311 313 316 318 316 314 315 316 316 317 321 321 320
293 294 294 295 293 293 295 296 296 297 296 296 298 297 296 299 301 300 300 300 300 300 300 302 303 304 304 306 309 315 312 311 310 311 313 314 316 318 318 317 316 316 317 318 319 320 321
294 294 294 295 293 293 295 296 296 297 296 295 298 299 297 299 298 299 299 300 300 301 302 303 306 305 306 310 310 313 314 311 310 310 312 311 313 315 316 317 317 318 316 316 317 320 318
294 294 295 293 293 293 294 295 296 297 296 295 297 297 296 299 298 299 299 300 299 301 301 303 307 307 307 310 310 311 311 311 309 310 310 310 311 310 310 311 312 312 312 311 311 312 315
293 294 294 293 292 293 295 295 296 297 296 296 301 297 297 297 297 298 298 299 298 299 301 303 306 306 306 307 307 309 309 309 310 309 310 309 309 307 307 309 310 309 308 306 307 312 315
294 293 293 292 293 293 295 295 296 297 296 297 295 295 297 295 296 297 299 297 297 298 300 301 304 306 306 305 305 306 306 307 307 309 309 308 308 306 308 306 306 306 307 308 310 311 315
294 294 293 292 294 292 294 295 296 297 296 296 295 296 298 298 297 297 296 296 297 298 299 300 304 304 304 303 306 306 306 305 306 308 308 307 307 307 307 307 304 306 309 309 309 313 315
293 293 293 293 292 292 294 295 296 296 297 296 295 296 297 299 297 296 297 298 297 298 300 302 302 302 303 306 307 303 306 306 308 308 308 308 307 308 307 306 308 312 311 311 311 312 310
293 293 294 292 293 291 293 293 296 296 297 295 295 295 297 299 298 296 298 298 300 301 301 302 302 303 305 306 307 305 306 305 306 307 308 308 309 308 308 307 308 311 309 309 310 314 308
293 293 294 292 293 291 293 293 295 295 296 297 296 294 295 299 298 297 298 298 299 300 301 302 301 303 304 307 307 307 306 306 307 306 308 309 310 310 309 310 310 309 309 309 312 311 305
291 293 294 292 293 292 291 293 294 294 296 297 296 295 296 298 299 296 297 298 298 299 300 301 304 303 304 305 305 306 307 308 308 309 309 309 310 310 309 310 313 305 308 311 306 301 301
290 291 293 291 291 292 291 292 293 294 296 297 297 296 295 296 299 296 296 296 297 297 299 300 300 301 302 303 302 304 306 306 306 308 307 311 308 309 307 307 302 300 299 297 297 297 298

GFSGBSN_925_thetae_105.txt.gz
Theta_e
307 306 305 305 304 303 303 303 302 302 301 301 302 302 303 303 303 301 298 297 297 296 296 299 303 304 304 305 307 306 305 304 304 306 312 315 315 314 316 318 319 320 320 321 321 320 320
305 304 305 304 304 304 303 301 301 302 302 302 302 302 302 302 302 302 302 299 296 296 296 300 303 304 305 306 305 304 304 304 304 304 311 312 315 315 315 317 320 321 320 321 321 321 319
304 304 304 304 302 301 300 301 302 302 302 302 302 302 302 301 301 301 299 296 295 295 296 298 306 306 307 306 304 304 304 304 303 305 307 311 314 315 316 318 319 319 320 320 320 321 320
304 305 304 303 301 300 302 301 301 301 301 301 301 301 301 300 299 297 296 296 296 297 297 305 306 308 307 304 304 304 304 304 304 304 304 307 311 315 315 316 317 317 319 320 320 318 319
303 303 303 301 301 300 300 300 300 299 300 300 300 300 300 298 297 296 296 296 298 299 304 305 308 307 308 305 306 306 305 307 308 308 305 305 307 313 316 317 318 318 319 319 319 319 320
301 301 301 300 300 299 300 299 299 299 299 299 299 299 299 298 297 296 296 299 300 300 306 306 306 307 307 306 307 308 308 309 312 311 307 306 307 309 311 318 320 320 319 320 321 322 321
300 300 299 299 299 299 299 299 299 298 299 299 299 299 299 299 298 296 299 301 303 305 303 302 303 308 305 303 302 303 302 308 311 311 309 306 307 308 310 314 318 319 320 321 320 320 321
300 300 300 299 298 298 298 298 298 299 299 299 299 299 299 297 295 297 300 302 300 299 302 301 302 302 301 302 304 305 303 307 311 312 309 306 306 307 309 312 315 316 318 318 316 317 319
299 298 298 298 298 298 298 298 299 298 298 298 298 298 298 293 296 300 300 300 299 300 302 301 303 304 305 307 308 308 306 306 308 312 311 305 307 307 308 310 313 315 315 315 314 315 316
298 297 297 297 298 298 298 298 298 298 298 297 298 298 297 294 298 298 300 299 299 301 304 302 306 308 308 308 309 308 308 305 307 310 312 309 307 309 308 310 311 314 314 312 312 315 316
297 297 296 297 298 298 296 297 297 298 298 298 298 298 294 297 299 300 298 299 300 302 304 302 306 308 308 308 307 308 308 305 306 310 311 311 308 309 309 310 310 312 311 311 313 314 314
297 296 297 298 297 297 297 296 297 297 298 297 297 297 294 298 298 299 299 300 301 306 303 300 303 304 305 305 306 307 308 308 305 309 311 311 311 311 310 309 310 310 312 313 313 314 317
296 297 298 297 297 297 296 297 297 297 297 297 296 294 297 298 301 300 301 301 303 304 300 300 301 302 302 305 308 310 311 309 306 310 316 313 315 312 311 311 312 312 315 320 321 321 319
296 297 296 297 296 296 296 296 296 296 297 297 296 296 299 300 300 300 301 303 300 298 298 300 300 300 305 306 307 308 309 308 307 309 313 314 320 315 314 313 312 315 316 317 318 319 318
297 296 295 297 296 295 296 296 296 297 297 297 297 299 300 300 300 301 304 302 299 298 299 299 300 303 306 305 306 309 313 308 307 310 317 315 318 315 315 314 315 318 317 315 321 322 324
298 295 295 296 295 294 295 296 296 296 297 296 299 299 300 300 300 302 304 301 300 299 299 300 302 301 304 304 307 309 312 309 307 310 313 314 317 315 315 315 316 317 316 319 320 321 319
296 295 296 296 296 294 295 296 296 297 297 295 300 302 300 300 301 303 304 301 300 300 300 300 301 303 304 306 308 310 309 307 307 311 311 312 315 316 315 316 316 318 319 320 320 323 326
295 295 295 295 295 296 295 296 296 297 296 298 300 303 299 300 306 302 302 301 301 302 303 303 303 305 307 308 309 310 313 307 309 310 310 311 314 317 319 314 315 315 316 318 320 322 320
295 293 294 295 295 294 294 296 296 297 296 300 301 300 299 302 304 303 301 301 302 302 303 304 306 307 307 308 308 308 314 312 311 311 312 312 315 318 322 317 317 318 316 318 321 320 323
295 294 295 295 294 294 294 295 296 297 296 298 302 303 301 301 301 302 302 302 303 303 305 304 306 307 309 310 307 310 315 312 312 312 313 313 315 316 318 316 316 318 318 317 318 321 320
295 294 294 295 293 292 294 295 296 297 297 297 302 301 299 302 302 302 302 302 302 303 303 304 308 306 308 309 307 310 310 312 311 312 312 313 316 317 317 316 317 316 317 316 317 315 315
295 294 294 295 293 292 293 295 296 297 296 299 299 302 300 299 300 301 301 301 300 301 303 304 305 306 306 306 307 308 309 310 312 311 312 312 310 310 311 312 313 313 311 308 308 310 314
295 294 294 294 293 292 294 295 296 297 296 299 298 298 301 299 299 300 301 299 299 301 302 302 304 305 305 306 307 307 308 308 308 309 310 310 309 310 310 307 307 308 309 310 310 316 317
294 294 294 293 292 294 294 295 296 297 297 299 299 299 301 302 299 299 299 299 300 300 300 302 304 304 304 305 307 307 308 308 308 308 309 307 308 308 308 308 308 310 310 310 314 313 312
295 294 294 293 293 293 293 294 296 296 297 298 298 299 300 301 299 298 299 299 301 301 302 302 303 303 306 308 308 306 308 308 307 308 308 309 309 309 308 309 310 313 311 311 312 313 310
293 294 294 294 293 293 293 293 295 296 297 298 298 298 299 301 301 299 300 299 301 302 303 303 303 304 307 308 308 306 307 307 307 308 307 308 309 309 310 308 314 313 311 310 310 314 307
293 293 294 294 293 291 292 293 294 296 296 297 296 296 299 301 301 300 301 301 300 301 302 303 303 305 306 309 310 308 307 306 308 307 308 309 310 311 310 310 313 305 307 309 316 309 304
292 293 293 294 292 292 292 292 293 295 296 297 298 297 298 301 301 300 300 300 301 302 302 302 305 305 305 307 306 307 309 308 309 308 309 311 313 312 312 311 315 301 307 309 304 301 301
292 292 293 293 292 292 291 291 292 294 295 297 298 297 296 299 300 299 300 300 300 300 301 301 301 304 304 305 305 305 308 308 308 313 308 311 308 310 307 306 300 299 298 297 299 299 298

GFSGBSN_925_thetae_108.txt.gz
Theta_e
309 308 307 306 305 304 304 303 301 302 302 301 302 303 303 303 303 303 301 297 296 295 295 297 302 304 305 304 306 306 306 306 306 305 305 310 315 317 314 313 316 319 321 321 321 321 322
308 307 306 306 304 304 304 302 301 303 302 302 302 303 302 302 301 298 298 296 295 295 296 299 301 304 306 307 305 306 306 306 305 305 305 305 311 315 316 315 315 318 319 321 321 321 322
307 306 306 305 304 304 302 299 302 302 302 301 301 301 300 299 297 299 299 295 294 295 297 298 302 305 308 307 306 306 306 305 305 305 306 307 307 313 314 316 316 316 317 320 321 321 321
305 305 305 304 303 301 301 302 301 300 300 300 301 300 299 298 297 295 295 295 295 297 299 298 304 307 309 307 306 305 305 305 305 304 305 305 306 309 313 315 316 317 318 320 320 321 322
305 305 305 304 302 302 301 300 300 300 300 300 300 299 298 296 296 295 295 296 300 301 300 302 307 308 310 307 307 307 307 306 306 306 306 306 306 307 311 316 317 317 320 320 320 321 321
304 304 304 303 301 300 300 300 300 299 298 299 299 298 297 295 295 294 297 302 303 302 303 305 308 311 310 308 306 307 308 309 309 311 312 310 307 305 308 314 320 317 319 319 320 320 320
303 303 302 301 300 300 301 300 299 297 298 299 299 298 294 293 293 297 300 303 302 305 305 306 305 309 307 305 304 304 303 304 305 309 312 311 307 306 306 309 313 315 317 318 319 319 320
301 301 301 300 300 299 299 299 298 298 299 298 297 295 293 294 295 299 301 303 301 300 302 302 303 303 302 302 303 303 304 305 304 304 311 311 310 307 306 307 310 311 316 319 320 322 321
300 300 301 300 299 298 298 299 299 298 297 296 295 294 293 294 296 301 301 301 300 301 302 301 302 303 304 304 305 306 309 308 305 304 309 310 310 308 305 306 308 311 314 319 320 320 318
299 299 299 299 298 298 299 298 297 297 296 296 295 295 293 296 300 301 302 299 300 301 303 304 305 308 308 308 307 308 308 309 308 305 307 309 310 309 306 306 308 310 313 317 318 318 315
299 298 298 298 298 299 298 298 297 298 297 296 296 295 293 295 300 301 300 300 300 302 308 303 305 307 304 304 305 309 307 309 310 305 306 308 311 310 307 307 308 310 314 316 315 315 314
297 298 296 298 299 298 298 297 297 296 296 297 296 295 294 300 301 301 301 302 303 306 306 300 301 300 300 301 302 306 307 308 309 305 305 306 309 312 307 309 308 311 313 313 312 313 316
298 297 297 298 298 298 297 296 296 296 296 297 297 295 298 299 302 301 302 304 308 306 300 299 300 300 300 302 306 307 307 309 312 306 305 306 311 313 308 309 310 311 312 318 320 321 319
297 296 298 297 298 298 297 296 295 296 296 297 296 297 302 301 302 302 303 306 306 300 300 300 301 301 303 308 308 306 307 312 311 310 304 309 318 316 312 311 310 310 312 321 318 319 318
297 298 298 297 297 297 297 295 295 296 296 297 297 302 302 301 302 303 305 305 300 300 300 300 301 302 304 304 305 307 309 312 311 307 306 318 318 315 315 311 313 312 314 315 320 321 325
296 297 296 298 297 297 296 295 296 296 297 297 300 302 302 302 302 304 307 303 301 301 302 302 303 303 306 306 307 308 311 311 308 305 311 315 322 318 317 315 313 316 315 320 321 330 332
298 297 296 297 296 296 295 296 296 296 297 296 301 303 302 302 304 305 307 302 303 303 303 304 304 306 307 310 309 310 313 311 307 313 313 313 317 317 315 319 319 320 320 320 320 320 328
297 296 296 297 296 296 296 296 296 297 297 298 303 305 301 303 307 307 303 302 303 304 305 306 306 308 309 309 309 309 311 311 307 313 315 314 318 319 317 315 315 318 320 320 323 319 322
297 296 296 296 296 296 296 296 296 297 296 301 304 302 301 304 307 305 303 303 304 305 305 305 307 307 308 309 309 309 309 314 313 314 316 314 316 320 319 316 316 318 316 317 320 321 323
296 295 295 296 296 295 296 295 296 297 297 298 304 306 303 303 303 303 303 304 304 304 305 305 306 308 309 309 307 310 312 313 312 313 314 316 316 316 322 320 318 319 319 318 317 321 320
296 295 295 295 296 295 295 295 296 297 297 299 305 305 302 305 304 302 303 304 303 303 304 305 307 306 307 307 308 311 311 312 312 313 313 313 320 317 318 319 316 318 317 317 317 314 317
296 295 294 294 295 294 293 294 296 296 297 300 299 305 300 301 301 302 303 302 302 302 304 304 305 305 305 305 307 310 310 311 311 312 312 311 314 313 316 317 317 317 310 309 316 318 319
295 295 294 295 294 293 294 294 296 297 297 301 300 300 302 302 300 301 302 301 301 302 302 303 304 305 305 305 307 309 309 309 309 312 311 311 311 313 310 309 311 312 312 315 313 313 314
295 295 294 295 294 294 294 294 296 297 298 300 300 301 302 304 300 300 300 301 301 302 302 303 304 304 304 306 309 308 308 308 308 308 310 310 309 311 308 308 317 314 313 312 312 310 311
295 295 295 295 294 294 294 294 295 296 297 300 300 300 302 304 302 300 300 301 302 303 303 303 304 304 306 308 309 309 309 309 307 307 308 309 311 312 312 310 313 314 311 311 313 309 307
294 295 295 294 294 293 292 294 295 296 297 299 299 299 301 302 304 300 300 302 302 302 304 304 303 305 306 309 312 309 307 307 308 311 308 309 312 314 313 310 316 309 305 307 309 309 305
294 294 295 294 293 293 292 293 294 296 296 298 299 299 300 302 302 301 301 301 301 301 303 304 303 305 306 310 311 309 310 308 310 310 310 312 313 314 314 314 311 303 304 307 313 307 303
293 293 294 294 293 292 293 292 293 295 296 298 299 299 299 301 301 301 301 301 302 302 303 302 304 305 305 308 306 307 308 307 312 309 310 309 313 311 312 313 311 300 304 305 302 301 301
293 293 293 293 293 292 292 292 293 295 295 296 299 299 299 299 301 300 300 301 301 301 302 302 302 304 305 306 305 305 309 310 308 314 308 309 308 307 305 305 300 299 299 298 299 298 298

GFSGBSN_925_thetae_111.txt.gz
Theta_e
311 311 310 308 307 305 304 302 300 300 301 301 301 301 302 303 302 302 301 297 295 295 295 297 302 304 304 304 306 304 304 305 305 305 305 305 305 314 317 312 310 308 312 316 318 318 319
310 310 308 307 306 305 305 304 301 302 302 301 301 301 300 300 300 299 295 294 294 294 295 296 303 304 304 304 303 305 306 307 307 306 305 304 303 303 307 314 314 311 311 312 316 318 318
308 308 307 306 305 305 305 302 301 302 301 300 301 300 300 297 295 295 295 295 295 295 297 299 303 304 305 303 303 305 306 305 305 305 304 305 305 302 304 308 312 314 314 314 313 314 317
309 308 307 306 305 304 303 301 301 300 299 300 300 299 297 295 295 294 294 296 299 301 301 300 301 306 306 305 306 307 306 306 305 305 305 304 304 303 304 305 308 310 312 315 315 314 315
308 307 306 306 304 302 302 302 301 300 299 298 298 296 295 294 293 293 298 301 302 303 302 301 305 307 309 309 308 307 307 306 305 306 306 305 304 303 303 303 307 311 314 315 315 315 315
307 306 305 305 303 302 301 301 301 299 298 296 296 295 294 294 294 297 300 303 302 304 304 304 306 308 309 309 308 303 305 303 308 308 307 308 304 303 303 302 306 311 315 314 315 315 317
306 306 305 304 302 301 301 301 300 298 296 297 296 295 293 293 296 300 301 302 298 301 300 300 304 307 306 304 302 302 302 302 303 302 302 306 310 309 305 303 304 308 313 315 315 315 317
305 305 304 303 301 300 301 300 299 297 297 295 295 294 293 294 297 301 301 299 300 300 300 301 301 301 301 301 302 302 303 302 302 302 303 301 307 310 308 305 304 305 306 308 310 313 317
304 304 303 301 301 300 300 299 299 297 295 294 294 295 294 295 299 302 301 300 300 300 299 300 301 302 307 307 305 305 305 307 307 305 305 304 302 310 310 306 304 304 305 307 309 311 317
302 301 300 301 301 300 299 299 299 297 296 296 296 295 294 297 301 301 300 301 300 301 299 304 305 308 305 301 304 304 305 308 307 309 309 304 303 305 309 309 305 303 305 307 309 311 323
300 300 300 300 300 299 299 298 298 298 297 297 296 295 294 298 299 302 302 301 302 302 304 300 301 306 301 300 300 301 305 306 308 309 310 311 304 304 308 310 306 304 305 307 313 319 319
299 299 299 300 299 299 298 298 298 297 297 297 297 295 296 300 300 301 301 303 303 305 302 300 301 300 301 302 305 304 305 306 308 309 308 309 305 304 308 311 311 306 308 316 316 317 318
298 298 298 298 299 298 297 298 297 296 296 297 297 295 299 299 301 301 303 303 306 300 301 300 300 301 302 303 305 306 305 305 306 309 309 307 306 304 310 311 312 308 314 316 317 316 316
297 297 297 299 298 297 297 297 297 295 296 297 297 298 301 301 302 302 303 304 304 301 300 301 302 303 303 305 305 306 306 306 307 307 310 306 304 308 312 312 313 310 312 315 319 321 317
298 297 298 298 297 298 297 298 296 295 296 297 297 301 301 302 301 303 302 300 299 301 301 302 303 303 304 305 307 308 307 307 308 310 311 310 306 313 313 314 311 310 312 314 320 321 323
298 297 299 298 297 297 297 297 296 296 296 297 297 302 303 299 302 304 302 306 302 302 303 304 305 305 306 307 308 309 310 311 312 311 309 313 312 315 314 316 316 310 311 316 321 324 327
298 298 297 298 297 297 297 296 296 296 297 297 299 302 302 301 304 303 298 301 302 303 305 307 307 307 307 307 307 309 309 310 312 313 313 314 311 318 318 318 315 318 318 319 321 323 326
297 297 296 296 296 296 297 297 296 296 297 298 301 302 301 303 301 303 299 302 304 305 305 305 306 307 308 307 306 306 308 309 310 313 313 313 313 320 319 317 317 317 319 318 323 324 322
297 297 297 297 296 296 297 297 296 296 296 300 301 301 300 304 299 298 303 304 304 305 305 305 307 306 306 305 305 304 308 308 311 313 315 314 317 319 317 317 317 318 317 319 320 320 324
297 297 296 296 296 296 296 297 296 297 297 298 299 299 300 300 300 303 303 304 304 303 304 304 305 305 305 302 306 308 310 310 311 312 315 315 316 318 320 320 318 320 319 318 320 321 322
296 296 295 295 295 296 296 296 296 297 297 298 297 298 301 298 300 301 302 303 303 303 303 304 303 304 304 302 305 306 309 309 310 311 311 312 316 314 315 316 317 316 316 316 318 318 320
296 296 294 295 295 295 295 295 295 296 297 299 291 302 297 298 300 300 303 304 301 301 302 303 304 304 303 304 305 307 309 310 310 310 311 311 316 312 315 314 316 316 314 314 315 318 318
296 295 294 293 296 294 293 293 295 296 297 301 301 300 298 301 299 300 301 300 301 302 302 301 303 303 303 303 304 305 306 308 309 312 310 311 311 313 314 312 315 317 313 311 311 311 311
296 296 295 294 295 294 293 294 295 296 297 300 301 300 299 299 300 300 300 300 301 301 303 303 303 302 303 304 305 307 308 309 308 311 309 310 312 311 310 310 318 310 308 307 307 307 307
295 296 295 296 295 294 294 295 295 296 297 299 300 300 299 299 300 301 300 300 301 302 302 305 302 301 303 305 309 308 308 308 309 310 309 310 311 312 312 316 315 309 305 305 309 306 304
295 295 296 295 294 294 293 294 295 296 297 299 300 300 299 299 301 302 301 302 300 299 300 303 301 303 302 306 307 309 309 309 311 310 309 310 310 313 312 314 314 305 301 302 306 305 303
294 294 295 294 293 293 292 293 294 296 296 299 299 298 300 295 302 301 300 300 300 300 301 301 300 302 302 301 307 306 309 308 312 311 310 308 308 309 312 313 307 300 301 303 308 304 303
294 294 294 294 293 293 292 293 294 296 296 298 299 298 300 298 299 301 301 300 300 300 298 299 298 300 299 303 304 305 307 308 311 309 309 308 310 306 307 308 306 299 301 303 303 300 300
294 294 294 294 293 292 293 292 293 295 296 297 299 299 298 297 297 298 298 299 300 301 300 299 301 303 302 299 301 303 307 305 307 309 307 307 307 304 303 302 300 298 299 298 297 298 297

GFSGBSN_925_thetae_114.txt.gz
Theta_e
312 312 310 311 310 308 306 303 300 299 299 300 299 299 300 302 302 301 299 295 295 295 296 297 302 304 300 303 304 303 304 304 305 305 305 304 305 308 315 310 308 306 306 307 309 312 316
312 311 311 311 309 307 305 303 300 299 301 301 300 299 298 297 297 295 295 295 294 295 296 297 301 304 303 302 301 304 305 305 305 306 306 304 302 302 301 301 308 312 311 309 308 308 309
312 310 312 310 308 306 306 304 301 300 301 300 298 297 296 295 294 294 293 294 297 299 300 300 303 305 303 301 301 305 306 306 306 305 303 304 303 301 301 302 304 307 311 313 313 312 311
312 311 311 309 307 305 305 304 301 300 300 299 298 296 294 294 294 293 295 299 301 301 301 302 304 305 305 303 307 307 306 307 306 305 305 305 305 301 302 302 303 303 305 308 311 312 313
312 311 310 308 306 304 304 302 301 301 299 298 295 294 294 293 294 296 299 301 302 302 302 303 304 305 307 308 308 304 302 305 302 303 306 305 304 302 301 301 301 302 303 306 309 312 312
312 310 309 307 305 305 302 301 301 299 299 297 295 295 294 293 294 299 301 301 303 302 303 304 305 306 306 304 305 302 303 302 302 301 302 304 304 303 301 299 302 302 304 306 310 312 312
311 310 308 306 306 304 303 302 301 299 298 295 296 295 294 293 296 299 300 300 298 297 298 297 299 300 300 301 302 303 303 302 301 301 300 300 300 301 307 303 302 303 302 303 306 309 311
311 309 307 306 305 303 302 302 301 298 296 295 294 294 294 293 297 301 299 299 299 298 299 299 300 300 300 300 301 302 303 302 303 304 306 304 301 301 301 307 307 304 303 302 304 307 308
310 307 305 305 304 302 302 302 300 297 296 294 294 295 294 296 299 301 300 300 300 300 298 300 301 301 302 304 300 300 303 306 307 307 307 307 308 304 302 302 308 307 304 303 302 303 305
307 305 305 304 302 301 301 300 299 297 295 295 296 295 294 298 300 301 301 301 301 301 299 301 303 305 304 301 300 302 304 306 307 306 306 308 309 309 306 303 304 313 307 304 303 304 306
306 306 303 302 301 300 300 300 299 298 296 297 296 296 294 299 299 301 301 301 302 301 301 301 300 303 301 300 301 302 304 304 305 305 308 307 308 309 310 303 305 310 310 306 304 304 314
304 303 301 300 300 299 298 298 298 298 297 296 297 296 296 300 300 301 301 303 303 300 299 301 300 300 302 302 302 303 304 303 304 306 307 308 307 308 307 305 305 309 311 312 314 316 317
301 301 300 298 298 298 298 297 298 297 296 297 297 296 298 299 301 300 302 302 301 298 300 300 300 302 303 303 304 305 305 305 305 306 307 307 307 305 306 304 306 311 312 309 314 317 316
300 299 299 298 297 297 297 297 298 296 296 296 297 297 299 301 302 301 303 301 300 300 300 300 302 303 303 304 306 307 307 306 305 305 307 308 307 304 306 305 307 311 310 310 313 317 317
298 297 297 297 299 298 297 298 298 296 296 297 297 300 300 302 301 302 299 297 299 300 301 304 304 305 303 304 306 307 307 308 309 308 308 309 306 308 310 313 314 313 312 311 316 318 318
297 296 297 299 297 296 298 297 297 296 296 297 297 301 302 301 301 303 299 303 301 302 305 305 304 306 306 306 305 305 308 308 312 312 308 313 311 310 311 314 314 315 311 313 314 316 317
297 296 298 297 297 297 297 297 296 296 297 297 299 301 303 300 303 299 298 300 301 304 304 305 306 307 305 307 305 307 308 309 310 311 312 314 313 311 311 316 315 314 315 317 315 318 318
298 299 299 298 297 297 297 297 296 296 297 297 299 301 302 302 299 298 298 301 303 304 304 304 305 306 305 305 305 305 308 310 309 311 315 313 312 313 319 316 317 316 317 317 312 320 322
297 297 297 297 297 296 297 296 296 297 297 300 301 299 300 304 298 296 300 303 304 304 304 304 304 306 304 304 300 301 307 309 309 310 314 314 316 318 319 316 317 317 317 317 318 317 323
298 297 297 297 296 296 296 296 296 297 296 298 297 298 297 298 297 300 302 303 303 302 303 303 303 302 301 297 301 301 306 308 308 310 314 314 313 314 315 316 316 320 317 318 319 320 315
297 297 297 296 296 296 296 296 296 297 297 298 294 297 298 297 299 299 301 302 301 300 302 302 302 303 301 297 301 301 306 307 309 309 309 311 313 313 316 315 315 313 318 317 319 315 314
297 297 295 296 295 295 296 294 295 296 297 299 292 299 296 296 301 299 301 303 300 300 300 300 302 302 302 303 302 303 305 307 309 308 309 310 313 312 314 313 312 312 311 312 315 313 310
297 296 295 295 296 295 294 293 295 296 297 299 300 299 296 299 297 297 298 300 299 301 301 301 302 301 301 302 302 303 303 304 306 308 310 308 310 313 314 313 313 309 309 309 308 307 310
297 296 296 295 296 294 293 292 294 296 298 300 300 298 296 297 298 298 300 299 300 301 302 302 301 301 301 301 302 305 305 306 308 309 310 310 310 311 313 312 310 307 306 305 305 306 304
296 296 296 296 295 294 293 293 294 296 298 299 299 298 296 296 299 301 302 302 300 299 300 301 300 300 300 302 306 306 306 306 309 309 309 310 311 311 315 314 310 305 303 302 305 304 304
296 295 295 295 294 293 293 293 295 296 297 299 299 300 296 296 299 301 300 299 298 298 299 301 299 299 300 303 303 307 310 308 310 310 308 308 308 311 313 311 309 303 300 300 303 304 303
295 295 295 295 294 293 293 293 295 296 297 299 299 298 297 294 298 299 299 299 299 299 299 298 299 300 299 297 303 305 307 309 311 309 309 307 308 307 311 309 305 299 300 302 306 302 301
295 295 295 294 293 293 292 292 295 296 296 298 298 299 298 293 295 300 300 300 299 298 296 297 296 298 298 300 301 302 305 308 309 308 308 308 308 304 306 304 304 298 299 303 300 299 298
294 294 294 294 293 292 292 293 295 295 296 298 298 298 298 295 294 298 297 297 299 300 297 297 302 302 299 297 302 301 304 304 305 305 306 305 303 303 303 301 298 297 298 297 296 296 294

GFSGBSN_925_thetae_117.txt.gz
Theta_e
317 315 314 312 310 309 310 308 305 303 299 297 298 298 298 297 295 295 295 294 295 295 298 302 303 304 300 300 299 302 304 304 305 305 305 304 305 307 313 306 306 302 303 304 305 305 305
317 315 314 312 311 310 310 308 304 301 298 298 300 299 298 297 296 294 294 294 294 295 298 303 304 304 302 298 300 302 305 305 305 305 305 304 303 301 301 301 304 306 303 304 305 307 308
318 316 314 312 310 311 309 307 304 300 298 299 300 298 297 295 294 294 294 295 298 300 300 301 303 304 303 303 305 306 303 305 305 305 304 304 303 301 300 301 302 303 301 302 303 305 309
318 317 315 312 311 311 309 306 303 301 300 300 299 297 295 293 294 294 296 300 301 301 302 303 304 304 304 304 307 305 304 303 302 302 303 303 304 301 301 301 301 301 301 301 303 304 306
319 317 315 313 311 311 308 305 303 302 300 300 298 295 294 294 294 296 300 300 301 303 303 303 304 304 305 305 307 303 303 302 301 302 302 303 303 301 301 301 300 300 301 301 302 303 306
319 317 314 313 311 310 307 305 303 301 301 299 297 295 295 294 294 299 300 300 302 301 304 303 305 304 304 302 301 302 302 302 301 301 301 301 301 302 299 300 305 303 300 299 300 302 305
320 318 315 313 311 309 306 304 301 300 300 298 295 296 294 293 295 300 300 299 296 297 298 297 300 300 299 300 300 301 302 302 301 300 300 300 299 298 298 301 303 304 305 304 302 302 303
320 318 315 312 309 307 305 304 301 301 299 296 295 294 294 294 297 300 299 298 298 298 298 298 298 298 299 299 300 300 302 303 304 303 305 305 302 303 302 301 300 302 306 305 304 304 304
320 316 314 311 308 306 304 303 302 301 298 295 294 294 294 295 298 301 301 300 300 300 298 300 300 300 302 300 300 299 302 304 305 306 306 306 304 304 305 303 302 300 300 305 308 307 303
318 315 312 309 307 305 303 302 301 300 295 295 294 295 294 298 301 300 301 301 301 301 297 300 303 304 302 300 300 301 301 303 306 305 304 305 305 308 309 308 305 304 303 305 310 311 306
317 314 311 308 305 303 302 301 298 295 294 294 296 295 295 298 299 300 301 302 302 301 301 300 300 301 301 301 301 302 303 304 304 304 305 304 305 306 306 307 307 308 304 307 308 310 304
314 311 309 306 303 302 301 299 300 298 296 296 296 296 297 300 300 301 301 303 302 299 300 300 300 300 302 302 302 302 303 303 303 303 303 304 304 305 306 306 306 305 309 311 310 308 306
311 308 305 303 301 300 300 299 298 298 296 296 297 297 297 299 300 301 302 301 299 299 300 300 300 302 302 302 304 305 306 305 305 306 305 306 307 306 306 307 306 307 310 311 306 309 313
307 305 303 301 300 300 299 297 294 294 295 296 297 296 298 300 301 301 302 300 300 300 300 300 302 303 303 304 304 305 306 307 307 306 307 307 309 305 303 306 303 305 309 312 311 314 314
303 302 300 299 299 298 297 297 294 294 296 296 297 298 299 301 301 302 297 298 299 300 301 304 303 304 303 304 304 305 306 307 310 312 310 311 309 306 310 311 308 310 309 308 311 314 317
299 298 298 298 298 297 296 296 296 296 296 297 297 300 302 301 302 302 299 301 300 302 304 304 304 305 302 304 301 305 306 307 312 311 311 311 314 310 310 310 312 312 312 312 311 315 316
297 297 298 298 297 296 296 296 297 297 296 296 299 301 302 301 302 297 296 299 301 304 304 305 305 304 303 303 304 305 307 308 310 310 311 312 313 310 310 311 314 314 314 313 313 316 320
297 299 298 298 296 297 297 297 296 296 297 297 300 301 301 301 299 296 298 302 302 303 303 304 304 305 302 302 305 305 306 307 308 309 312 313 313 313 314 313 315 315 313 312 311 314 319
298 298 297 297 297 297 297 296 296 297 297 300 300 299 300 303 300 296 300 303 303 303 303 303 303 303 302 298 300 300 304 306 307 308 311 313 316 314 315 316 315 316 316 316 316 317 317
299 298 298 297 297 297 296 296 296 297 298 300 298 298 297 298 296 299 301 302 302 301 302 302 302 300 299 296 300 300 303 306 306 308 311 313 314 314 315 316 315 318 316 317 315 314 312
296 297 297 297 296 297 296 296 296 297 297 300 295 297 298 297 298 298 300 302 300 299 300 301 300 302 299 295 297 300 301 305 305 308 307 311 314 311 310 311 311 313 319 316 315 313 311
297 297 297 296 296 296 296 296 296 296 298 299 297 299 294 298 299 299 300 301 299 299 299 299 301 301 301 301 300 301 302 304 305 306 307 308 313 311 311 308 306 307 308 310 309 306 305
297 297 295 295 296 296 296 295 296 296 298 299 298 297 296 298 296 297 298 300 298 300 300 301 301 301 301 300 300 301 301 302 304 305 307 308 310 313 314 311 311 306 306 306 305 306 308
297 296 296 296 296 296 295 294 296 297 300 300 299 297 296 297 298 297 301 299 300 301 301 300 300 301 301 299 300 302 302 303 304 306 305 310 310 310 313 313 308 305 302 304 303 303 303
297 296 296 297 296 295 294 294 296 297 299 300 299 297 296 298 299 300 301 300 298 298 299 301 300 299 297 300 305 305 305 306 308 307 306 307 310 314 313 309 308 304 301 302 304 303 301
296 295 296 296 295 294 293 294 296 298 299 299 299 299 296 297 299 300 298 299 298 298 298 299 299 297 298 299 301 306 309 308 309 307 306 306 306 312 312 310 309 303 299 300 301 302 300
296 295 295 295 294 293 293 294 296 297 299 298 298 299 296 295 297 298 298 298 297 297 298 296 298 299 297 296 302 304 307 308 307 308 309 306 306 306 309 308 304 298 299 302 306 301 300
296 295 295 294 294 293 293 294 296 297 299 298 298 298 297 293 295 299 300 299 297 296 295 296 294 297 296 298 301 301 304 306 309 306 307 304 305 304 305 303 304 297 299 302 299 297 298
296 295 295 294 293 292 293 295 296 296 298 298 298 298 297 294 294 298 298 298 299 298 296 297 301 299 298 296 300 299 301 302 304 304 304 303 301 302 301 300 297 296 297 296 295 292 291

GFSGBSN_925_thetae_120.txt.gz
Theta_e
321 320 318 316 315 314 310 308 309 307 306 304 299 298 298 298 300 297 294 294 294 294 297 300 300 301 300 298 298 302 304 305 304 305 305 303 303 307 311 304 306 306 304 303 302 302 302
323 321 319 318 316 314 312 309 310 308 306 302 298 298 300 299 297 294 294 294 295 298 300 300 303 303 301 299 301 306 303 305 305 305 305 304 303 302 301 300 302 302 300 301 301 300 301
323 321 320 319 316 315 313 309 310 309 305 300 298 300 299 298 294 294 294 296 299 300 300 301 302 303 303 300 306 304 304 303 303 302 304 304 303 302 301 301 301 301 301 301 301 300 302
320 320 320 319 317 315 313 310 310 308 304 300 299 300 298 295 294 294 296 300 300 300 301 302 303 303 301 304 305 304 304 302 303 301 303 303 303 301 301 301 300 301 300 300 301 300 300
314 320 321 318 317 316 314 311 310 308 303 300 300 299 296 294 294 294 300 299 302 303 302 302 303 304 303 304 304 302 302 302 302 301 301 302 302 301 300 300 300 299 300 300 300 300 300
311 312 320 319 318 316 314 311 310 307 303 300 300 298 294 294 294 298 299 300 304 303 303 304 305 302 301 302 301 301 301 301 300 300 301 300 297 300 298 299 305 303 300 300 300 301 303
309 311 315 320 319 316 314 311 309 305 302 302 299 296 294 294 294 299 299 299 295 295 300 297 299 302 298 300 301 301 301 301 300 300 300 299 299 298 297 298 300 301 302 302 302 303 304
309 310 312 318 318 316 313 310 307 305 301 301 298 295 295 294 298 299 299 296 297 297 297 297 297 297 298 299 299 299 301 301 303 301 303 303 301 301 301 300 299 299 300 300 301 302 303
309 310 309 316 318 315 312 308 306 303 300 299 296 296 294 294 300 300 300 300 300 299 297 299 299 300 301 299 300 299 301 303 304 302 304 302 301 303 303 304 303 303 302 302 300 300 301
311 311 311 314 318 314 311 307 304 302 299 297 295 295 295 297 300 300 301 301 300 300 295 299 301 302 301 300 301 300 301 302 304 304 303 303 303 304 306 307 305 305 303 303 303 303 307
316 313 312 318 316 312 309 305 302 300 299 297 295 296 294 299 300 298 300 301 302 299 297 300 299 301 300 301 301 302 302 303 303 303 304 304 304 305 305 305 306 306 306 306 305 305 307
316 314 313 317 314 309 306 303 301 299 298 295 296 295 297 299 300 300 301 302 301 298 299 300 299 300 302 301 302 302 303 303 302 303 302 303 302 303 304 304 304 305 306 306 307 309 311
316 314 317 315 312 307 304 302 299 297 296 297 295 295 298 299 300 300 302 300 297 299 299 300 300 302 302 302 303 305 304 305 305 308 307 304 305 305 305 306 305 305 306 305 306 306 312
316 317 315 311 307 304 302 300 298 299 297 295 295 295 298 300 300 301 302 297 298 299 299 300 302 303 303 303 303 303 305 305 306 306 307 306 308 304 304 306 306 304 305 307 310 312 315
318 314 310 306 304 302 301 299 298 295 296 296 296 297 298 299 300 301 296 296 298 299 300 304 303 304 303 303 303 303 304 305 308 309 311 311 309 306 308 307 305 305 307 305 308 310 312
305 306 305 303 302 300 299 298 297 297 296 296 298 300 300 301 300 300 298 300 299 302 304 303 304 304 302 303 300 303 304 306 309 311 310 312 312 310 310 309 308 307 311 313 310 315 315
297 295 297 298 298 297 297 297 297 296 296 297 300 300 301 301 302 296 299 299 302 303 303 304 304 304 302 301 301 304 305 306 309 309 308 312 314 311 311 311 309 313 312 313 313 314 317
299 299 298 296 296 296 296 297 297 296 297 298 299 301 300 302 301 297 300 300 303 303 302 304 303 303 300 300 301 300 304 307 306 307 309 310 314 313 312 311 312 315 312 311 310 310 315
296 296 296 297 297 296 296 296 297 297 297 300 299 299 300 301 303 298 300 303 303 302 302 302 303 302 299 296 296 294 301 304 305 306 310 311 315 315 310 313 314 315 315 315 313 313 315
298 297 297 297 297 296 297 298 298 297 298 300 298 298 298 298 297 300 301 301 302 301 301 301 301 299 297 292 295 295 302 304 304 305 308 312 312 309 309 310 313 313 315 315 313 310 308
297 297 297 296 297 297 298 297 296 297 298 299 294 298 299 300 299 299 300 301 300 299 299 300 300 301 298 295 295 298 300 302 304 306 306 310 313 311 309 307 308 308 312 313 311 310 307
297 297 296 295 297 297 297 297 297 297 298 297 297 298 296 299 298 299 301 300 299 298 298 298 300 301 300 300 298 299 300 302 304 305 305 309 312 312 310 312 306 304 304 307 307 305 303
297 297 296 296 297 297 296 296 296 297 298 298 297 296 297 297 297 299 300 300 298 298 300 300 300 300 300 299 298 298 299 300 303 304 305 308 310 311 310 309 307 304 304 303 303 302 304
296 297 297 296 297 296 296 296 296 297 300 299 298 296 297 298 297 298 300 298 299 300 300 300 299 300 300 297 298 299 299 300 301 303 303 307 311 309 312 311 308 304 303 303 301 301 300
297 297 297 296 296 296 294 295 296 299 299 300 299 297 297 299 299 300 300 299 298 298 299 300 299 298 296 299 304 305 304 305 307 306 304 306 308 313 310 308 307 305 300 302 303 301 299
297 297 297 296 295 294 293 295 297 299 299 300 298 298 297 299 299 300 298 298 298 298 297 298 297 297 297 298 300 307 307 308 309 306 305 305 305 312 309 310 308 301 298 299 301 302 297
296 296 297 296 294 293 292 295 297 299 298 299 298 298 298 297 297 297 297 298 296 297 297 296 297 297 296 295 301 304 306 307 307 306 306 305 305 306 308 306 303 297 298 300 305 300 296
296 296 296 295 293 293 293 295 297 299 298 298 297 297 298 295 295 298 299 297 296 295 294 294 293 295 295 297 300 301 303 305 305 305 305 302 304 304 306 304 304 297 299 301 299 296 296
296 296 296 294 293 292 293 296 296 298 298 297 297 297 297 294 295 298 298 298 299 297 295 295 297 298 297 294 296 298 301 300 303 301 302 303 300 301 300 299 296 294 295 294 291 291 292

GFSGBSN_925_thetae_126.txt.gz
Theta_e
321 323 324 325 325 324 322 321 318 317 314 310 308 306 305 302 298 297 295 294 294 295 298 300 300 300 304 304 303 303 304 305 305 305 305 306 306 307 307 307 307 308 308 308 307 306 306
309 316 322 323 324 323 323 321 321 318 316 313 308 307 305 302 298 299 295 294 294 297 299 300 300 301 305 304 303 305 304 305 305 306 306 306 306 306 306 306 306 306 306 306 306 306 306
310 311 311 319 321 320 322 321 320 320 318 315 310 308 306 303 298 298 294 294 296 299 299 300 301 305 306 305 305 306 304 304 304 304 306 305 306 307 306 306 306 306 306 307 307 305 305
309 309 309 309 314 318 320 320 319 318 318 316 313 309 307 303 299 297 294 295 299 300 302 301 301 305 305 304 305 305 304 303 303 304 304 304 305 307 307 307 307 307 307 308 306 306 306
307 308 308 308 306 306 309 314 319 318 318 317 314 310 308 303 299 295 294 299 302 302 302 301 306 306 306 304 304 303 303 303 303 304 304 303 305 307 306 307 308 309 308 307 306 306 306
307 307 307 308 307 305 304 305 313 318 317 317 314 311 307 301 298 295 297 303 303 304 305 305 305 307 305 305 303 302 302 302 304 305 305 305 305 307 307 307 307 306 306 306 306 306 306
307 307 307 307 306 305 305 304 307 312 316 316 314 311 307 300 296 295 300 306 304 305 305 305 304 305 304 303 302 303 302 304 305 305 306 305 306 307 307 306 305 305 305 305 306 307 306
305 305 305 305 306 306 306 306 307 311 316 314 314 310 306 298 295 296 301 301 302 301 302 300 300 301 301 302 304 303 303 305 306 307 306 308 308 306 304 304 304 305 305 306 306 306 306
303 303 305 305 306 307 306 305 307 309 314 314 312 309 304 296 295 299 299 301 299 299 303 301 302 303 305 303 304 303 304 305 307 307 307 308 307 305 306 307 306 307 307 307 307 307 307
305 305 303 302 302 303 303 304 307 308 314 312 309 308 302 295 298 299 300 299 299 301 305 305 304 304 304 304 304 302 304 306 308 308 307 309 307 306 307 307 306 307 307 307 307 307 307
304 304 302 301 301 303 304 305 307 308 312 312 307 307 296 296 299 300 300 300 300 302 308 304 303 303 304 304 305 304 304 306 309 309 308 310 308 309 308 308 307 307 307 307 307 309 309
303 303 303 300 302 303 305 306 307 307 312 311 305 303 296 298 301 299 299 301 302 305 305 301 302 303 304 305 305 306 307 307 307 308 308 309 308 307 308 307 307 307 308 308 309 310 311
302 303 300 301 304 305 305 307 308 308 312 307 303 300 296 298 303 300 299 303 305 306 302 301 302 303 305 306 306 307 309 311 312 313 313 311 309 308 307 309 308 308 310 311 310 315 311
303 301 301 305 309 313 314 312 309 310 307 303 299 297 299 300 300 301 303 304 304 305 301 302 304 304 305 306 307 307 309 311 311 311 312 313 314 309 308 310 310 311 310 309 310 309 311
302 301 302 313 318 317 317 315 310 307 302 300 298 299 299 300 299 300 304 305 307 303 303 305 304 306 306 306 308 308 309 311 311 311 314 313 313 310 308 309 310 312 311 308 310 312 314
302 301 305 314 312 314 317 312 309 302 300 299 299 299 299 299 299 303 306 306 302 302 304 305 307 306 308 307 309 310 310 310 311 310 310 311 314 311 311 311 310 311 312 314 314 315 315
301 301 302 311 313 314 312 307 303 301 299 301 299 299 299 299 301 305 309 305 303 304 304 305 306 306 307 308 309 309 309 309 309 309 309 311 313 313 312 313 314 317 315 312 313 314 317
300 301 301 301 305 305 303 302 300 298 299 300 299 301 298 301 306 305 305 303 305 305 305 305 305 306 308 307 309 310 310 310 308 308 311 310 314 315 313 311 313 313 314 312 315 316 315
300 300 300 300 300 302 302 300 298 299 300 299 299 299 299 301 306 306 303 305 305 304 305 304 305 306 305 309 312 310 307 306 306 308 310 312 314 314 311 313 309 310 314 316 317 317 320
298 299 299 300 300 297 298 298 299 298 299 299 300 302 300 302 303 303 304 305 304 304 304 304 305 305 305 305 303 306 306 305 305 307 307 311 311 312 313 309 307 308 309 312 314 322 317
298 296 298 297 298 297 297 297 298 298 298 298 300 302 301 304 305 304 305 304 304 303 303 304 304 304 305 304 304 305 304 305 306 307 309 311 314 310 309 309 307 307 307 309 310 311 313
297 297 296 296 296 297 297 297 297 298 299 300 302 303 304 305 304 305 304 305 304 302 303 303 304 304 304 302 302 303 304 307 310 309 311 310 313 314 314 311 308 306 306 308 306 304 302
297 298 296 297 295 295 295 296 298 298 298 300 298 299 303 304 305 305 305 304 302 302 302 303 304 304 303 303 302 302 303 304 306 308 310 311 311 313 317 311 311 309 305 306 304 304 305
296 297 296 297 297 297 297 298 298 297 298 299 299 301 304 304 304 304 303 302 303 303 303 303 303 302 302 301 303 304 304 304 306 307 307 309 310 311 315 314 315 306 304 302 303 302 301
297 297 297 297 297 297 297 297 297 297 299 299 299 302 303 306 304 303 302 302 303 303 303 302 301 301 302 303 309 309 310 310 309 308 309 308 309 313 315 313 308 306 304 305 306 301 299
297 296 297 296 295 296 296 297 298 299 299 299 298 299 304 304 304 302 303 302 303 303 303 302 300 301 302 302 308 307 308 308 310 309 307 307 308 311 312 313 313 306 301 300 302 306 298
297 297 297 296 295 295 296 299 299 299 299 300 298 298 303 304 301 302 302 302 301 301 301 301 301 303 301 304 309 308 309 309 310 307 308 307 308 312 311 311 306 300 300 301 308 305 297
297 296 296 295 294 295 297 298 298 298 298 298 298 298 303 303 302 301 301 301 301 301 301 301 302 302 303 306 307 308 309 309 309 306 306 306 309 310 310 311 311 298 301 306 301 298 297
297 296 295 293 294 295 296 298 298 298 298 297 299 298 300 302 301 299 298 298 299 299 301 300 303 303 303 305 305 307 308 308 308 309 304 307 305 307 305 305 298 297 299 299 299 298 296

GFSGBSN_925_thetae_129.txt.gz
Theta_e
310 314 321 323 324 325 325 324 323 320 319 318 315 311 308 306 304 300 298 297 294 294 296 299 300 300 307 309 307 305 306 306 307 307 308 309 309 309 310 310 310 310 310 311 311 309 309
309 310 310 315 321 323 323 323 322 322 321 319 317 314 309 307 305 301 297 296 294 295 298 299 300 301 310 307 305 307 307 307 307 308 308 309 309 309 309 309 309 310 309 309 309 310 309
308 310 310 311 311 319 321 321 322 322 321 320 318 315 311 308 306 302 298 295 294 297 299 299 301 307 309 308 307 308 306 306 305 306 307 308 308 309 310 309 310 309 308 310 310 309 308
308 308 309 309 309 309 314 319 320 319 321 320 319 318 314 309 307 303 298 294 295 299 300 302 301 308 308 307 308 307 306 306 305 305 305 306 307 309 309 310 310 310 311 312 310 309 309
308 309 308 308 307 308 307 308 313 316 319 319 318 318 315 311 308 302 297 294 299 302 302 301 308 309 309 305 306 305 305 305 305 306 306 305 307 310 310 311 311 312 312 311 310 310 309
306 307 307 308 307 307 307 306 305 305 308 317 317 317 317 314 309 301 295 298 305 305 307 307 307 309 307 307 306 305 305 305 306 308 308 308 309 310 311 311 311 310 310 309 309 309 309
305 306 307 307 307 308 307 307 306 305 305 311 316 318 317 314 306 298 295 305 307 309 308 310 309 307 308 306 304 305 305 306 307 308 309 310 309 310 311 310 309 308 308 308 309 309 309
304 304 305 306 305 305 305 306 306 306 306 306 312 314 315 315 305 297 302 305 301 301 306 308 305 306 306 306 306 306 305 307 309 310 310 310 311 310 308 308 308 308 309 310 310 309 309
303 303 303 304 306 306 306 306 305 307 307 306 307 313 310 312 300 297 303 302 301 300 303 308 304 304 306 305 306 307 306 308 309 310 310 311 311 308 309 309 309 310 310 310 309 309 309
302 302 303 306 305 304 303 303 302 303 303 305 306 313 307 303 298 301 300 300 299 302 308 311 304 305 306 306 306 306 306 309 310 311 310 311 311 309 309 309 309 311 310 309 309 310 310
301 302 302 302 304 304 304 304 302 302 303 307 307 310 306 309 302 301 302 300 301 305 317 311 307 306 306 305 307 305 307 309 311 311 311 314 311 310 310 310 309 310 310 309 309 310 311
300 301 302 302 303 304 304 302 302 303 304 306 308 307 308 304 303 303 300 302 302 308 314 306 306 305 306 306 307 308 308 309 311 311 311 312 311 310 310 309 309 310 311 312 312 312 313
300 300 301 301 303 302 301 302 303 304 305 306 309 305 307 303 303 300 301 303 306 312 309 306 304 305 306 306 307 308 309 311 312 313 313 313 312 310 309 311 312 311 315 317 315 316 315
300 300 301 302 302 301 302 303 304 311 306 306 309 302 303 304 301 302 303 308 311 314 310 305 305 305 306 308 308 308 310 312 312 313 315 314 315 311 310 311 313 313 314 315 312 312 312
300 301 301 302 301 302 303 306 310 317 307 307 307 300 301 302 301 302 307 311 315 314 310 305 305 306 308 307 309 309 310 311 313 313 315 315 313 311 310 311 312 315 314 314 313 313 315
301 301 302 301 302 303 308 312 316 314 307 307 301 301 300 301 301 303 308 315 316 309 307 307 307 307 308 308 310 310 310 311 312 312 312 314 317 313 312 312 312 313 314 316 314 317 318
300 300 301 301 303 306 311 313 314 309 306 302 302 302 301 302 302 306 309 313 311 305 306 306 307 307 309 308 310 310 311 312 312 312 312 313 314 315 313 314 315 316 316 315 314 315 318
298 300 300 302 305 310 313 312 309 303 302 303 302 301 300 300 303 305 310 312 307 306 306 307 308 308 311 310 311 312 312 312 311 311 312 312 317 318 315 313 313 314 314 316 317 317 318
298 299 300 301 304 308 304 303 301 302 303 300 299 300 299 301 308 308 309 308 306 306 307 307 307 308 310 315 315 314 312 311 310 311 312 313 316 318 316 317 312 311 312 313 314 321 321
297 298 300 300 302 302 302 301 302 302 302 299 301 301 300 299 303 307 309 307 306 306 306 307 308 307 308 309 307 311 311 308 308 310 308 311 313 316 318 315 310 310 309 310 313 319 322
298 298 299 299 299 299 299 298 300 300 300 300 304 304 303 305 306 307 305 306 306 306 305 307 307 307 307 308 308 308 309 308 308 308 310 313 315 314 311 310 309 308 309 309 314 314 316
298 297 298 299 299 297 297 298 298 298 299 300 301 305 303 305 306 305 306 306 305 305 305 306 306 307 306 306 307 307 309 310 312 311 312 312 315 313 314 311 309 308 309 310 308 307 306
298 297 297 298 298 298 297 298 298 299 300 301 302 303 305 306 306 306 307 305 304 304 304 305 306 306 305 304 305 307 308 310 311 311 312 312 315 314 318 313 312 313 307 308 306 307 307
297 297 297 296 297 298 297 298 299 298 299 302 303 304 306 306 305 306 304 305 305 304 305 305 305 305 305 304 306 306 306 307 308 309 310 312 312 312 318 314 316 308 305 305 305 304 303
297 297 297 297 296 296 296 298 298 298 298 302 301 304 305 307 305 305 304 305 305 305 305 305 304 304 304 305 310 311 311 311 310 310 310 310 311 313 315 316 309 307 306 306 308 304 302
297 297 297 297 297 298 297 297 297 298 299 301 301 302 307 307 305 305 305 304 305 306 305 304 303 304 304 304 309 307 309 308 311 310 309 309 310 313 314 314 316 311 306 304 305 309 302
297 297 297 296 296 296 297 298 298 299 299 302 302 304 307 308 306 305 305 305 304 304 304 305 304 304 304 305 309 307 308 308 310 310 311 311 311 312 314 314 310 305 304 304 309 308 300
297 297 296 295 296 296 297 299 299 298 298 302 302 304 306 307 305 304 304 304 304 304 305 304 304 304 303 306 306 307 309 309 310 308 308 309 310 311 311 312 313 303 304 307 304 301 299
297 297 296 295 295 296 298 298 298 297 297 302 303 303 304 305 305 302 301 302 302 303 304 304 304 303 304 305 306 308 310 310 309 312 306 309 308 311 308 307 300 301 304 302 301 300 299

GFSGBSN_925_thetae_132.txt.gz
Theta_e
310 310 311 316 320 323 324 324 325 324 323 320 318 317 314 311 308 305 303 298 296 295 295 297 299 300 306 313 310 306 306 307 308 308 309 309 309 310 310 311 311 311 311 311 312 311 310
309 308 309 310 310 316 321 323 324 323 323 322 320 318 316 314 310 307 305 299 296 295 295 298 299 300 312 312 307 308 308 308 308 308 309 309 310 310 309 309 310 311 310 310 310 310 310
311 309 309 309 310 310 312 319 322 322 321 321 321 320 318 316 314 309 306 301 296 295 296 299 300 305 310 309 308 309 308 307 306 307 308 309 308 308 310 311 311 311 310 310 310 311 310
309 310 308 308 308 308 308 310 316 320 320 320 319 320 319 317 314 310 307 301 295 295 298 301 301 308 310 309 309 309 309 307 307 306 307 307 307 308 309 310 310 310 310 311 312 311 311
307 307 308 309 309 308 308 307 307 309 314 317 318 319 319 317 315 312 309 302 295 299 301 302 306 311 310 307 306 307 307 307 307 306 307 307 307 309 311 311 312 313 312 313 313 312 311
305 306 306 307 307 308 308 307 308 307 305 306 312 316 319 317 315 312 309 296 297 302 309 308 308 308 311 310 307 306 306 306 307 308 308 308 309 310 311 311 311 312 311 310 309 310 310
305 305 305 305 307 307 307 308 308 307 306 305 305 310 313 315 316 311 303 299 307 311 307 314 314 311 309 308 307 306 306 307 307 308 309 311 310 310 311 312 310 309 308 308 309 310 310
303 303 304 304 305 305 306 307 307 306 306 306 306 308 314 315 315 305 296 305 303 301 305 307 310 310 309 308 307 306 306 307 308 309 310 311 310 310 311 309 309 309 309 310 311 311 311
302 302 303 303 304 305 306 306 305 306 306 305 306 306 310 310 310 299 302 304 300 301 305 310 310 309 306 307 307 307 307 307 308 310 310 311 312 311 310 310 310 310 311 311 311 310 310
302 302 302 302 303 304 306 305 304 304 303 303 304 306 306 306 304 301 301 302 301 304 310 313 311 310 308 306 307 306 307 307 309 309 310 311 312 311 310 310 310 310 312 311 311 311 311
302 301 301 301 301 302 302 304 305 304 304 304 303 304 307 307 307 302 302 302 302 308 320 316 313 308 308 307 308 307 307 307 309 311 311 311 311 311 310 310 311 311 311 311 312 311 312
300 300 300 299 299 301 301 302 303 304 304 303 303 304 307 306 306 304 302 301 305 313 317 316 310 308 308 308 308 307 307 308 310 310 312 310 312 311 311 311 310 311 311 313 315 314 316
299 299 300 299 300 301 301 302 304 304 302 302 304 304 307 307 306 302 301 305 310 316 313 315 310 307 308 308 307 308 308 309 310 311 311 311 311 312 310 311 311 312 314 319 319 319 316
300 300 300 299 300 301 301 303 303 303 302 303 304 305 306 308 305 302 303 309 313 313 313 311 310 308 308 308 307 308 309 310 310 310 313 314 316 312 311 311 313 315 314 316 316 313 315
302 301 300 300 300 301 302 302 302 302 303 305 305 305 305 307 303 302 307 311 313 312 314 315 308 307 307 308 309 309 309 310 311 311 314 318 315 313 311 311 311 314 315 314 316 315 317
302 301 300 300 300 301 301 301 302 303 304 307 307 306 305 306 303 304 308 312 311 313 314 313 309 308 309 308 309 310 310 309 310 312 312 315 319 313 311 311 311 312 314 316 316 316 318
300 299 300 299 301 301 301 302 303 304 308 311 306 305 303 303 303 305 310 311 312 313 314 316 309 310 309 310 310 310 310 310 312 312 312 313 314 315 313 314 313 315 314 314 314 317 320
300 299 299 300 300 301 303 306 309 311 312 305 303 303 302 302 304 305 309 309 310 315 311 309 309 309 311 311 311 311 310 310 311 311 313 313 317 319 315 313 314 315 316 317 320 318 318
299 299 298 299 301 304 306 309 311 312 306 303 301 302 303 302 309 306 308 310 312 314 309 308 309 310 311 317 314 315 312 312 312 312 313 313 317 315 316 315 313 313 315 313 316 317 319
299 299 298 300 302 301 302 303 307 305 304 301 301 302 301 302 302 307 309 311 312 310 309 308 309 309 311 315 310 313 312 311 311 310 310 313 314 316 321 317 313 311 309 309 311 316 319
299 298 298 300 301 299 299 299 299 299 300 301 306 303 302 303 303 308 309 313 310 309 308 307 310 309 310 310 309 310 312 310 309 309 310 312 316 315 313 310 310 309 309 309 313 315 319
299 298 297 299 300 298 297 298 299 300 301 301 305 304 303 304 305 309 311 312 309 308 308 309 309 309 308 309 309 309 311 310 310 310 310 313 315 313 313 311 310 308 309 307 308 309 308
299 298 297 298 299 298 297 297 297 299 300 301 304 305 307 305 308 311 311 309 309 308 306 307 306 308 308 307 307 308 310 310 311 312 313 314 314 313 314 313 313 314 308 309 308 308 308
298 298 297 297 299 299 298 297 298 298 301 301 304 307 308 308 309 309 307 308 308 305 306 306 307 308 305 306 307 308 308 310 311 312 313 314 314 314 316 314 317 308 307 307 306 305 303
298 298 298 298 297 298 298 297 299 298 298 302 302 305 305 309 308 307 306 306 306 304 306 306 306 306 305 307 309 309 310 310 310 310 310 311 313 315 314 316 309 307 306 306 308 306 304
297 297 298 298 297 297 298 297 298 298 299 302 303 303 306 307 307 306 307 306 307 307 307 306 305 305 305 308 311 309 310 309 310 309 310 309 310 313 315 315 316 311 307 306 307 309 304
297 298 297 298 298 297 296 296 298 299 300 300 303 302 307 309 306 307 308 308 306 306 307 305 305 304 306 308 312 310 310 308 312 311 311 311 312 313 314 312 311 307 306 305 309 310 303
297 297 297 297 297 296 297 298 298 299 298 299 305 306 307 309 307 307 307 307 307 307 307 306 306 305 306 307 308 308 312 310 310 310 312 311 313 313 312 311 314 305 305 308 305 303 302
297 297 296 296 296 297 297 298 298 299 297 298 304 305 306 307 305 303 303 304 304 306 307 306 305 306 304 307 307 309 311 312 308 313 308 310 309 313 308 307 303 303 305 304 302 301 300